<?xml version="1.0" encoding="UTF-8"?>
<gpx creator="strava.com Android" version="1.1" xmlns="http://www.topografix.com/GPX/1/1" xmlns:xsi="http://www.w3.org/2001/XMLSchema-instance" xsi:schemaLocation="http://www.topografix.com/GPX/1/1 http://www.topografix.com/GPX/1/1/gpx.xsd http://www.garmin.com/xmlschemas/GpxExtensions/v3 http://www.garmin.com/xmlschemas/GpxExtensionsv3.xsd http://www.garmin.com/xmlschemas/TrackPointExtension/v1 http://www.garmin.com/xmlschemas/TrackPointExtensionv1.xsd">
 <metadata>
  <time>2013-02-10T18:07:10Z</time>
 </metadata>
 <trk>
  <name> אלון הגליל 10/02/2013</name>
  <trkseg>
   <trkpt lat="32.7636676" lon="35.2215949">
    <ele>216.9</ele>
    <time>2013-02-10T18:07:10Z</time>
   </trkpt>
   <trkpt lat="32.7637182" lon="35.2214339">
    <ele>220.3</ele>
    <time>2013-02-10T18:07:40Z</time>
   </trkpt>
   <trkpt lat="32.7637528" lon="35.2214428">
    <ele>220.5</ele>
    <time>2013-02-10T18:07:42Z</time>
   </trkpt>
   <trkpt lat="32.7637879" lon="35.2214544">
    <ele>220.1</ele>
    <time>2013-02-10T18:07:45Z</time>
   </trkpt>
   <trkpt lat="32.7638198" lon="35.2214559">
    <ele>219.9</ele>
    <time>2013-02-10T18:07:49Z</time>
   </trkpt>
   <trkpt lat="32.7637968" lon="35.2214730">
    <ele>219.7</ele>
    <time>2013-02-10T18:08:35Z</time>
   </trkpt>
   <trkpt lat="32.7638227" lon="35.2214587">
    <ele>219.8</ele>
    <time>2013-02-10T18:08:54Z</time>
   </trkpt>
   <trkpt lat="32.7638589" lon="35.2214514">
    <ele>219.7</ele>
    <time>2013-02-10T18:08:58Z</time>
   </trkpt>
   <trkpt lat="32.7638879" lon="35.2214438">
    <ele>219.7</ele>
    <time>2013-02-10T18:09:01Z</time>
   </trkpt>
   <trkpt lat="32.7639161" lon="35.2214466">
    <ele>219.5</ele>
    <time>2013-02-10T18:09:03Z</time>
   </trkpt>
   <trkpt lat="32.7639561" lon="35.2214565">
    <ele>219.1</ele>
    <time>2013-02-10T18:09:05Z</time>
   </trkpt>
   <trkpt lat="32.7639827" lon="35.2214658">
    <ele>218.8</ele>
    <time>2013-02-10T18:09:06Z</time>
   </trkpt>
   <trkpt lat="32.7640124" lon="35.2214788">
    <ele>218.4</ele>
    <time>2013-02-10T18:09:07Z</time>
   </trkpt>
   <trkpt lat="32.7640459" lon="35.2214953">
    <ele>218.0</ele>
    <time>2013-02-10T18:09:08Z</time>
   </trkpt>
   <trkpt lat="32.7640832" lon="35.2215120">
    <ele>217.5</ele>
    <time>2013-02-10T18:09:09Z</time>
   </trkpt>
   <trkpt lat="32.7641239" lon="35.2215299">
    <ele>217.0</ele>
    <time>2013-02-10T18:09:10Z</time>
   </trkpt>
   <trkpt lat="32.7641784" lon="35.2215633">
    <ele>216.2</ele>
    <time>2013-02-10T18:09:11Z</time>
   </trkpt>
   <trkpt lat="32.7642258" lon="35.2215743">
    <ele>215.8</ele>
    <time>2013-02-10T18:09:12Z</time>
   </trkpt>
   <trkpt lat="32.7642777" lon="35.2215912">
    <ele>215.4</ele>
    <time>2013-02-10T18:09:13Z</time>
   </trkpt>
   <trkpt lat="32.7643273" lon="35.2216110">
    <ele>214.8</ele>
    <time>2013-02-10T18:09:14Z</time>
   </trkpt>
   <trkpt lat="32.7643784" lon="35.2216348">
    <ele>214.3</ele>
    <time>2013-02-10T18:09:15Z</time>
   </trkpt>
   <trkpt lat="32.7644284" lon="35.2216606">
    <ele>213.7</ele>
    <time>2013-02-10T18:09:16Z</time>
   </trkpt>
   <trkpt lat="32.7644769" lon="35.2216941">
    <ele>213.1</ele>
    <time>2013-02-10T18:09:17Z</time>
   </trkpt>
   <trkpt lat="32.7645083" lon="35.2217347">
    <ele>212.5</ele>
    <time>2013-02-10T18:09:18Z</time>
   </trkpt>
   <trkpt lat="32.7645357" lon="35.2217809">
    <ele>211.8</ele>
    <time>2013-02-10T18:09:19Z</time>
   </trkpt>
   <trkpt lat="32.7645555" lon="35.2218287">
    <ele>211.1</ele>
    <time>2013-02-10T18:09:20Z</time>
   </trkpt>
   <trkpt lat="32.7645485" lon="35.2218795">
    <ele>210.5</ele>
    <time>2013-02-10T18:09:21Z</time>
   </trkpt>
   <trkpt lat="32.7645386" lon="35.2219306">
    <ele>209.9</ele>
    <time>2013-02-10T18:09:22Z</time>
   </trkpt>
   <trkpt lat="32.7644906" lon="35.2219773">
    <ele>209.5</ele>
    <time>2013-02-10T18:09:23Z</time>
   </trkpt>
   <trkpt lat="32.7644515" lon="35.2220267">
    <ele>208.9</ele>
    <time>2013-02-10T18:09:24Z</time>
   </trkpt>
   <trkpt lat="32.7644083" lon="35.2220800">
    <ele>208.3</ele>
    <time>2013-02-10T18:09:25Z</time>
   </trkpt>
   <trkpt lat="32.7643610" lon="35.2221364">
    <ele>207.9</ele>
    <time>2013-02-10T18:09:26Z</time>
   </trkpt>
   <trkpt lat="32.7643127" lon="35.2221993">
    <ele>207.5</ele>
    <time>2013-02-10T18:09:27Z</time>
   </trkpt>
   <trkpt lat="32.7642651" lon="35.2222662">
    <ele>207.1</ele>
    <time>2013-02-10T18:09:28Z</time>
   </trkpt>
   <trkpt lat="32.7642120" lon="35.2223334">
    <ele>206.7</ele>
    <time>2013-02-10T18:09:29Z</time>
   </trkpt>
   <trkpt lat="32.7641551" lon="35.2223992">
    <ele>206.2</ele>
    <time>2013-02-10T18:09:30Z</time>
   </trkpt>
   <trkpt lat="32.7640997" lon="35.2224644">
    <ele>205.8</ele>
    <time>2013-02-10T18:09:31Z</time>
   </trkpt>
   <trkpt lat="32.7640430" lon="35.2225331">
    <ele>205.2</ele>
    <time>2013-02-10T18:09:32Z</time>
   </trkpt>
   <trkpt lat="32.7639880" lon="35.2226031">
    <ele>204.7</ele>
    <time>2013-02-10T18:09:33Z</time>
   </trkpt>
   <trkpt lat="32.7639311" lon="35.2226715">
    <ele>204.1</ele>
    <time>2013-02-10T18:09:34Z</time>
   </trkpt>
   <trkpt lat="32.7638776" lon="35.2227394">
    <ele>203.6</ele>
    <time>2013-02-10T18:09:35Z</time>
   </trkpt>
   <trkpt lat="32.7638278" lon="35.2228100">
    <ele>203.0</ele>
    <time>2013-02-10T18:09:36Z</time>
   </trkpt>
   <trkpt lat="32.7637814" lon="35.2228739">
    <ele>202.4</ele>
    <time>2013-02-10T18:09:37Z</time>
   </trkpt>
   <trkpt lat="32.7637364" lon="35.2229328">
    <ele>202.0</ele>
    <time>2013-02-10T18:09:38Z</time>
   </trkpt>
   <trkpt lat="32.7636953" lon="35.2229913">
    <ele>202.1</ele>
    <time>2013-02-10T18:09:39Z</time>
   </trkpt>
   <trkpt lat="32.7636643" lon="35.2230494">
    <ele>202.3</ele>
    <time>2013-02-10T18:09:40Z</time>
   </trkpt>
   <trkpt lat="32.7636322" lon="35.2231013">
    <ele>202.4</ele>
    <time>2013-02-10T18:09:41Z</time>
   </trkpt>
   <trkpt lat="32.7635975" lon="35.2231400">
    <ele>202.5</ele>
    <time>2013-02-10T18:09:42Z</time>
   </trkpt>
   <trkpt lat="32.7635651" lon="35.2231797">
    <ele>202.7</ele>
    <time>2013-02-10T18:09:43Z</time>
   </trkpt>
   <trkpt lat="32.7635353" lon="35.2232154">
    <ele>202.8</ele>
    <time>2013-02-10T18:09:44Z</time>
   </trkpt>
   <trkpt lat="32.7635132" lon="35.2232504">
    <ele>203.0</ele>
    <time>2013-02-10T18:09:45Z</time>
   </trkpt>
   <trkpt lat="32.7634900" lon="35.2232808">
    <ele>203.1</ele>
    <time>2013-02-10T18:09:46Z</time>
   </trkpt>
   <trkpt lat="32.7634649" lon="35.2233080">
    <ele>203.2</ele>
    <time>2013-02-10T18:09:47Z</time>
   </trkpt>
   <trkpt lat="32.7634432" lon="35.2233302">
    <ele>203.4</ele>
    <time>2013-02-10T18:09:48Z</time>
   </trkpt>
   <trkpt lat="32.7634226" lon="35.2233600">
    <ele>203.5</ele>
    <time>2013-02-10T18:09:49Z</time>
   </trkpt>
   <trkpt lat="32.7634001" lon="35.2233883">
    <ele>203.7</ele>
    <time>2013-02-10T18:09:50Z</time>
   </trkpt>
   <trkpt lat="32.7633583" lon="35.2234431">
    <ele>204.0</ele>
    <time>2013-02-10T18:09:52Z</time>
   </trkpt>
   <trkpt lat="32.7633348" lon="35.2234657">
    <ele>204.1</ele>
    <time>2013-02-10T18:09:53Z</time>
   </trkpt>
   <trkpt lat="32.7633135" lon="35.2234901">
    <ele>204.3</ele>
    <time>2013-02-10T18:09:54Z</time>
   </trkpt>
   <trkpt lat="32.7632926" lon="35.2235121">
    <ele>204.4</ele>
    <time>2013-02-10T18:09:55Z</time>
   </trkpt>
   <trkpt lat="32.7632566" lon="35.2235519">
    <ele>204.7</ele>
    <time>2013-02-10T18:09:57Z</time>
   </trkpt>
   <trkpt lat="32.7632285" lon="35.2235849">
    <ele>205.0</ele>
    <time>2013-02-10T18:09:59Z</time>
   </trkpt>
   <trkpt lat="32.7631996" lon="35.2236098">
    <ele>205.2</ele>
    <time>2013-02-10T18:10:01Z</time>
   </trkpt>
   <trkpt lat="32.7631727" lon="35.2236500">
    <ele>205.5</ele>
    <time>2013-02-10T18:10:03Z</time>
   </trkpt>
   <trkpt lat="32.7631481" lon="35.2237103">
    <ele>205.9</ele>
    <time>2013-02-10T18:10:05Z</time>
   </trkpt>
   <trkpt lat="32.7631348" lon="35.2237478">
    <ele>206.2</ele>
    <time>2013-02-10T18:10:06Z</time>
   </trkpt>
   <trkpt lat="32.7631219" lon="35.2237910">
    <ele>206.3</ele>
    <time>2013-02-10T18:10:07Z</time>
   </trkpt>
   <trkpt lat="32.7631053" lon="35.2238347">
    <ele>206.5</ele>
    <time>2013-02-10T18:10:08Z</time>
   </trkpt>
   <trkpt lat="32.7630844" lon="35.2238797">
    <ele>206.6</ele>
    <time>2013-02-10T18:10:09Z</time>
   </trkpt>
   <trkpt lat="32.7630635" lon="35.2239221">
    <ele>206.8</ele>
    <time>2013-02-10T18:10:10Z</time>
   </trkpt>
   <trkpt lat="32.7630399" lon="35.2239564">
    <ele>206.9</ele>
    <time>2013-02-10T18:10:11Z</time>
   </trkpt>
   <trkpt lat="32.7630070" lon="35.2239889">
    <ele>207.1</ele>
    <time>2013-02-10T18:10:12Z</time>
   </trkpt>
   <trkpt lat="32.7629789" lon="35.2240166">
    <ele>207.2</ele>
    <time>2013-02-10T18:10:13Z</time>
   </trkpt>
   <trkpt lat="32.7629460" lon="35.2240421">
    <ele>207.3</ele>
    <time>2013-02-10T18:10:14Z</time>
   </trkpt>
   <trkpt lat="32.7628802" lon="35.2240487">
    <ele>207.6</ele>
    <time>2013-02-10T18:10:15Z</time>
   </trkpt>
   <trkpt lat="32.7628424" lon="35.2240781">
    <ele>207.8</ele>
    <time>2013-02-10T18:10:16Z</time>
   </trkpt>
   <trkpt lat="32.7628048" lon="35.2241162">
    <ele>208.1</ele>
    <time>2013-02-10T18:10:17Z</time>
   </trkpt>
   <trkpt lat="32.7627756" lon="35.2241733">
    <ele>208.3</ele>
    <time>2013-02-10T18:10:18Z</time>
   </trkpt>
   <trkpt lat="32.7627517" lon="35.2242304">
    <ele>208.5</ele>
    <time>2013-02-10T18:10:19Z</time>
   </trkpt>
   <trkpt lat="32.7627246" lon="35.2242900">
    <ele>208.7</ele>
    <time>2013-02-10T18:10:20Z</time>
   </trkpt>
   <trkpt lat="32.7627023" lon="35.2243521">
    <ele>208.8</ele>
    <time>2013-02-10T18:10:21Z</time>
   </trkpt>
   <trkpt lat="32.7626774" lon="35.2244185">
    <ele>209.0</ele>
    <time>2013-02-10T18:10:22Z</time>
   </trkpt>
   <trkpt lat="32.7626504" lon="35.2244865">
    <ele>209.2</ele>
    <time>2013-02-10T18:10:23Z</time>
   </trkpt>
   <trkpt lat="32.7626221" lon="35.2245525">
    <ele>209.4</ele>
    <time>2013-02-10T18:10:24Z</time>
   </trkpt>
   <trkpt lat="32.7625914" lon="35.2246082">
    <ele>209.4</ele>
    <time>2013-02-10T18:10:25Z</time>
   </trkpt>
   <trkpt lat="32.7625495" lon="35.2246558">
    <ele>209.4</ele>
    <time>2013-02-10T18:10:26Z</time>
   </trkpt>
   <trkpt lat="32.7625035" lon="35.2246845">
    <ele>209.4</ele>
    <time>2013-02-10T18:10:27Z</time>
   </trkpt>
   <trkpt lat="32.7624601" lon="35.2247005">
    <ele>209.5</ele>
    <time>2013-02-10T18:10:28Z</time>
   </trkpt>
   <trkpt lat="32.7624193" lon="35.2247198">
    <ele>209.6</ele>
    <time>2013-02-10T18:10:29Z</time>
   </trkpt>
   <trkpt lat="32.7623910" lon="35.2247481">
    <ele>209.6</ele>
    <time>2013-02-10T18:10:30Z</time>
   </trkpt>
   <trkpt lat="32.7623584" lon="35.2247784">
    <ele>209.5</ele>
    <time>2013-02-10T18:10:31Z</time>
   </trkpt>
   <trkpt lat="32.7623225" lon="35.2248100">
    <ele>209.5</ele>
    <time>2013-02-10T18:10:32Z</time>
   </trkpt>
   <trkpt lat="32.7622670" lon="35.2248260">
    <ele>209.6</ele>
    <time>2013-02-10T18:10:33Z</time>
   </trkpt>
   <trkpt lat="32.7622240" lon="35.2248416">
    <ele>209.6</ele>
    <time>2013-02-10T18:10:34Z</time>
   </trkpt>
   <trkpt lat="32.7621835" lon="35.2248520">
    <ele>209.7</ele>
    <time>2013-02-10T18:10:35Z</time>
   </trkpt>
   <trkpt lat="32.7621446" lon="35.2248650">
    <ele>209.8</ele>
    <time>2013-02-10T18:10:36Z</time>
   </trkpt>
   <trkpt lat="32.7621041" lon="35.2248769">
    <ele>209.8</ele>
    <time>2013-02-10T18:10:37Z</time>
   </trkpt>
   <trkpt lat="32.7620686" lon="35.2248867">
    <ele>209.9</ele>
    <time>2013-02-10T18:10:38Z</time>
   </trkpt>
   <trkpt lat="32.7620312" lon="35.2248982">
    <ele>209.9</ele>
    <time>2013-02-10T18:10:39Z</time>
   </trkpt>
   <trkpt lat="32.7619992" lon="35.2249075">
    <ele>209.9</ele>
    <time>2013-02-10T18:10:40Z</time>
   </trkpt>
   <trkpt lat="32.7619677" lon="35.2249203">
    <ele>209.9</ele>
    <time>2013-02-10T18:10:41Z</time>
   </trkpt>
   <trkpt lat="32.7619326" lon="35.2249356">
    <ele>209.9</ele>
    <time>2013-02-10T18:10:42Z</time>
   </trkpt>
   <trkpt lat="32.7618983" lon="35.2249496">
    <ele>209.8</ele>
    <time>2013-02-10T18:10:43Z</time>
   </trkpt>
   <trkpt lat="32.7618644" lon="35.2249641">
    <ele>209.8</ele>
    <time>2013-02-10T18:10:44Z</time>
   </trkpt>
   <trkpt lat="32.7618326" lon="35.2249816">
    <ele>209.7</ele>
    <time>2013-02-10T18:10:45Z</time>
   </trkpt>
   <trkpt lat="32.7617973" lon="35.2249990">
    <ele>209.7</ele>
    <time>2013-02-10T18:10:46Z</time>
   </trkpt>
   <trkpt lat="32.7617624" lon="35.2250173">
    <ele>209.6</ele>
    <time>2013-02-10T18:10:47Z</time>
   </trkpt>
   <trkpt lat="32.7617244" lon="35.2250368">
    <ele>209.6</ele>
    <time>2013-02-10T18:10:48Z</time>
   </trkpt>
   <trkpt lat="32.7616866" lon="35.2250569">
    <ele>209.5</ele>
    <time>2013-02-10T18:10:49Z</time>
   </trkpt>
   <trkpt lat="32.7616467" lon="35.2250765">
    <ele>209.4</ele>
    <time>2013-02-10T18:10:50Z</time>
   </trkpt>
   <trkpt lat="32.7616055" lon="35.2250947">
    <ele>209.3</ele>
    <time>2013-02-10T18:10:51Z</time>
   </trkpt>
   <trkpt lat="32.7615635" lon="35.2251114">
    <ele>209.3</ele>
    <time>2013-02-10T18:10:52Z</time>
   </trkpt>
   <trkpt lat="32.7615211" lon="35.2251254">
    <ele>209.2</ele>
    <time>2013-02-10T18:10:53Z</time>
   </trkpt>
   <trkpt lat="32.7614806" lon="35.2251293">
    <ele>209.3</ele>
    <time>2013-02-10T18:10:54Z</time>
   </trkpt>
   <trkpt lat="32.7614419" lon="35.2251299">
    <ele>209.4</ele>
    <time>2013-02-10T18:10:55Z</time>
   </trkpt>
   <trkpt lat="32.7614057" lon="35.2251283">
    <ele>209.5</ele>
    <time>2013-02-10T18:10:56Z</time>
   </trkpt>
   <trkpt lat="32.7613732" lon="35.2251188">
    <ele>209.6</ele>
    <time>2013-02-10T18:10:57Z</time>
   </trkpt>
   <trkpt lat="32.7613425" lon="35.2251082">
    <ele>209.8</ele>
    <time>2013-02-10T18:10:58Z</time>
   </trkpt>
   <trkpt lat="32.7613186" lon="35.2250915">
    <ele>210.0</ele>
    <time>2013-02-10T18:10:59Z</time>
   </trkpt>
   <trkpt lat="32.7612940" lon="35.2250778">
    <ele>210.2</ele>
    <time>2013-02-10T18:11:00Z</time>
   </trkpt>
   <trkpt lat="32.7612475" lon="35.2250535">
    <ele>210.5</ele>
    <time>2013-02-10T18:11:02Z</time>
   </trkpt>
   <trkpt lat="32.7612063" lon="35.2250324">
    <ele>210.5</ele>
    <time>2013-02-10T18:11:04Z</time>
   </trkpt>
   <trkpt lat="32.7611640" lon="35.2250128">
    <ele>210.5</ele>
    <time>2013-02-10T18:11:06Z</time>
   </trkpt>
   <trkpt lat="32.7611187" lon="35.2249926">
    <ele>210.4</ele>
    <time>2013-02-10T18:11:08Z</time>
   </trkpt>
   <trkpt lat="32.7610711" lon="35.2249695">
    <ele>210.4</ele>
    <time>2013-02-10T18:11:10Z</time>
   </trkpt>
   <trkpt lat="32.7610236" lon="35.2249483">
    <ele>210.4</ele>
    <time>2013-02-10T18:11:12Z</time>
   </trkpt>
   <trkpt lat="32.7609817" lon="35.2249285">
    <ele>210.5</ele>
    <time>2013-02-10T18:11:14Z</time>
   </trkpt>
   <trkpt lat="32.7609400" lon="35.2249113">
    <ele>210.4</ele>
    <time>2013-02-10T18:11:16Z</time>
   </trkpt>
   <trkpt lat="32.7608990" lon="35.2248867">
    <ele>210.5</ele>
    <time>2013-02-10T18:11:18Z</time>
   </trkpt>
   <trkpt lat="32.7608551" lon="35.2248583">
    <ele>210.6</ele>
    <time>2013-02-10T18:11:20Z</time>
   </trkpt>
   <trkpt lat="32.7608121" lon="35.2248321">
    <ele>210.7</ele>
    <time>2013-02-10T18:11:22Z</time>
   </trkpt>
   <trkpt lat="32.7607667" lon="35.2248011">
    <ele>210.9</ele>
    <time>2013-02-10T18:11:24Z</time>
   </trkpt>
   <trkpt lat="32.7607429" lon="35.2247834">
    <ele>211.0</ele>
    <time>2013-02-10T18:11:25Z</time>
   </trkpt>
   <trkpt lat="32.7607225" lon="35.2247612">
    <ele>211.1</ele>
    <time>2013-02-10T18:11:26Z</time>
   </trkpt>
   <trkpt lat="32.7606884" lon="35.2247201">
    <ele>211.4</ele>
    <time>2013-02-10T18:11:28Z</time>
   </trkpt>
   <trkpt lat="32.7606597" lon="35.2246937">
    <ele>211.6</ele>
    <time>2013-02-10T18:11:30Z</time>
   </trkpt>
   <trkpt lat="32.7606321" lon="35.2246690">
    <ele>211.8</ele>
    <time>2013-02-10T18:11:32Z</time>
   </trkpt>
   <trkpt lat="32.7605871" lon="35.2246465">
    <ele>211.9</ele>
    <time>2013-02-10T18:11:34Z</time>
   </trkpt>
   <trkpt lat="32.7605611" lon="35.2246357">
    <ele>211.9</ele>
    <time>2013-02-10T18:11:35Z</time>
   </trkpt>
   <trkpt lat="32.7605358" lon="35.2246227">
    <ele>212.0</ele>
    <time>2013-02-10T18:11:36Z</time>
   </trkpt>
   <trkpt lat="32.7605077" lon="35.2246061">
    <ele>212.1</ele>
    <time>2013-02-10T18:11:37Z</time>
   </trkpt>
   <trkpt lat="32.7604796" lon="35.2245904">
    <ele>212.1</ele>
    <time>2013-02-10T18:11:38Z</time>
   </trkpt>
   <trkpt lat="32.7604531" lon="35.2245722">
    <ele>212.2</ele>
    <time>2013-02-10T18:11:39Z</time>
   </trkpt>
   <trkpt lat="32.7604282" lon="35.2245499">
    <ele>212.3</ele>
    <time>2013-02-10T18:11:40Z</time>
   </trkpt>
   <trkpt lat="32.7603874" lon="35.2245166">
    <ele>212.6</ele>
    <time>2013-02-10T18:11:42Z</time>
   </trkpt>
   <trkpt lat="32.7603579" lon="35.2245081">
    <ele>212.7</ele>
    <time>2013-02-10T18:11:44Z</time>
   </trkpt>
   <trkpt lat="32.7603220" lon="35.2245130">
    <ele>212.7</ele>
    <time>2013-02-10T18:11:47Z</time>
   </trkpt>
   <trkpt lat="32.7602655" lon="35.2245186">
    <ele>212.7</ele>
    <time>2013-02-10T18:11:49Z</time>
   </trkpt>
   <trkpt lat="32.7602324" lon="35.2245213">
    <ele>212.8</ele>
    <time>2013-02-10T18:11:50Z</time>
   </trkpt>
   <trkpt lat="32.7601501" lon="35.2245411">
    <ele>212.7</ele>
    <time>2013-02-10T18:11:51Z</time>
   </trkpt>
   <trkpt lat="32.7600991" lon="35.2245588">
    <ele>212.6</ele>
    <time>2013-02-10T18:11:52Z</time>
   </trkpt>
   <trkpt lat="32.7600468" lon="35.2245779">
    <ele>212.5</ele>
    <time>2013-02-10T18:11:53Z</time>
   </trkpt>
   <trkpt lat="32.7599923" lon="35.2245846">
    <ele>212.5</ele>
    <time>2013-02-10T18:11:54Z</time>
   </trkpt>
   <trkpt lat="32.7599371" lon="35.2245946">
    <ele>212.4</ele>
    <time>2013-02-10T18:11:55Z</time>
   </trkpt>
   <trkpt lat="32.7598844" lon="35.2246021">
    <ele>212.4</ele>
    <time>2013-02-10T18:11:56Z</time>
   </trkpt>
   <trkpt lat="32.7598298" lon="35.2246279">
    <ele>212.2</ele>
    <time>2013-02-10T18:11:57Z</time>
   </trkpt>
   <trkpt lat="32.7597792" lon="35.2247033">
    <ele>211.4</ele>
    <time>2013-02-10T18:11:58Z</time>
   </trkpt>
   <trkpt lat="32.7597229" lon="35.2247551">
    <ele>210.9</ele>
    <time>2013-02-10T18:11:59Z</time>
   </trkpt>
   <trkpt lat="32.7596635" lon="35.2248014">
    <ele>210.5</ele>
    <time>2013-02-10T18:12:00Z</time>
   </trkpt>
   <trkpt lat="32.7596011" lon="35.2248415">
    <ele>210.2</ele>
    <time>2013-02-10T18:12:01Z</time>
   </trkpt>
   <trkpt lat="32.7595425" lon="35.2248918">
    <ele>209.6</ele>
    <time>2013-02-10T18:12:02Z</time>
   </trkpt>
   <trkpt lat="32.7594918" lon="35.2249528">
    <ele>208.7</ele>
    <time>2013-02-10T18:12:03Z</time>
   </trkpt>
   <trkpt lat="32.7594442" lon="35.2250225">
    <ele>207.8</ele>
    <time>2013-02-10T18:12:04Z</time>
   </trkpt>
   <trkpt lat="32.7594149" lon="35.2251047">
    <ele>206.8</ele>
    <time>2013-02-10T18:12:05Z</time>
   </trkpt>
   <trkpt lat="32.7593804" lon="35.2251846">
    <ele>205.8</ele>
    <time>2013-02-10T18:12:06Z</time>
   </trkpt>
   <trkpt lat="32.7593173" lon="35.2252435">
    <ele>205.0</ele>
    <time>2013-02-10T18:12:07Z</time>
   </trkpt>
   <trkpt lat="32.7592621" lon="35.2253046">
    <ele>204.1</ele>
    <time>2013-02-10T18:12:08Z</time>
   </trkpt>
   <trkpt lat="32.7592031" lon="35.2253591">
    <ele>203.3</ele>
    <time>2013-02-10T18:12:09Z</time>
   </trkpt>
   <trkpt lat="32.7591328" lon="35.2253878">
    <ele>202.7</ele>
    <time>2013-02-10T18:12:10Z</time>
   </trkpt>
   <trkpt lat="32.7590644" lon="35.2254226">
    <ele>202.1</ele>
    <time>2013-02-10T18:12:11Z</time>
   </trkpt>
   <trkpt lat="32.7589951" lon="35.2254585">
    <ele>201.3</ele>
    <time>2013-02-10T18:12:12Z</time>
   </trkpt>
   <trkpt lat="32.7589218" lon="35.2254891">
    <ele>200.6</ele>
    <time>2013-02-10T18:12:13Z</time>
   </trkpt>
   <trkpt lat="32.7588894" lon="35.2255505">
    <ele>199.7</ele>
    <time>2013-02-10T18:12:14Z</time>
   </trkpt>
   <trkpt lat="32.7588523" lon="35.2256146">
    <ele>198.7</ele>
    <time>2013-02-10T18:12:15Z</time>
   </trkpt>
   <trkpt lat="32.7588095" lon="35.2256687">
    <ele>197.9</ele>
    <time>2013-02-10T18:12:16Z</time>
   </trkpt>
   <trkpt lat="32.7587606" lon="35.2257150">
    <ele>197.1</ele>
    <time>2013-02-10T18:12:17Z</time>
   </trkpt>
   <trkpt lat="32.7586788" lon="35.2257257">
    <ele>196.6</ele>
    <time>2013-02-10T18:12:18Z</time>
   </trkpt>
   <trkpt lat="32.7585928" lon="35.2257010">
    <ele>196.5</ele>
    <time>2013-02-10T18:12:19Z</time>
   </trkpt>
   <trkpt lat="32.7585168" lon="35.2257150">
    <ele>196.0</ele>
    <time>2013-02-10T18:12:20Z</time>
   </trkpt>
   <trkpt lat="32.7584506" lon="35.2257305">
    <ele>195.5</ele>
    <time>2013-02-10T18:12:21Z</time>
   </trkpt>
   <trkpt lat="32.7583858" lon="35.2257726">
    <ele>194.5</ele>
    <time>2013-02-10T18:12:22Z</time>
   </trkpt>
   <trkpt lat="32.7583033" lon="35.2257888">
    <ele>193.8</ele>
    <time>2013-02-10T18:12:23Z</time>
   </trkpt>
   <trkpt lat="32.7582248" lon="35.2257802">
    <ele>193.6</ele>
    <time>2013-02-10T18:12:24Z</time>
   </trkpt>
   <trkpt lat="32.7581458" lon="35.2257752">
    <ele>193.3</ele>
    <time>2013-02-10T18:12:25Z</time>
   </trkpt>
   <trkpt lat="32.7580748" lon="35.2257644">
    <ele>193.1</ele>
    <time>2013-02-10T18:12:26Z</time>
   </trkpt>
   <trkpt lat="32.7580106" lon="35.2257508">
    <ele>193.0</ele>
    <time>2013-02-10T18:12:27Z</time>
   </trkpt>
   <trkpt lat="32.7579429" lon="35.2257406">
    <ele>192.9</ele>
    <time>2013-02-10T18:12:28Z</time>
   </trkpt>
   <trkpt lat="32.7578755" lon="35.2257239">
    <ele>192.7</ele>
    <time>2013-02-10T18:12:29Z</time>
   </trkpt>
   <trkpt lat="32.7578244" lon="35.2256964">
    <ele>192.7</ele>
    <time>2013-02-10T18:12:30Z</time>
   </trkpt>
   <trkpt lat="32.7577779" lon="35.2256796">
    <ele>192.6</ele>
    <time>2013-02-10T18:12:31Z</time>
   </trkpt>
   <trkpt lat="32.7577332" lon="35.2256574">
    <ele>192.6</ele>
    <time>2013-02-10T18:12:32Z</time>
   </trkpt>
   <trkpt lat="32.7576892" lon="35.2256384">
    <ele>192.5</ele>
    <time>2013-02-10T18:12:33Z</time>
   </trkpt>
   <trkpt lat="32.7576507" lon="35.2256016">
    <ele>192.9</ele>
    <time>2013-02-10T18:12:34Z</time>
   </trkpt>
   <trkpt lat="32.7576158" lon="35.2255789">
    <ele>193.1</ele>
    <time>2013-02-10T18:12:35Z</time>
   </trkpt>
   <trkpt lat="32.7575803" lon="35.2255501">
    <ele>193.4</ele>
    <time>2013-02-10T18:12:36Z</time>
   </trkpt>
   <trkpt lat="32.7575421" lon="35.2255235">
    <ele>193.6</ele>
    <time>2013-02-10T18:12:37Z</time>
   </trkpt>
   <trkpt lat="32.7575026" lon="35.2255038">
    <ele>193.6</ele>
    <time>2013-02-10T18:12:38Z</time>
   </trkpt>
   <trkpt lat="32.7574686" lon="35.2254844">
    <ele>193.8</ele>
    <time>2013-02-10T18:12:39Z</time>
   </trkpt>
   <trkpt lat="32.7574344" lon="35.2254620">
    <ele>194.0</ele>
    <time>2013-02-10T18:12:40Z</time>
   </trkpt>
   <trkpt lat="32.7574029" lon="35.2254304">
    <ele>194.4</ele>
    <time>2013-02-10T18:12:41Z</time>
   </trkpt>
   <trkpt lat="32.7573717" lon="35.2254008">
    <ele>194.7</ele>
    <time>2013-02-10T18:12:42Z</time>
   </trkpt>
   <trkpt lat="32.7573368" lon="35.2253811">
    <ele>194.8</ele>
    <time>2013-02-10T18:12:43Z</time>
   </trkpt>
   <trkpt lat="32.7572993" lon="35.2253659">
    <ele>194.7</ele>
    <time>2013-02-10T18:12:44Z</time>
   </trkpt>
   <trkpt lat="32.7572593" lon="35.2253509">
    <ele>194.7</ele>
    <time>2013-02-10T18:12:45Z</time>
   </trkpt>
   <trkpt lat="32.7572185" lon="35.2253440">
    <ele>194.5</ele>
    <time>2013-02-10T18:12:46Z</time>
   </trkpt>
   <trkpt lat="32.7571771" lon="35.2253438">
    <ele>194.2</ele>
    <time>2013-02-10T18:12:47Z</time>
   </trkpt>
   <trkpt lat="32.7571151" lon="35.2253387">
    <ele>193.8</ele>
    <time>2013-02-10T18:12:48Z</time>
   </trkpt>
   <trkpt lat="32.7570611" lon="35.2253209">
    <ele>193.7</ele>
    <time>2013-02-10T18:12:49Z</time>
   </trkpt>
   <trkpt lat="32.7570079" lon="35.2252877">
    <ele>193.9</ele>
    <time>2013-02-10T18:12:50Z</time>
   </trkpt>
   <trkpt lat="32.7569677" lon="35.2252534">
    <ele>194.2</ele>
    <time>2013-02-10T18:12:51Z</time>
   </trkpt>
   <trkpt lat="32.7569285" lon="35.2252111">
    <ele>194.7</ele>
    <time>2013-02-10T18:12:53Z</time>
   </trkpt>
   <trkpt lat="32.7569053" lon="35.2251932">
    <ele>194.9</ele>
    <time>2013-02-10T18:12:54Z</time>
   </trkpt>
   <trkpt lat="32.7568657" lon="35.2251712">
    <ele>195.0</ele>
    <time>2013-02-10T18:12:55Z</time>
   </trkpt>
   <trkpt lat="32.7568341" lon="35.2251524">
    <ele>195.1</ele>
    <time>2013-02-10T18:12:56Z</time>
   </trkpt>
   <trkpt lat="32.7567757" lon="35.2251308">
    <ele>195.0</ele>
    <time>2013-02-10T18:12:58Z</time>
   </trkpt>
   <trkpt lat="32.7567425" lon="35.2251161">
    <ele>195.0</ele>
    <time>2013-02-10T18:12:59Z</time>
   </trkpt>
   <trkpt lat="32.7567095" lon="35.2251032">
    <ele>195.0</ele>
    <time>2013-02-10T18:13:00Z</time>
   </trkpt>
   <trkpt lat="32.7566694" lon="35.2251000">
    <ele>194.7</ele>
    <time>2013-02-10T18:13:01Z</time>
   </trkpt>
   <trkpt lat="32.7565979" lon="35.2251134">
    <ele>193.9</ele>
    <time>2013-02-10T18:13:02Z</time>
   </trkpt>
   <trkpt lat="32.7565512" lon="35.2251119">
    <ele>193.6</ele>
    <time>2013-02-10T18:13:03Z</time>
   </trkpt>
   <trkpt lat="32.7564925" lon="35.2251209">
    <ele>192.9</ele>
    <time>2013-02-10T18:13:04Z</time>
   </trkpt>
   <trkpt lat="32.7564387" lon="35.2251355">
    <ele>192.2</ele>
    <time>2013-02-10T18:13:05Z</time>
   </trkpt>
   <trkpt lat="32.7563913" lon="35.2251488">
    <ele>191.6</ele>
    <time>2013-02-10T18:13:06Z</time>
   </trkpt>
   <trkpt lat="32.7563496" lon="35.2251616">
    <ele>191.1</ele>
    <time>2013-02-10T18:13:07Z</time>
   </trkpt>
   <trkpt lat="32.7563101" lon="35.2251683">
    <ele>190.6</ele>
    <time>2013-02-10T18:13:08Z</time>
   </trkpt>
   <trkpt lat="32.7562704" lon="35.2251889">
    <ele>190.0</ele>
    <time>2013-02-10T18:13:09Z</time>
   </trkpt>
   <trkpt lat="32.7562333" lon="35.2251987">
    <ele>189.4</ele>
    <time>2013-02-10T18:13:10Z</time>
   </trkpt>
   <trkpt lat="32.7561940" lon="35.2252071">
    <ele>188.7</ele>
    <time>2013-02-10T18:13:11Z</time>
   </trkpt>
   <trkpt lat="32.7561596" lon="35.2251967">
    <ele>188.4</ele>
    <time>2013-02-10T18:13:12Z</time>
   </trkpt>
   <trkpt lat="32.7561271" lon="35.2252061">
    <ele>187.7</ele>
    <time>2013-02-10T18:13:13Z</time>
   </trkpt>
   <trkpt lat="32.7560892" lon="35.2252215">
    <ele>186.9</ele>
    <time>2013-02-10T18:13:14Z</time>
   </trkpt>
   <trkpt lat="32.7560540" lon="35.2252236">
    <ele>186.4</ele>
    <time>2013-02-10T18:13:15Z</time>
   </trkpt>
   <trkpt lat="32.7560230" lon="35.2252230">
    <ele>185.9</ele>
    <time>2013-02-10T18:13:16Z</time>
   </trkpt>
   <trkpt lat="32.7559878" lon="35.2252236">
    <ele>185.4</ele>
    <time>2013-02-10T18:13:17Z</time>
   </trkpt>
   <trkpt lat="32.7559514" lon="35.2252220">
    <ele>184.9</ele>
    <time>2013-02-10T18:13:18Z</time>
   </trkpt>
   <trkpt lat="32.7559153" lon="35.2252157">
    <ele>184.5</ele>
    <time>2013-02-10T18:13:19Z</time>
   </trkpt>
   <trkpt lat="32.7558790" lon="35.2252075">
    <ele>184.1</ele>
    <time>2013-02-10T18:13:20Z</time>
   </trkpt>
   <trkpt lat="32.7558442" lon="35.2251980">
    <ele>183.7</ele>
    <time>2013-02-10T18:13:21Z</time>
   </trkpt>
   <trkpt lat="32.7558070" lon="35.2251887">
    <ele>183.3</ele>
    <time>2013-02-10T18:13:22Z</time>
   </trkpt>
   <trkpt lat="32.7557677" lon="35.2251795">
    <ele>182.9</ele>
    <time>2013-02-10T18:13:23Z</time>
   </trkpt>
   <trkpt lat="32.7557295" lon="35.2251665">
    <ele>182.5</ele>
    <time>2013-02-10T18:13:24Z</time>
   </trkpt>
   <trkpt lat="32.7556921" lon="35.2251527">
    <ele>182.2</ele>
    <time>2013-02-10T18:13:25Z</time>
   </trkpt>
   <trkpt lat="32.7556525" lon="35.2251416">
    <ele>181.8</ele>
    <time>2013-02-10T18:13:26Z</time>
   </trkpt>
   <trkpt lat="32.7556150" lon="35.2251249">
    <ele>181.5</ele>
    <time>2013-02-10T18:13:27Z</time>
   </trkpt>
   <trkpt lat="32.7555803" lon="35.2251020">
    <ele>181.3</ele>
    <time>2013-02-10T18:13:28Z</time>
   </trkpt>
   <trkpt lat="32.7555475" lon="35.2250833">
    <ele>181.1</ele>
    <time>2013-02-10T18:13:29Z</time>
   </trkpt>
   <trkpt lat="32.7555219" lon="35.2250606">
    <ele>181.1</ele>
    <time>2013-02-10T18:13:30Z</time>
   </trkpt>
   <trkpt lat="32.7554945" lon="35.2250386">
    <ele>181.1</ele>
    <time>2013-02-10T18:13:31Z</time>
   </trkpt>
   <trkpt lat="32.7554713" lon="35.2250190">
    <ele>181.0</ele>
    <time>2013-02-10T18:13:32Z</time>
   </trkpt>
   <trkpt lat="32.7554323" lon="35.2249845">
    <ele>181.0</ele>
    <time>2013-02-10T18:13:34Z</time>
   </trkpt>
   <trkpt lat="32.7554030" lon="35.2249399">
    <ele>181.2</ele>
    <time>2013-02-10T18:13:36Z</time>
   </trkpt>
   <trkpt lat="32.7553931" lon="35.2249089">
    <ele>181.5</ele>
    <time>2013-02-10T18:13:37Z</time>
   </trkpt>
   <trkpt lat="32.7553755" lon="35.2248794">
    <ele>181.7</ele>
    <time>2013-02-10T18:13:38Z</time>
   </trkpt>
   <trkpt lat="32.7553601" lon="35.2248461">
    <ele>182.0</ele>
    <time>2013-02-10T18:13:39Z</time>
   </trkpt>
   <trkpt lat="32.7553429" lon="35.2248114">
    <ele>182.2</ele>
    <time>2013-02-10T18:13:40Z</time>
   </trkpt>
   <trkpt lat="32.7553233" lon="35.2247778">
    <ele>182.4</ele>
    <time>2013-02-10T18:13:41Z</time>
   </trkpt>
   <trkpt lat="32.7552991" lon="35.2247461">
    <ele>182.5</ele>
    <time>2013-02-10T18:13:42Z</time>
   </trkpt>
   <trkpt lat="32.7552618" lon="35.2247195">
    <ele>182.4</ele>
    <time>2013-02-10T18:13:43Z</time>
   </trkpt>
   <trkpt lat="32.7552050" lon="35.2246872">
    <ele>182.0</ele>
    <time>2013-02-10T18:13:44Z</time>
   </trkpt>
   <trkpt lat="32.7551570" lon="35.2246642">
    <ele>181.6</ele>
    <time>2013-02-10T18:13:45Z</time>
   </trkpt>
   <trkpt lat="32.7551093" lon="35.2246242">
    <ele>181.5</ele>
    <time>2013-02-10T18:13:46Z</time>
   </trkpt>
   <trkpt lat="32.7550650" lon="35.2245843">
    <ele>181.5</ele>
    <time>2013-02-10T18:13:47Z</time>
   </trkpt>
   <trkpt lat="32.7550279" lon="35.2245413">
    <ele>181.6</ele>
    <time>2013-02-10T18:13:48Z</time>
   </trkpt>
   <trkpt lat="32.7550033" lon="35.2244960">
    <ele>181.9</ele>
    <time>2013-02-10T18:13:49Z</time>
   </trkpt>
   <trkpt lat="32.7549783" lon="35.2244526">
    <ele>182.1</ele>
    <time>2013-02-10T18:13:50Z</time>
   </trkpt>
   <trkpt lat="32.7549583" lon="35.2244176">
    <ele>182.3</ele>
    <time>2013-02-10T18:13:51Z</time>
   </trkpt>
   <trkpt lat="32.7549352" lon="35.2243820">
    <ele>182.5</ele>
    <time>2013-02-10T18:13:52Z</time>
   </trkpt>
   <trkpt lat="32.7549134" lon="35.2243449">
    <ele>182.8</ele>
    <time>2013-02-10T18:13:53Z</time>
   </trkpt>
   <trkpt lat="32.7548943" lon="35.2243069">
    <ele>183.0</ele>
    <time>2013-02-10T18:13:54Z</time>
   </trkpt>
   <trkpt lat="32.7548711" lon="35.2242755">
    <ele>183.2</ele>
    <time>2013-02-10T18:13:55Z</time>
   </trkpt>
   <trkpt lat="32.7548157" lon="35.2242466">
    <ele>182.8</ele>
    <time>2013-02-10T18:13:56Z</time>
   </trkpt>
   <trkpt lat="32.7547682" lon="35.2242167">
    <ele>182.5</ele>
    <time>2013-02-10T18:13:57Z</time>
   </trkpt>
   <trkpt lat="32.7547252" lon="35.2241871">
    <ele>182.3</ele>
    <time>2013-02-10T18:13:58Z</time>
   </trkpt>
   <trkpt lat="32.7546797" lon="35.2241499">
    <ele>182.2</ele>
    <time>2013-02-10T18:13:59Z</time>
   </trkpt>
   <trkpt lat="32.7546416" lon="35.2241223">
    <ele>182.1</ele>
    <time>2013-02-10T18:14:00Z</time>
   </trkpt>
   <trkpt lat="32.7546047" lon="35.2241082">
    <ele>181.7</ele>
    <time>2013-02-10T18:14:01Z</time>
   </trkpt>
   <trkpt lat="32.7545636" lon="35.2240868">
    <ele>181.4</ele>
    <time>2013-02-10T18:14:02Z</time>
   </trkpt>
   <trkpt lat="32.7545233" lon="35.2240714">
    <ele>180.8</ele>
    <time>2013-02-10T18:14:03Z</time>
   </trkpt>
   <trkpt lat="32.7544899" lon="35.2240485">
    <ele>180.5</ele>
    <time>2013-02-10T18:14:04Z</time>
   </trkpt>
   <trkpt lat="32.7544652" lon="35.2240258">
    <ele>180.3</ele>
    <time>2013-02-10T18:14:05Z</time>
   </trkpt>
   <trkpt lat="32.7544396" lon="35.2240104">
    <ele>180.1</ele>
    <time>2013-02-10T18:14:07Z</time>
   </trkpt>
   <trkpt lat="32.7544104" lon="35.2240083">
    <ele>179.5</ele>
    <time>2013-02-10T18:14:08Z</time>
   </trkpt>
   <trkpt lat="32.7543799" lon="35.2239915">
    <ele>179.2</ele>
    <time>2013-02-10T18:14:09Z</time>
   </trkpt>
   <trkpt lat="32.7543500" lon="35.2239743">
    <ele>178.8</ele>
    <time>2013-02-10T18:14:10Z</time>
   </trkpt>
   <trkpt lat="32.7543256" lon="35.2239604">
    <ele>178.5</ele>
    <time>2013-02-10T18:14:11Z</time>
   </trkpt>
   <trkpt lat="32.7542940" lon="35.2239547">
    <ele>178.0</ele>
    <time>2013-02-10T18:14:12Z</time>
   </trkpt>
   <trkpt lat="32.7542640" lon="35.2239460">
    <ele>177.5</ele>
    <time>2013-02-10T18:14:13Z</time>
   </trkpt>
   <trkpt lat="32.7542311" lon="35.2239405">
    <ele>176.9</ele>
    <time>2013-02-10T18:14:14Z</time>
   </trkpt>
   <trkpt lat="32.7541935" lon="35.2239338">
    <ele>176.3</ele>
    <time>2013-02-10T18:14:15Z</time>
   </trkpt>
   <trkpt lat="32.7541590" lon="35.2239332">
    <ele>175.6</ele>
    <time>2013-02-10T18:14:16Z</time>
   </trkpt>
   <trkpt lat="32.7541235" lon="35.2239363">
    <ele>174.8</ele>
    <time>2013-02-10T18:14:17Z</time>
   </trkpt>
   <trkpt lat="32.7540775" lon="35.2239296">
    <ele>174.0</ele>
    <time>2013-02-10T18:14:18Z</time>
   </trkpt>
   <trkpt lat="32.7540401" lon="35.2239265">
    <ele>173.3</ele>
    <time>2013-02-10T18:14:19Z</time>
   </trkpt>
   <trkpt lat="32.7540011" lon="35.2239195">
    <ele>172.6</ele>
    <time>2013-02-10T18:14:20Z</time>
   </trkpt>
   <trkpt lat="32.7539584" lon="35.2239077">
    <ele>171.9</ele>
    <time>2013-02-10T18:14:21Z</time>
   </trkpt>
   <trkpt lat="32.7539083" lon="35.2238691">
    <ele>171.5</ele>
    <time>2013-02-10T18:14:22Z</time>
   </trkpt>
   <trkpt lat="32.7538686" lon="35.2238519">
    <ele>170.9</ele>
    <time>2013-02-10T18:14:23Z</time>
   </trkpt>
   <trkpt lat="32.7538182" lon="35.2238348">
    <ele>170.2</ele>
    <time>2013-02-10T18:14:24Z</time>
   </trkpt>
   <trkpt lat="32.7537801" lon="35.2238118">
    <ele>169.7</ele>
    <time>2013-02-10T18:14:25Z</time>
   </trkpt>
   <trkpt lat="32.7537550" lon="35.2237880">
    <ele>169.6</ele>
    <time>2013-02-10T18:14:26Z</time>
   </trkpt>
   <trkpt lat="32.7537276" lon="35.2237634">
    <ele>169.4</ele>
    <time>2013-02-10T18:14:27Z</time>
   </trkpt>
   <trkpt lat="32.7536964" lon="35.2237304">
    <ele>169.2</ele>
    <time>2013-02-10T18:14:28Z</time>
   </trkpt>
   <trkpt lat="32.7536622" lon="35.2237014">
    <ele>168.8</ele>
    <time>2013-02-10T18:14:29Z</time>
   </trkpt>
   <trkpt lat="32.7536423" lon="35.2236698">
    <ele>168.7</ele>
    <time>2013-02-10T18:14:30Z</time>
   </trkpt>
   <trkpt lat="32.7536114" lon="35.2236402">
    <ele>168.4</ele>
    <time>2013-02-10T18:14:31Z</time>
   </trkpt>
   <trkpt lat="32.7535846" lon="35.2236081">
    <ele>168.2</ele>
    <time>2013-02-10T18:14:32Z</time>
   </trkpt>
   <trkpt lat="32.7535511" lon="35.2235774">
    <ele>167.9</ele>
    <time>2013-02-10T18:14:33Z</time>
   </trkpt>
   <trkpt lat="32.7535173" lon="35.2235454">
    <ele>167.5</ele>
    <time>2013-02-10T18:14:34Z</time>
   </trkpt>
   <trkpt lat="32.7534774" lon="35.2235052">
    <ele>167.1</ele>
    <time>2013-02-10T18:14:35Z</time>
   </trkpt>
   <trkpt lat="32.7534430" lon="35.2234659">
    <ele>166.9</ele>
    <time>2013-02-10T18:14:36Z</time>
   </trkpt>
   <trkpt lat="32.7534029" lon="35.2234301">
    <ele>166.4</ele>
    <time>2013-02-10T18:14:37Z</time>
   </trkpt>
   <trkpt lat="32.7533618" lon="35.2233890">
    <ele>166.0</ele>
    <time>2013-02-10T18:14:38Z</time>
   </trkpt>
   <trkpt lat="32.7533375" lon="35.2233395">
    <ele>166.0</ele>
    <time>2013-02-10T18:14:39Z</time>
   </trkpt>
   <trkpt lat="32.7533160" lon="35.2233021">
    <ele>165.9</ele>
    <time>2013-02-10T18:14:40Z</time>
   </trkpt>
   <trkpt lat="32.7532828" lon="35.2232701">
    <ele>165.6</ele>
    <time>2013-02-10T18:14:41Z</time>
   </trkpt>
   <trkpt lat="32.7532513" lon="35.2232391">
    <ele>165.3</ele>
    <time>2013-02-10T18:14:42Z</time>
   </trkpt>
   <trkpt lat="32.7532167" lon="35.2232005">
    <ele>165.0</ele>
    <time>2013-02-10T18:14:43Z</time>
   </trkpt>
   <trkpt lat="32.7531883" lon="35.2231733">
    <ele>164.7</ele>
    <time>2013-02-10T18:14:44Z</time>
   </trkpt>
   <trkpt lat="32.7531570" lon="35.2231470">
    <ele>164.4</ele>
    <time>2013-02-10T18:14:45Z</time>
   </trkpt>
   <trkpt lat="32.7531257" lon="35.2231150">
    <ele>164.1</ele>
    <time>2013-02-10T18:14:46Z</time>
   </trkpt>
   <trkpt lat="32.7531014" lon="35.2230859">
    <ele>163.9</ele>
    <time>2013-02-10T18:14:47Z</time>
   </trkpt>
   <trkpt lat="32.7530727" lon="35.2230570">
    <ele>163.6</ele>
    <time>2013-02-10T18:14:48Z</time>
   </trkpt>
   <trkpt lat="32.7530347" lon="35.2230346">
    <ele>163.1</ele>
    <time>2013-02-10T18:14:49Z</time>
   </trkpt>
   <trkpt lat="32.7529674" lon="35.2230009">
    <ele>162.2</ele>
    <time>2013-02-10T18:14:50Z</time>
   </trkpt>
   <trkpt lat="32.7529185" lon="35.2229784">
    <ele>161.5</ele>
    <time>2013-02-10T18:14:51Z</time>
   </trkpt>
   <trkpt lat="32.7528815" lon="35.2229585">
    <ele>161.0</ele>
    <time>2013-02-10T18:14:52Z</time>
   </trkpt>
   <trkpt lat="32.7528460" lon="35.2229497">
    <ele>160.5</ele>
    <time>2013-02-10T18:14:53Z</time>
   </trkpt>
   <trkpt lat="32.7528078" lon="35.2229407">
    <ele>159.8</ele>
    <time>2013-02-10T18:14:54Z</time>
   </trkpt>
   <trkpt lat="32.7527671" lon="35.2229320">
    <ele>159.2</ele>
    <time>2013-02-10T18:14:55Z</time>
   </trkpt>
   <trkpt lat="32.7527217" lon="35.2229305">
    <ele>158.4</ele>
    <time>2013-02-10T18:14:56Z</time>
   </trkpt>
   <trkpt lat="32.7526800" lon="35.2229340">
    <ele>157.6</ele>
    <time>2013-02-10T18:14:57Z</time>
   </trkpt>
   <trkpt lat="32.7526413" lon="35.2229347">
    <ele>156.9</ele>
    <time>2013-02-10T18:14:58Z</time>
   </trkpt>
   <trkpt lat="32.7525954" lon="35.2229414">
    <ele>156.0</ele>
    <time>2013-02-10T18:14:59Z</time>
   </trkpt>
   <trkpt lat="32.7525508" lon="35.2229394">
    <ele>155.2</ele>
    <time>2013-02-10T18:15:00Z</time>
   </trkpt>
   <trkpt lat="32.7525035" lon="35.2229323">
    <ele>154.4</ele>
    <time>2013-02-10T18:15:01Z</time>
   </trkpt>
   <trkpt lat="32.7524477" lon="35.2229164">
    <ele>153.6</ele>
    <time>2013-02-10T18:15:02Z</time>
   </trkpt>
   <trkpt lat="32.7524083" lon="35.2228918">
    <ele>152.8</ele>
    <time>2013-02-10T18:15:03Z</time>
   </trkpt>
   <trkpt lat="32.7523625" lon="35.2228588">
    <ele>152.0</ele>
    <time>2013-02-10T18:15:04Z</time>
   </trkpt>
   <trkpt lat="32.7523125" lon="35.2228320">
    <ele>151.1</ele>
    <time>2013-02-10T18:15:05Z</time>
   </trkpt>
   <trkpt lat="32.7522740" lon="35.2227939">
    <ele>150.4</ele>
    <time>2013-02-10T18:15:06Z</time>
   </trkpt>
   <trkpt lat="32.7522510" lon="35.2227545">
    <ele>150.0</ele>
    <time>2013-02-10T18:15:07Z</time>
   </trkpt>
   <trkpt lat="32.7521966" lon="35.2227200">
    <ele>149.0</ele>
    <time>2013-02-10T18:15:09Z</time>
   </trkpt>
   <trkpt lat="32.7521664" lon="35.2226899">
    <ele>148.5</ele>
    <time>2013-02-10T18:15:10Z</time>
   </trkpt>
   <trkpt lat="32.7521303" lon="35.2226547">
    <ele>147.8</ele>
    <time>2013-02-10T18:15:11Z</time>
   </trkpt>
   <trkpt lat="32.7521002" lon="35.2226196">
    <ele>147.3</ele>
    <time>2013-02-10T18:15:12Z</time>
   </trkpt>
   <trkpt lat="32.7520724" lon="35.2225780">
    <ele>146.8</ele>
    <time>2013-02-10T18:15:13Z</time>
   </trkpt>
   <trkpt lat="32.7520370" lon="35.2225283">
    <ele>146.4</ele>
    <time>2013-02-10T18:15:14Z</time>
   </trkpt>
   <trkpt lat="32.7519989" lon="35.2224825">
    <ele>145.9</ele>
    <time>2013-02-10T18:15:15Z</time>
   </trkpt>
   <trkpt lat="32.7519600" lon="35.2224355">
    <ele>145.4</ele>
    <time>2013-02-10T18:15:16Z</time>
   </trkpt>
   <trkpt lat="32.7519327" lon="35.2223767">
    <ele>145.2</ele>
    <time>2013-02-10T18:15:17Z</time>
   </trkpt>
   <trkpt lat="32.7518922" lon="35.2223292">
    <ele>144.8</ele>
    <time>2013-02-10T18:15:18Z</time>
   </trkpt>
   <trkpt lat="32.7518343" lon="35.2222893">
    <ele>144.2</ele>
    <time>2013-02-10T18:15:19Z</time>
   </trkpt>
   <trkpt lat="32.7517902" lon="35.2222444">
    <ele>143.8</ele>
    <time>2013-02-10T18:15:20Z</time>
   </trkpt>
   <trkpt lat="32.7517533" lon="35.2222051">
    <ele>143.5</ele>
    <time>2013-02-10T18:15:21Z</time>
   </trkpt>
   <trkpt lat="32.7517155" lon="35.2221681">
    <ele>143.2</ele>
    <time>2013-02-10T18:15:22Z</time>
   </trkpt>
   <trkpt lat="32.7516878" lon="35.2221289">
    <ele>143.0</ele>
    <time>2013-02-10T18:15:23Z</time>
   </trkpt>
   <trkpt lat="32.7516560" lon="35.2221184">
    <ele>142.8</ele>
    <time>2013-02-10T18:15:24Z</time>
   </trkpt>
   <trkpt lat="32.7516155" lon="35.2220975">
    <ele>142.5</ele>
    <time>2013-02-10T18:15:25Z</time>
   </trkpt>
   <trkpt lat="32.7515809" lon="35.2220746">
    <ele>142.3</ele>
    <time>2013-02-10T18:15:26Z</time>
   </trkpt>
   <trkpt lat="32.7515688" lon="35.2219957">
    <ele>142.9</ele>
    <time>2013-02-10T18:15:27Z</time>
   </trkpt>
   <trkpt lat="32.7515548" lon="35.2219358">
    <ele>143.4</ele>
    <time>2013-02-10T18:15:28Z</time>
   </trkpt>
   <trkpt lat="32.7515626" lon="35.2218949">
    <ele>143.8</ele>
    <time>2013-02-10T18:15:29Z</time>
   </trkpt>
   <trkpt lat="32.7515748" lon="35.2218373">
    <ele>144.5</ele>
    <time>2013-02-10T18:15:30Z</time>
   </trkpt>
   <trkpt lat="32.7515799" lon="35.2217550">
    <ele>145.3</ele>
    <time>2013-02-10T18:15:32Z</time>
   </trkpt>
   <trkpt lat="32.7515725" lon="35.2216987">
    <ele>145.8</ele>
    <time>2013-02-10T18:15:33Z</time>
   </trkpt>
   <trkpt lat="32.7515741" lon="35.2216529">
    <ele>146.2</ele>
    <time>2013-02-10T18:15:34Z</time>
   </trkpt>
   <trkpt lat="32.7515951" lon="35.2216174">
    <ele>146.6</ele>
    <time>2013-02-10T18:15:35Z</time>
   </trkpt>
   <trkpt lat="32.7516123" lon="35.2215822">
    <ele>146.9</ele>
    <time>2013-02-10T18:15:36Z</time>
   </trkpt>
   <trkpt lat="32.7516258" lon="35.2215478">
    <ele>147.2</ele>
    <time>2013-02-10T18:15:37Z</time>
   </trkpt>
   <trkpt lat="32.7516445" lon="35.2215206">
    <ele>147.4</ele>
    <time>2013-02-10T18:15:38Z</time>
   </trkpt>
   <trkpt lat="32.7516670" lon="35.2214961">
    <ele>147.6</ele>
    <time>2013-02-10T18:15:39Z</time>
   </trkpt>
   <trkpt lat="32.7516894" lon="35.2214746">
    <ele>147.7</ele>
    <time>2013-02-10T18:15:40Z</time>
   </trkpt>
   <trkpt lat="32.7517138" lon="35.2214522">
    <ele>147.8</ele>
    <time>2013-02-10T18:15:41Z</time>
   </trkpt>
   <trkpt lat="32.7517366" lon="35.2214328">
    <ele>147.9</ele>
    <time>2013-02-10T18:15:42Z</time>
   </trkpt>
   <trkpt lat="32.7517757" lon="35.2214006">
    <ele>148.0</ele>
    <time>2013-02-10T18:15:44Z</time>
   </trkpt>
   <trkpt lat="32.7518133" lon="35.2213792">
    <ele>148.0</ele>
    <time>2013-02-10T18:15:46Z</time>
   </trkpt>
   <trkpt lat="32.7518485" lon="35.2213589">
    <ele>147.9</ele>
    <time>2013-02-10T18:15:48Z</time>
   </trkpt>
   <trkpt lat="32.7518856" lon="35.2213308">
    <ele>147.9</ele>
    <time>2013-02-10T18:15:50Z</time>
   </trkpt>
   <trkpt lat="32.7519261" lon="35.2212921">
    <ele>147.8</ele>
    <time>2013-02-10T18:15:52Z</time>
   </trkpt>
   <trkpt lat="32.7519712" lon="35.2212444">
    <ele>147.7</ele>
    <time>2013-02-10T18:15:54Z</time>
   </trkpt>
   <trkpt lat="32.7519941" lon="35.2212134">
    <ele>148.0</ele>
    <time>2013-02-10T18:15:55Z</time>
   </trkpt>
   <trkpt lat="32.7520077" lon="35.2211735">
    <ele>148.3</ele>
    <time>2013-02-10T18:15:56Z</time>
   </trkpt>
   <trkpt lat="32.7520191" lon="35.2211295">
    <ele>148.8</ele>
    <time>2013-02-10T18:15:57Z</time>
   </trkpt>
   <trkpt lat="32.7520234" lon="35.2210838">
    <ele>149.3</ele>
    <time>2013-02-10T18:15:58Z</time>
   </trkpt>
   <trkpt lat="32.7520217" lon="35.2210385">
    <ele>149.9</ele>
    <time>2013-02-10T18:15:59Z</time>
   </trkpt>
   <trkpt lat="32.7520170" lon="35.2209935">
    <ele>150.4</ele>
    <time>2013-02-10T18:16:00Z</time>
   </trkpt>
   <trkpt lat="32.7520105" lon="35.2209498">
    <ele>150.9</ele>
    <time>2013-02-10T18:16:01Z</time>
   </trkpt>
   <trkpt lat="32.7519916" lon="35.2209099">
    <ele>151.5</ele>
    <time>2013-02-10T18:16:02Z</time>
   </trkpt>
   <trkpt lat="32.7519705" lon="35.2208732">
    <ele>152.0</ele>
    <time>2013-02-10T18:16:03Z</time>
   </trkpt>
   <trkpt lat="32.7519440" lon="35.2208384">
    <ele>152.5</ele>
    <time>2013-02-10T18:16:04Z</time>
   </trkpt>
   <trkpt lat="32.7519198" lon="35.2208021">
    <ele>153.0</ele>
    <time>2013-02-10T18:16:05Z</time>
   </trkpt>
   <trkpt lat="32.7518914" lon="35.2207684">
    <ele>153.5</ele>
    <time>2013-02-10T18:16:06Z</time>
   </trkpt>
   <trkpt lat="32.7518564" lon="35.2207395">
    <ele>154.0</ele>
    <time>2013-02-10T18:16:07Z</time>
   </trkpt>
   <trkpt lat="32.7518249" lon="35.2207056">
    <ele>154.5</ele>
    <time>2013-02-10T18:16:08Z</time>
   </trkpt>
   <trkpt lat="32.7517936" lon="35.2206731">
    <ele>154.9</ele>
    <time>2013-02-10T18:16:09Z</time>
   </trkpt>
   <trkpt lat="32.7517533" lon="35.2206410">
    <ele>155.4</ele>
    <time>2013-02-10T18:16:10Z</time>
   </trkpt>
   <trkpt lat="32.7517220" lon="35.2206038">
    <ele>155.9</ele>
    <time>2013-02-10T18:16:11Z</time>
   </trkpt>
   <trkpt lat="32.7516923" lon="35.2205633">
    <ele>156.4</ele>
    <time>2013-02-10T18:16:12Z</time>
   </trkpt>
   <trkpt lat="32.7516638" lon="35.2205230">
    <ele>156.9</ele>
    <time>2013-02-10T18:16:13Z</time>
   </trkpt>
   <trkpt lat="32.7516430" lon="35.2204886">
    <ele>157.3</ele>
    <time>2013-02-10T18:16:14Z</time>
   </trkpt>
   <trkpt lat="32.7516250" lon="35.2204573">
    <ele>157.7</ele>
    <time>2013-02-10T18:16:15Z</time>
   </trkpt>
   <trkpt lat="32.7515895" lon="35.2203799">
    <ele>158.5</ele>
    <time>2013-02-10T18:16:18Z</time>
   </trkpt>
   <trkpt lat="32.7515652" lon="35.2203500">
    <ele>158.7</ele>
    <time>2013-02-10T18:16:20Z</time>
   </trkpt>
   <trkpt lat="32.7515425" lon="35.2203244">
    <ele>159.0</ele>
    <time>2013-02-10T18:16:22Z</time>
   </trkpt>
   <trkpt lat="32.7515158" lon="35.2203090">
    <ele>159.1</ele>
    <time>2013-02-10T18:16:24Z</time>
   </trkpt>
   <trkpt lat="32.7514845" lon="35.2202920">
    <ele>159.3</ele>
    <time>2013-02-10T18:16:26Z</time>
   </trkpt>
   <trkpt lat="32.7514568" lon="35.2202709">
    <ele>159.5</ele>
    <time>2013-02-10T18:16:28Z</time>
   </trkpt>
   <trkpt lat="32.7514264" lon="35.2202491">
    <ele>159.7</ele>
    <time>2013-02-10T18:16:30Z</time>
   </trkpt>
   <trkpt lat="32.7513929" lon="35.2202288">
    <ele>159.9</ele>
    <time>2013-02-10T18:16:32Z</time>
   </trkpt>
   <trkpt lat="32.7513743" lon="35.2201933">
    <ele>160.2</ele>
    <time>2013-02-10T18:16:34Z</time>
   </trkpt>
   <trkpt lat="32.7513625" lon="35.2201589">
    <ele>160.4</ele>
    <time>2013-02-10T18:16:36Z</time>
   </trkpt>
   <trkpt lat="32.7513543" lon="35.2201895">
    <ele>160.2</ele>
    <time>2013-02-10T18:17:01Z</time>
   </trkpt>
   <trkpt lat="32.7513582" lon="35.2201553">
    <ele>160.4</ele>
    <time>2013-02-10T18:17:18Z</time>
   </trkpt>
   <trkpt lat="32.7513545" lon="35.2201885">
    <ele>160.2</ele>
    <time>2013-02-10T18:17:51Z</time>
   </trkpt>
   <trkpt lat="32.7513327" lon="35.2201630">
    <ele>160.4</ele>
    <time>2013-02-10T18:19:04Z</time>
   </trkpt>
   <trkpt lat="32.7513014" lon="35.2201326">
    <ele>160.6</ele>
    <time>2013-02-10T18:19:07Z</time>
   </trkpt>
   <trkpt lat="32.7512733" lon="35.2201133">
    <ele>160.8</ele>
    <time>2013-02-10T18:19:09Z</time>
   </trkpt>
   <trkpt lat="32.7512426" lon="35.2200950">
    <ele>161.0</ele>
    <time>2013-02-10T18:19:11Z</time>
   </trkpt>
   <trkpt lat="32.7512043" lon="35.2200773">
    <ele>161.2</ele>
    <time>2013-02-10T18:19:13Z</time>
   </trkpt>
   <trkpt lat="32.7511606" lon="35.2200681">
    <ele>161.5</ele>
    <time>2013-02-10T18:19:15Z</time>
   </trkpt>
   <trkpt lat="32.7511148" lon="35.2200696">
    <ele>161.7</ele>
    <time>2013-02-10T18:19:17Z</time>
   </trkpt>
   <trkpt lat="32.7510695" lon="35.2200791">
    <ele>161.8</ele>
    <time>2013-02-10T18:19:19Z</time>
   </trkpt>
   <trkpt lat="32.7510220" lon="35.2200924">
    <ele>161.9</ele>
    <time>2013-02-10T18:19:21Z</time>
   </trkpt>
   <trkpt lat="32.7509761" lon="35.2201043">
    <ele>162.1</ele>
    <time>2013-02-10T18:19:23Z</time>
   </trkpt>
   <trkpt lat="32.7509292" lon="35.2201142">
    <ele>162.3</ele>
    <time>2013-02-10T18:19:25Z</time>
   </trkpt>
   <trkpt lat="32.7509028" lon="35.2201212">
    <ele>162.4</ele>
    <time>2013-02-10T18:19:26Z</time>
   </trkpt>
   <trkpt lat="32.7508767" lon="35.2201303">
    <ele>162.5</ele>
    <time>2013-02-10T18:19:27Z</time>
   </trkpt>
   <trkpt lat="32.7508505" lon="35.2201423">
    <ele>162.6</ele>
    <time>2013-02-10T18:19:28Z</time>
   </trkpt>
   <trkpt lat="32.7508250" lon="35.2201529">
    <ele>162.7</ele>
    <time>2013-02-10T18:19:29Z</time>
   </trkpt>
   <trkpt lat="32.7507785" lon="35.2201761">
    <ele>162.9</ele>
    <time>2013-02-10T18:19:31Z</time>
   </trkpt>
   <trkpt lat="32.7507338" lon="35.2201947">
    <ele>163.1</ele>
    <time>2013-02-10T18:19:33Z</time>
   </trkpt>
   <trkpt lat="32.7506895" lon="35.2201982">
    <ele>163.3</ele>
    <time>2013-02-10T18:19:35Z</time>
   </trkpt>
   <trkpt lat="32.7506400" lon="35.2201826">
    <ele>163.6</ele>
    <time>2013-02-10T18:19:37Z</time>
   </trkpt>
   <trkpt lat="32.7505948" lon="35.2201668">
    <ele>163.8</ele>
    <time>2013-02-10T18:19:39Z</time>
   </trkpt>
   <trkpt lat="32.7505531" lon="35.2201587">
    <ele>164.0</ele>
    <time>2013-02-10T18:19:41Z</time>
   </trkpt>
   <trkpt lat="32.7505041" lon="35.2201634">
    <ele>164.3</ele>
    <time>2013-02-10T18:19:43Z</time>
   </trkpt>
   <trkpt lat="32.7504542" lon="35.2201739">
    <ele>164.5</ele>
    <time>2013-02-10T18:19:45Z</time>
   </trkpt>
   <trkpt lat="32.7504061" lon="35.2201877">
    <ele>164.6</ele>
    <time>2013-02-10T18:19:47Z</time>
   </trkpt>
   <trkpt lat="32.7503582" lon="35.2201936">
    <ele>164.0</ele>
    <time>2013-02-10T18:19:49Z</time>
   </trkpt>
   <trkpt lat="32.7503060" lon="35.2201919">
    <ele>163.4</ele>
    <time>2013-02-10T18:19:51Z</time>
   </trkpt>
   <trkpt lat="32.7502785" lon="35.2201900">
    <ele>163.1</ele>
    <time>2013-02-10T18:19:52Z</time>
   </trkpt>
   <trkpt lat="32.7502281" lon="35.2201802">
    <ele>162.5</ele>
    <time>2013-02-10T18:19:54Z</time>
   </trkpt>
   <trkpt lat="32.7501776" lon="35.2201682">
    <ele>161.9</ele>
    <time>2013-02-10T18:19:56Z</time>
   </trkpt>
   <trkpt lat="32.7501506" lon="35.2201625">
    <ele>161.6</ele>
    <time>2013-02-10T18:19:57Z</time>
   </trkpt>
   <trkpt lat="32.7500964" lon="35.2201516">
    <ele>161.0</ele>
    <time>2013-02-10T18:19:59Z</time>
   </trkpt>
   <trkpt lat="32.7500495" lon="35.2201584">
    <ele>160.5</ele>
    <time>2013-02-10T18:20:01Z</time>
   </trkpt>
   <trkpt lat="32.7500016" lon="35.2201808">
    <ele>159.9</ele>
    <time>2013-02-10T18:20:03Z</time>
   </trkpt>
   <trkpt lat="32.7499507" lon="35.2202031">
    <ele>159.2</ele>
    <time>2013-02-10T18:20:05Z</time>
   </trkpt>
   <trkpt lat="32.7498952" lon="35.2202138">
    <ele>158.5</ele>
    <time>2013-02-10T18:20:07Z</time>
   </trkpt>
   <trkpt lat="32.7498674" lon="35.2202077">
    <ele>158.2</ele>
    <time>2013-02-10T18:20:08Z</time>
   </trkpt>
   <trkpt lat="32.7498401" lon="35.2201967">
    <ele>157.9</ele>
    <time>2013-02-10T18:20:09Z</time>
   </trkpt>
   <trkpt lat="32.7498125" lon="35.2201816">
    <ele>157.7</ele>
    <time>2013-02-10T18:20:10Z</time>
   </trkpt>
   <trkpt lat="32.7497864" lon="35.2201619">
    <ele>157.5</ele>
    <time>2013-02-10T18:20:11Z</time>
   </trkpt>
   <trkpt lat="32.7497599" lon="35.2201441">
    <ele>157.3</ele>
    <time>2013-02-10T18:20:12Z</time>
   </trkpt>
   <trkpt lat="32.7497317" lon="35.2201290">
    <ele>157.1</ele>
    <time>2013-02-10T18:20:13Z</time>
   </trkpt>
   <trkpt lat="32.7497031" lon="35.2201203">
    <ele>156.8</ele>
    <time>2013-02-10T18:20:14Z</time>
   </trkpt>
   <trkpt lat="32.7496731" lon="35.2201091">
    <ele>156.6</ele>
    <time>2013-02-10T18:20:15Z</time>
   </trkpt>
   <trkpt lat="32.7496323" lon="35.2200916">
    <ele>156.3</ele>
    <time>2013-02-10T18:20:17Z</time>
   </trkpt>
   <trkpt lat="32.7495953" lon="35.2200705">
    <ele>156.0</ele>
    <time>2013-02-10T18:20:19Z</time>
   </trkpt>
   <trkpt lat="32.7495483" lon="35.2200477">
    <ele>155.0</ele>
    <time>2013-02-10T18:20:21Z</time>
   </trkpt>
   <trkpt lat="32.7495216" lon="35.2200352">
    <ele>154.3</ele>
    <time>2013-02-10T18:20:22Z</time>
   </trkpt>
   <trkpt lat="32.7494935" lon="35.2200218">
    <ele>153.6</ele>
    <time>2013-02-10T18:20:23Z</time>
   </trkpt>
   <trkpt lat="32.7494655" lon="35.2200058">
    <ele>152.8</ele>
    <time>2013-02-10T18:20:24Z</time>
   </trkpt>
   <trkpt lat="32.7494408" lon="35.2199861">
    <ele>152.3</ele>
    <time>2013-02-10T18:20:25Z</time>
   </trkpt>
   <trkpt lat="32.7494198" lon="35.2199647">
    <ele>151.8</ele>
    <time>2013-02-10T18:20:26Z</time>
   </trkpt>
   <trkpt lat="32.7493850" lon="35.2199199">
    <ele>151.1</ele>
    <time>2013-02-10T18:20:28Z</time>
   </trkpt>
   <trkpt lat="32.7493538" lon="35.2198735">
    <ele>150.5</ele>
    <time>2013-02-10T18:20:30Z</time>
   </trkpt>
   <trkpt lat="32.7493342" lon="35.2198492">
    <ele>150.1</ele>
    <time>2013-02-10T18:20:31Z</time>
   </trkpt>
   <trkpt lat="32.7493146" lon="35.2198243">
    <ele>149.7</ele>
    <time>2013-02-10T18:20:32Z</time>
   </trkpt>
   <trkpt lat="32.7492876" lon="35.2197734">
    <ele>149.3</ele>
    <time>2013-02-10T18:20:34Z</time>
   </trkpt>
   <trkpt lat="32.7492747" lon="35.2197221">
    <ele>149.3</ele>
    <time>2013-02-10T18:20:36Z</time>
   </trkpt>
   <trkpt lat="32.7492700" lon="35.2196608">
    <ele>149.6</ele>
    <time>2013-02-10T18:20:38Z</time>
   </trkpt>
   <trkpt lat="32.7492636" lon="35.2196283">
    <ele>149.7</ele>
    <time>2013-02-10T18:20:39Z</time>
   </trkpt>
   <trkpt lat="32.7492532" lon="35.2195954">
    <ele>149.6</ele>
    <time>2013-02-10T18:20:40Z</time>
   </trkpt>
   <trkpt lat="32.7492382" lon="35.2195599">
    <ele>149.0</ele>
    <time>2013-02-10T18:20:41Z</time>
   </trkpt>
   <trkpt lat="32.7492268" lon="35.2195234">
    <ele>148.4</ele>
    <time>2013-02-10T18:20:42Z</time>
   </trkpt>
   <trkpt lat="32.7492150" lon="35.2194823">
    <ele>147.7</ele>
    <time>2013-02-10T18:20:43Z</time>
   </trkpt>
   <trkpt lat="32.7492078" lon="35.2194383">
    <ele>147.1</ele>
    <time>2013-02-10T18:20:44Z</time>
   </trkpt>
   <trkpt lat="32.7492012" lon="35.2193938">
    <ele>146.5</ele>
    <time>2013-02-10T18:20:45Z</time>
   </trkpt>
   <trkpt lat="32.7491998" lon="35.2193509">
    <ele>146.1</ele>
    <time>2013-02-10T18:20:46Z</time>
   </trkpt>
   <trkpt lat="32.7492001" lon="35.2193079">
    <ele>145.8</ele>
    <time>2013-02-10T18:20:47Z</time>
   </trkpt>
   <trkpt lat="32.7492017" lon="35.2192643">
    <ele>145.5</ele>
    <time>2013-02-10T18:20:48Z</time>
   </trkpt>
   <trkpt lat="32.7492062" lon="35.2192212">
    <ele>145.3</ele>
    <time>2013-02-10T18:20:49Z</time>
   </trkpt>
   <trkpt lat="32.7492117" lon="35.2191764">
    <ele>145.0</ele>
    <time>2013-02-10T18:20:50Z</time>
   </trkpt>
   <trkpt lat="32.7492162" lon="35.2191323">
    <ele>144.8</ele>
    <time>2013-02-10T18:20:51Z</time>
   </trkpt>
   <trkpt lat="32.7492199" lon="35.2190981">
    <ele>144.6</ele>
    <time>2013-02-10T18:20:52Z</time>
   </trkpt>
   <trkpt lat="32.7492282" lon="35.2190506">
    <ele>144.4</ele>
    <time>2013-02-10T18:20:54Z</time>
   </trkpt>
   <trkpt lat="32.7492560" lon="35.2190157">
    <ele>144.8</ele>
    <time>2013-02-10T18:20:57Z</time>
   </trkpt>
   <trkpt lat="32.7492919" lon="35.2189642">
    <ele>145.3</ele>
    <time>2013-02-10T18:20:59Z</time>
   </trkpt>
   <trkpt lat="32.7493177" lon="35.2189389">
    <ele>145.7</ele>
    <time>2013-02-10T18:21:00Z</time>
   </trkpt>
   <trkpt lat="32.7493593" lon="35.2189122">
    <ele>146.5</ele>
    <time>2013-02-10T18:21:01Z</time>
   </trkpt>
   <trkpt lat="32.7494012" lon="35.2188887">
    <ele>147.3</ele>
    <time>2013-02-10T18:21:02Z</time>
   </trkpt>
   <trkpt lat="32.7494735" lon="35.2188724">
    <ele>148.8</ele>
    <time>2013-02-10T18:21:03Z</time>
   </trkpt>
   <trkpt lat="32.7495284" lon="35.2188779">
    <ele>150.2</ele>
    <time>2013-02-10T18:21:04Z</time>
   </trkpt>
   <trkpt lat="32.7495719" lon="35.2188727">
    <ele>151.2</ele>
    <time>2013-02-10T18:21:05Z</time>
   </trkpt>
   <trkpt lat="32.7496158" lon="35.2188630">
    <ele>151.6</ele>
    <time>2013-02-10T18:21:06Z</time>
   </trkpt>
   <trkpt lat="32.7496587" lon="35.2188401">
    <ele>151.6</ele>
    <time>2013-02-10T18:21:07Z</time>
   </trkpt>
   <trkpt lat="32.7497051" lon="35.2188091">
    <ele>151.6</ele>
    <time>2013-02-10T18:21:08Z</time>
   </trkpt>
   <trkpt lat="32.7497548" lon="35.2187815">
    <ele>151.6</ele>
    <time>2013-02-10T18:21:09Z</time>
   </trkpt>
   <trkpt lat="32.7498030" lon="35.2187568">
    <ele>151.7</ele>
    <time>2013-02-10T18:21:10Z</time>
   </trkpt>
   <trkpt lat="32.7498687" lon="35.2187489">
    <ele>152.0</ele>
    <time>2013-02-10T18:21:11Z</time>
   </trkpt>
   <trkpt lat="32.7499164" lon="35.2187445">
    <ele>152.4</ele>
    <time>2013-02-10T18:21:12Z</time>
   </trkpt>
   <trkpt lat="32.7499812" lon="35.2187729">
    <ele>153.1</ele>
    <time>2013-02-10T18:21:13Z</time>
   </trkpt>
   <trkpt lat="32.7500349" lon="35.2187840">
    <ele>153.6</ele>
    <time>2013-02-10T18:21:14Z</time>
   </trkpt>
   <trkpt lat="32.7501649" lon="35.2188005">
    <ele>154.7</ele>
    <time>2013-02-10T18:21:16Z</time>
   </trkpt>
   <trkpt lat="32.7502202" lon="35.2188151">
    <ele>155.2</ele>
    <time>2013-02-10T18:21:17Z</time>
   </trkpt>
   <trkpt lat="32.7502722" lon="35.2188215">
    <ele>155.7</ele>
    <time>2013-02-10T18:21:18Z</time>
   </trkpt>
   <trkpt lat="32.7503237" lon="35.2187977">
    <ele>155.8</ele>
    <time>2013-02-10T18:21:19Z</time>
   </trkpt>
   <trkpt lat="32.7503680" lon="35.2187680">
    <ele>155.8</ele>
    <time>2013-02-10T18:21:20Z</time>
   </trkpt>
   <trkpt lat="32.7504198" lon="35.2187272">
    <ele>155.9</ele>
    <time>2013-02-10T18:21:21Z</time>
   </trkpt>
   <trkpt lat="32.7504591" lon="35.2186874">
    <ele>155.7</ele>
    <time>2013-02-10T18:21:22Z</time>
   </trkpt>
   <trkpt lat="32.7505188" lon="35.2186569">
    <ele>155.8</ele>
    <time>2013-02-10T18:21:23Z</time>
   </trkpt>
   <trkpt lat="32.7505724" lon="35.2186340">
    <ele>155.9</ele>
    <time>2013-02-10T18:21:24Z</time>
   </trkpt>
   <trkpt lat="32.7506262" lon="35.2186009">
    <ele>155.9</ele>
    <time>2013-02-10T18:21:25Z</time>
   </trkpt>
   <trkpt lat="32.7506792" lon="35.2185544">
    <ele>155.8</ele>
    <time>2013-02-10T18:21:26Z</time>
   </trkpt>
   <trkpt lat="32.7507519" lon="35.2185197">
    <ele>155.8</ele>
    <time>2013-02-10T18:21:27Z</time>
   </trkpt>
   <trkpt lat="32.7508116" lon="35.2184858">
    <ele>155.8</ele>
    <time>2013-02-10T18:21:28Z</time>
   </trkpt>
   <trkpt lat="32.7508596" lon="35.2184416">
    <ele>155.7</ele>
    <time>2013-02-10T18:21:29Z</time>
   </trkpt>
   <trkpt lat="32.7509035" lon="35.2184011">
    <ele>155.6</ele>
    <time>2013-02-10T18:21:30Z</time>
   </trkpt>
   <trkpt lat="32.7509447" lon="35.2183677">
    <ele>155.5</ele>
    <time>2013-02-10T18:21:31Z</time>
   </trkpt>
   <trkpt lat="32.7509852" lon="35.2183348">
    <ele>155.4</ele>
    <time>2013-02-10T18:21:32Z</time>
   </trkpt>
   <trkpt lat="32.7510252" lon="35.2183031">
    <ele>155.3</ele>
    <time>2013-02-10T18:21:33Z</time>
   </trkpt>
   <trkpt lat="32.7510600" lon="35.2182670">
    <ele>155.2</ele>
    <time>2013-02-10T18:21:34Z</time>
   </trkpt>
   <trkpt lat="32.7510890" lon="35.2182344">
    <ele>155.0</ele>
    <time>2013-02-10T18:21:35Z</time>
   </trkpt>
   <trkpt lat="32.7511192" lon="35.2182202">
    <ele>155.0</ele>
    <time>2013-02-10T18:21:36Z</time>
   </trkpt>
   <trkpt lat="32.7511527" lon="35.2181884">
    <ele>154.9</ele>
    <time>2013-02-10T18:21:37Z</time>
   </trkpt>
   <trkpt lat="32.7511842" lon="35.2181481">
    <ele>154.7</ele>
    <time>2013-02-10T18:21:38Z</time>
   </trkpt>
   <trkpt lat="32.7512178" lon="35.2181119">
    <ele>154.5</ele>
    <time>2013-02-10T18:21:39Z</time>
   </trkpt>
   <trkpt lat="32.7512443" lon="35.2180535">
    <ele>154.1</ele>
    <time>2013-02-10T18:21:40Z</time>
   </trkpt>
   <trkpt lat="32.7512638" lon="35.2180014">
    <ele>153.8</ele>
    <time>2013-02-10T18:21:41Z</time>
   </trkpt>
   <trkpt lat="32.7513251" lon="35.2179398">
    <ele>153.9</ele>
    <time>2013-02-10T18:21:42Z</time>
   </trkpt>
   <trkpt lat="32.7513443" lon="35.2178849">
    <ele>153.7</ele>
    <time>2013-02-10T18:21:43Z</time>
   </trkpt>
   <trkpt lat="32.7513688" lon="35.2178298">
    <ele>153.5</ele>
    <time>2013-02-10T18:21:44Z</time>
   </trkpt>
   <trkpt lat="32.7513908" lon="35.2177863">
    <ele>153.4</ele>
    <time>2013-02-10T18:21:45Z</time>
   </trkpt>
   <trkpt lat="32.7514246" lon="35.2177454">
    <ele>153.5</ele>
    <time>2013-02-10T18:21:46Z</time>
   </trkpt>
   <trkpt lat="32.7514607" lon="35.2177177">
    <ele>153.7</ele>
    <time>2013-02-10T18:21:47Z</time>
   </trkpt>
   <trkpt lat="32.7514912" lon="35.2176774">
    <ele>153.7</ele>
    <time>2013-02-10T18:21:48Z</time>
   </trkpt>
   <trkpt lat="32.7515250" lon="35.2176389">
    <ele>153.7</ele>
    <time>2013-02-10T18:21:49Z</time>
   </trkpt>
   <trkpt lat="32.7515546" lon="35.2176043">
    <ele>153.8</ele>
    <time>2013-02-10T18:21:50Z</time>
   </trkpt>
   <trkpt lat="32.7516077" lon="35.2175653">
    <ele>154.1</ele>
    <time>2013-02-10T18:21:51Z</time>
   </trkpt>
   <trkpt lat="32.7516387" lon="35.2175185">
    <ele>154.1</ele>
    <time>2013-02-10T18:21:52Z</time>
   </trkpt>
   <trkpt lat="32.7516864" lon="35.2174808">
    <ele>154.3</ele>
    <time>2013-02-10T18:21:53Z</time>
   </trkpt>
   <trkpt lat="32.7517213" lon="35.2174362">
    <ele>154.4</ele>
    <time>2013-02-10T18:21:54Z</time>
   </trkpt>
   <trkpt lat="32.7517579" lon="35.2174061">
    <ele>154.6</ele>
    <time>2013-02-10T18:21:55Z</time>
   </trkpt>
   <trkpt lat="32.7517827" lon="35.2173745">
    <ele>154.6</ele>
    <time>2013-02-10T18:21:56Z</time>
   </trkpt>
   <trkpt lat="32.7518227" lon="35.2173485">
    <ele>154.9</ele>
    <time>2013-02-10T18:21:57Z</time>
   </trkpt>
   <trkpt lat="32.7518645" lon="35.2173140">
    <ele>155.1</ele>
    <time>2013-02-10T18:21:58Z</time>
   </trkpt>
   <trkpt lat="32.7518887" lon="35.2172757">
    <ele>155.1</ele>
    <time>2013-02-10T18:21:59Z</time>
   </trkpt>
   <trkpt lat="32.7519071" lon="35.2172400">
    <ele>155.1</ele>
    <time>2013-02-10T18:22:00Z</time>
   </trkpt>
   <trkpt lat="32.7519312" lon="35.2172078">
    <ele>155.1</ele>
    <time>2013-02-10T18:22:01Z</time>
   </trkpt>
   <trkpt lat="32.7519586" lon="35.2171784">
    <ele>155.2</ele>
    <time>2013-02-10T18:22:02Z</time>
   </trkpt>
   <trkpt lat="32.7519834" lon="35.2171553">
    <ele>155.4</ele>
    <time>2013-02-10T18:22:03Z</time>
   </trkpt>
   <trkpt lat="32.7520095" lon="35.2171387">
    <ele>155.5</ele>
    <time>2013-02-10T18:22:04Z</time>
   </trkpt>
   <trkpt lat="32.7520361" lon="35.2171189">
    <ele>155.7</ele>
    <time>2013-02-10T18:22:05Z</time>
   </trkpt>
   <trkpt lat="32.7520620" lon="35.2171003">
    <ele>155.9</ele>
    <time>2013-02-10T18:22:06Z</time>
   </trkpt>
   <trkpt lat="32.7520926" lon="35.2170820">
    <ele>156.1</ele>
    <time>2013-02-10T18:22:07Z</time>
   </trkpt>
   <trkpt lat="32.7521227" lon="35.2170616">
    <ele>156.4</ele>
    <time>2013-02-10T18:22:08Z</time>
   </trkpt>
   <trkpt lat="32.7521514" lon="35.2170499">
    <ele>156.8</ele>
    <time>2013-02-10T18:22:09Z</time>
   </trkpt>
   <trkpt lat="32.7521809" lon="35.2170400">
    <ele>157.1</ele>
    <time>2013-02-10T18:22:10Z</time>
   </trkpt>
   <trkpt lat="32.7522101" lon="35.2170286">
    <ele>157.4</ele>
    <time>2013-02-10T18:22:11Z</time>
   </trkpt>
   <trkpt lat="32.7522382" lon="35.2170174">
    <ele>157.7</ele>
    <time>2013-02-10T18:22:12Z</time>
   </trkpt>
   <trkpt lat="32.7522658" lon="35.2170025">
    <ele>158.0</ele>
    <time>2013-02-10T18:22:13Z</time>
   </trkpt>
   <trkpt lat="32.7522962" lon="35.2169800">
    <ele>158.3</ele>
    <time>2013-02-10T18:22:14Z</time>
   </trkpt>
   <trkpt lat="32.7523262" lon="35.2169548">
    <ele>158.6</ele>
    <time>2013-02-10T18:22:15Z</time>
   </trkpt>
   <trkpt lat="32.7523604" lon="35.2169290">
    <ele>158.9</ele>
    <time>2013-02-10T18:22:16Z</time>
   </trkpt>
   <trkpt lat="32.7523941" lon="35.2169015">
    <ele>159.1</ele>
    <time>2013-02-10T18:22:17Z</time>
   </trkpt>
   <trkpt lat="32.7524293" lon="35.2168760">
    <ele>159.4</ele>
    <time>2013-02-10T18:22:18Z</time>
   </trkpt>
   <trkpt lat="32.7524665" lon="35.2168534">
    <ele>159.7</ele>
    <time>2013-02-10T18:22:19Z</time>
   </trkpt>
   <trkpt lat="32.7525037" lon="35.2168326">
    <ele>160.0</ele>
    <time>2013-02-10T18:22:20Z</time>
   </trkpt>
   <trkpt lat="32.7525421" lon="35.2168112">
    <ele>160.4</ele>
    <time>2013-02-10T18:22:21Z</time>
   </trkpt>
   <trkpt lat="32.7525810" lon="35.2167906">
    <ele>160.7</ele>
    <time>2013-02-10T18:22:22Z</time>
   </trkpt>
   <trkpt lat="32.7526170" lon="35.2167689">
    <ele>160.9</ele>
    <time>2013-02-10T18:22:23Z</time>
   </trkpt>
   <trkpt lat="32.7526507" lon="35.2167475">
    <ele>161.2</ele>
    <time>2013-02-10T18:22:24Z</time>
   </trkpt>
   <trkpt lat="32.7526784" lon="35.2167159">
    <ele>161.3</ele>
    <time>2013-02-10T18:22:25Z</time>
   </trkpt>
   <trkpt lat="32.7527071" lon="35.2166887">
    <ele>161.4</ele>
    <time>2013-02-10T18:22:26Z</time>
   </trkpt>
   <trkpt lat="32.7527356" lon="35.2166596">
    <ele>161.5</ele>
    <time>2013-02-10T18:22:27Z</time>
   </trkpt>
   <trkpt lat="32.7527633" lon="35.2166335">
    <ele>161.6</ele>
    <time>2013-02-10T18:22:28Z</time>
   </trkpt>
   <trkpt lat="32.7527917" lon="35.2166067">
    <ele>161.7</ele>
    <time>2013-02-10T18:22:29Z</time>
   </trkpt>
   <trkpt lat="32.7528220" lon="35.2165857">
    <ele>161.8</ele>
    <time>2013-02-10T18:22:30Z</time>
   </trkpt>
   <trkpt lat="32.7528493" lon="35.2165668">
    <ele>162.0</ele>
    <time>2013-02-10T18:22:31Z</time>
   </trkpt>
   <trkpt lat="32.7528793" lon="35.2165528">
    <ele>162.2</ele>
    <time>2013-02-10T18:22:32Z</time>
   </trkpt>
   <trkpt lat="32.7529107" lon="35.2165438">
    <ele>162.4</ele>
    <time>2013-02-10T18:22:33Z</time>
   </trkpt>
   <trkpt lat="32.7529402" lon="35.2165341">
    <ele>162.6</ele>
    <time>2013-02-10T18:22:34Z</time>
   </trkpt>
   <trkpt lat="32.7529704" lon="35.2165241">
    <ele>162.7</ele>
    <time>2013-02-10T18:22:35Z</time>
   </trkpt>
   <trkpt lat="32.7530003" lon="35.2165121">
    <ele>162.8</ele>
    <time>2013-02-10T18:22:36Z</time>
   </trkpt>
   <trkpt lat="32.7530345" lon="35.2165048">
    <ele>163.0</ele>
    <time>2013-02-10T18:22:37Z</time>
   </trkpt>
   <trkpt lat="32.7530658" lon="35.2164907">
    <ele>163.1</ele>
    <time>2013-02-10T18:22:38Z</time>
   </trkpt>
   <trkpt lat="32.7530974" lon="35.2164774">
    <ele>163.3</ele>
    <time>2013-02-10T18:22:39Z</time>
   </trkpt>
   <trkpt lat="32.7531285" lon="35.2164627">
    <ele>163.4</ele>
    <time>2013-02-10T18:22:40Z</time>
   </trkpt>
   <trkpt lat="32.7531590" lon="35.2164485">
    <ele>163.5</ele>
    <time>2013-02-10T18:22:41Z</time>
   </trkpt>
   <trkpt lat="32.7531882" lon="35.2164329">
    <ele>163.6</ele>
    <time>2013-02-10T18:22:42Z</time>
   </trkpt>
   <trkpt lat="32.7532143" lon="35.2164175">
    <ele>163.6</ele>
    <time>2013-02-10T18:22:43Z</time>
   </trkpt>
   <trkpt lat="32.7532388" lon="35.2164028">
    <ele>163.7</ele>
    <time>2013-02-10T18:22:44Z</time>
   </trkpt>
   <trkpt lat="32.7532699" lon="35.2163819">
    <ele>163.7</ele>
    <time>2013-02-10T18:22:46Z</time>
   </trkpt>
   <trkpt lat="32.7532927" lon="35.2163590">
    <ele>163.7</ele>
    <time>2013-02-10T18:22:49Z</time>
   </trkpt>
   <trkpt lat="32.7533186" lon="35.2163481">
    <ele>163.8</ele>
    <time>2013-02-10T18:22:52Z</time>
   </trkpt>
   <trkpt lat="32.7533539" lon="35.2163343">
    <ele>163.9</ele>
    <time>2013-02-10T18:22:55Z</time>
   </trkpt>
   <trkpt lat="32.7533789" lon="35.2162846">
    <ele>163.6</ele>
    <time>2013-02-10T18:22:57Z</time>
   </trkpt>
   <trkpt lat="32.7533897" lon="35.2162503">
    <ele>163.4</ele>
    <time>2013-02-10T18:22:58Z</time>
   </trkpt>
   <trkpt lat="32.7533994" lon="35.2162127">
    <ele>163.2</ele>
    <time>2013-02-10T18:22:59Z</time>
   </trkpt>
   <trkpt lat="32.7534145" lon="35.2161751">
    <ele>162.9</ele>
    <time>2013-02-10T18:23:00Z</time>
   </trkpt>
   <trkpt lat="32.7534322" lon="35.2161390">
    <ele>162.7</ele>
    <time>2013-02-10T18:23:01Z</time>
   </trkpt>
   <trkpt lat="32.7534542" lon="35.2161070">
    <ele>162.6</ele>
    <time>2013-02-10T18:23:02Z</time>
   </trkpt>
   <trkpt lat="32.7534779" lon="35.2160788">
    <ele>162.5</ele>
    <time>2013-02-10T18:23:03Z</time>
   </trkpt>
   <trkpt lat="32.7534994" lon="35.2160524">
    <ele>162.4</ele>
    <time>2013-02-10T18:23:04Z</time>
   </trkpt>
   <trkpt lat="32.7535263" lon="35.2160178">
    <ele>162.3</ele>
    <time>2013-02-10T18:23:05Z</time>
   </trkpt>
   <trkpt lat="32.7535502" lon="35.2159835">
    <ele>162.2</ele>
    <time>2013-02-10T18:23:06Z</time>
   </trkpt>
   <trkpt lat="32.7535723" lon="35.2159458">
    <ele>162.0</ele>
    <time>2013-02-10T18:23:07Z</time>
   </trkpt>
   <trkpt lat="32.7535945" lon="35.2159036">
    <ele>161.7</ele>
    <time>2013-02-10T18:23:08Z</time>
   </trkpt>
   <trkpt lat="32.7536184" lon="35.2158636">
    <ele>161.5</ele>
    <time>2013-02-10T18:23:09Z</time>
   </trkpt>
   <trkpt lat="32.7536415" lon="35.2158283">
    <ele>161.3</ele>
    <time>2013-02-10T18:23:10Z</time>
   </trkpt>
   <trkpt lat="32.7536641" lon="35.2157993">
    <ele>161.2</ele>
    <time>2013-02-10T18:23:11Z</time>
   </trkpt>
   <trkpt lat="32.7536843" lon="35.2157751">
    <ele>161.1</ele>
    <time>2013-02-10T18:23:12Z</time>
   </trkpt>
   <trkpt lat="32.7537203" lon="35.2157413">
    <ele>160.9</ele>
    <time>2013-02-10T18:23:14Z</time>
   </trkpt>
   <trkpt lat="32.7537420" lon="35.2157177">
    <ele>160.8</ele>
    <time>2013-02-10T18:23:16Z</time>
   </trkpt>
   <trkpt lat="32.7537848" lon="35.2156959">
    <ele>161.1</ele>
    <time>2013-02-10T18:23:19Z</time>
   </trkpt>
   <trkpt lat="32.7538132" lon="35.2157065">
    <ele>161.5</ele>
    <time>2013-02-10T18:23:20Z</time>
   </trkpt>
   <trkpt lat="32.7538435" lon="35.2157162">
    <ele>162.0</ele>
    <time>2013-02-10T18:23:21Z</time>
   </trkpt>
   <trkpt lat="32.7538747" lon="35.2157283">
    <ele>162.4</ele>
    <time>2013-02-10T18:23:22Z</time>
   </trkpt>
   <trkpt lat="32.7539309" lon="35.2157328">
    <ele>163.1</ele>
    <time>2013-02-10T18:23:24Z</time>
   </trkpt>
   <trkpt lat="32.7539705" lon="35.2157030">
    <ele>163.3</ele>
    <time>2013-02-10T18:23:26Z</time>
   </trkpt>
   <trkpt lat="32.7539983" lon="35.2156627">
    <ele>163.3</ele>
    <time>2013-02-10T18:23:28Z</time>
   </trkpt>
   <trkpt lat="32.7540224" lon="35.2156268">
    <ele>163.2</ele>
    <time>2013-02-10T18:23:30Z</time>
   </trkpt>
   <trkpt lat="32.7540431" lon="35.2155798">
    <ele>163.0</ele>
    <time>2013-02-10T18:23:32Z</time>
   </trkpt>
   <trkpt lat="32.7540517" lon="35.2155490">
    <ele>162.8</ele>
    <time>2013-02-10T18:23:33Z</time>
   </trkpt>
   <trkpt lat="32.7540596" lon="35.2155137">
    <ele>162.6</ele>
    <time>2013-02-10T18:23:34Z</time>
   </trkpt>
   <trkpt lat="32.7540675" lon="35.2154772">
    <ele>162.4</ele>
    <time>2013-02-10T18:23:35Z</time>
   </trkpt>
   <trkpt lat="32.7540933" lon="35.2154034">
    <ele>162.0</ele>
    <time>2013-02-10T18:23:37Z</time>
   </trkpt>
   <trkpt lat="32.7541090" lon="35.2153667">
    <ele>162.0</ele>
    <time>2013-02-10T18:23:38Z</time>
   </trkpt>
   <trkpt lat="32.7541253" lon="35.2153341">
    <ele>162.0</ele>
    <time>2013-02-10T18:23:39Z</time>
   </trkpt>
   <trkpt lat="32.7541427" lon="35.2153031">
    <ele>162.0</ele>
    <time>2013-02-10T18:23:40Z</time>
   </trkpt>
   <trkpt lat="32.7541575" lon="35.2152734">
    <ele>162.0</ele>
    <time>2013-02-10T18:23:41Z</time>
   </trkpt>
   <trkpt lat="32.7541795" lon="35.2152194">
    <ele>162.0</ele>
    <time>2013-02-10T18:23:43Z</time>
   </trkpt>
   <trkpt lat="32.7541919" lon="35.2151715">
    <ele>161.8</ele>
    <time>2013-02-10T18:23:45Z</time>
   </trkpt>
   <trkpt lat="32.7542095" lon="35.2151286">
    <ele>161.8</ele>
    <time>2013-02-10T18:23:47Z</time>
   </trkpt>
   <trkpt lat="32.7542235" lon="35.2150909">
    <ele>161.7</ele>
    <time>2013-02-10T18:23:49Z</time>
   </trkpt>
   <trkpt lat="32.7542321" lon="35.2150542">
    <ele>161.5</ele>
    <time>2013-02-10T18:23:51Z</time>
   </trkpt>
   <trkpt lat="32.7542369" lon="35.2150174">
    <ele>161.4</ele>
    <time>2013-02-10T18:23:53Z</time>
   </trkpt>
   <trkpt lat="32.7542408" lon="35.2149839">
    <ele>161.2</ele>
    <time>2013-02-10T18:23:55Z</time>
   </trkpt>
   <trkpt lat="32.7542419" lon="35.2149360">
    <ele>160.9</ele>
    <time>2013-02-10T18:23:58Z</time>
   </trkpt>
   <trkpt lat="32.7542410" lon="35.2148906">
    <ele>160.6</ele>
    <time>2013-02-10T18:24:00Z</time>
   </trkpt>
   <trkpt lat="32.7542482" lon="35.2148320">
    <ele>160.3</ele>
    <time>2013-02-10T18:24:02Z</time>
   </trkpt>
   <trkpt lat="32.7542527" lon="35.2147995">
    <ele>160.2</ele>
    <time>2013-02-10T18:24:03Z</time>
   </trkpt>
   <trkpt lat="32.7542567" lon="35.2147671">
    <ele>160.0</ele>
    <time>2013-02-10T18:24:04Z</time>
   </trkpt>
   <trkpt lat="32.7542622" lon="35.2147332">
    <ele>159.9</ele>
    <time>2013-02-10T18:24:05Z</time>
   </trkpt>
   <trkpt lat="32.7542678" lon="35.2147002">
    <ele>159.7</ele>
    <time>2013-02-10T18:24:06Z</time>
   </trkpt>
   <trkpt lat="32.7542751" lon="35.2146679">
    <ele>159.6</ele>
    <time>2013-02-10T18:24:07Z</time>
   </trkpt>
   <trkpt lat="32.7542839" lon="35.2146374">
    <ele>159.5</ele>
    <time>2013-02-10T18:24:08Z</time>
   </trkpt>
   <trkpt lat="32.7542952" lon="35.2146075">
    <ele>159.4</ele>
    <time>2013-02-10T18:24:09Z</time>
   </trkpt>
   <trkpt lat="32.7543311" lon="35.2145611">
    <ele>159.5</ele>
    <time>2013-02-10T18:24:11Z</time>
   </trkpt>
   <trkpt lat="32.7543676" lon="35.2145346">
    <ele>159.7</ele>
    <time>2013-02-10T18:24:13Z</time>
   </trkpt>
   <trkpt lat="32.7543958" lon="35.2145152">
    <ele>159.9</ele>
    <time>2013-02-10T18:24:15Z</time>
   </trkpt>
   <trkpt lat="32.7544117" lon="35.2144822">
    <ele>159.9</ele>
    <time>2013-02-10T18:24:17Z</time>
   </trkpt>
   <trkpt lat="32.7544175" lon="35.2144252">
    <ele>159.7</ele>
    <time>2013-02-10T18:24:19Z</time>
   </trkpt>
   <trkpt lat="32.7544139" lon="35.2143934">
    <ele>159.6</ele>
    <time>2013-02-10T18:24:20Z</time>
   </trkpt>
   <trkpt lat="32.7544053" lon="35.2143609">
    <ele>159.3</ele>
    <time>2013-02-10T18:24:21Z</time>
   </trkpt>
   <trkpt lat="32.7543917" lon="35.2143268">
    <ele>159.1</ele>
    <time>2013-02-10T18:24:22Z</time>
   </trkpt>
   <trkpt lat="32.7543826" lon="35.2142871">
    <ele>158.8</ele>
    <time>2013-02-10T18:24:23Z</time>
   </trkpt>
   <trkpt lat="32.7543753" lon="35.2142432">
    <ele>158.6</ele>
    <time>2013-02-10T18:24:24Z</time>
   </trkpt>
   <trkpt lat="32.7543709" lon="35.2141993">
    <ele>158.4</ele>
    <time>2013-02-10T18:24:25Z</time>
   </trkpt>
   <trkpt lat="32.7543696" lon="35.2141567">
    <ele>158.2</ele>
    <time>2013-02-10T18:24:26Z</time>
   </trkpt>
   <trkpt lat="32.7543663" lon="35.2141158">
    <ele>158.0</ele>
    <time>2013-02-10T18:24:27Z</time>
   </trkpt>
   <trkpt lat="32.7543581" lon="35.2140781">
    <ele>157.7</ele>
    <time>2013-02-10T18:24:28Z</time>
   </trkpt>
   <trkpt lat="32.7543458" lon="35.2140428">
    <ele>157.5</ele>
    <time>2013-02-10T18:24:29Z</time>
   </trkpt>
   <trkpt lat="32.7543270" lon="35.2140074">
    <ele>157.2</ele>
    <time>2013-02-10T18:24:30Z</time>
   </trkpt>
   <trkpt lat="32.7543061" lon="35.2139712">
    <ele>156.9</ele>
    <time>2013-02-10T18:24:31Z</time>
   </trkpt>
   <trkpt lat="32.7542907" lon="35.2139315">
    <ele>156.6</ele>
    <time>2013-02-10T18:24:32Z</time>
   </trkpt>
   <trkpt lat="32.7542839" lon="35.2138881">
    <ele>156.4</ele>
    <time>2013-02-10T18:24:33Z</time>
   </trkpt>
   <trkpt lat="32.7542955" lon="35.2138374">
    <ele>156.3</ele>
    <time>2013-02-10T18:24:34Z</time>
   </trkpt>
   <trkpt lat="32.7542996" lon="35.2137911">
    <ele>156.1</ele>
    <time>2013-02-10T18:24:35Z</time>
   </trkpt>
   <trkpt lat="32.7543222" lon="35.2137458">
    <ele>156.1</ele>
    <time>2013-02-10T18:24:36Z</time>
   </trkpt>
   <trkpt lat="32.7543408" lon="35.2137018">
    <ele>156.1</ele>
    <time>2013-02-10T18:24:37Z</time>
   </trkpt>
   <trkpt lat="32.7543600" lon="35.2136627">
    <ele>156.2</ele>
    <time>2013-02-10T18:24:38Z</time>
   </trkpt>
   <trkpt lat="32.7543779" lon="35.2136263">
    <ele>156.2</ele>
    <time>2013-02-10T18:24:39Z</time>
   </trkpt>
   <trkpt lat="32.7543965" lon="35.2135883">
    <ele>156.3</ele>
    <time>2013-02-10T18:24:40Z</time>
   </trkpt>
   <trkpt lat="32.7544155" lon="35.2135487">
    <ele>156.3</ele>
    <time>2013-02-10T18:24:41Z</time>
   </trkpt>
   <trkpt lat="32.7544355" lon="35.2135072">
    <ele>156.4</ele>
    <time>2013-02-10T18:24:42Z</time>
   </trkpt>
   <trkpt lat="32.7544550" lon="35.2134626">
    <ele>156.4</ele>
    <time>2013-02-10T18:24:43Z</time>
   </trkpt>
   <trkpt lat="32.7544752" lon="35.2134169">
    <ele>156.4</ele>
    <time>2013-02-10T18:24:44Z</time>
   </trkpt>
   <trkpt lat="32.7544941" lon="35.2133697">
    <ele>156.4</ele>
    <time>2013-02-10T18:24:45Z</time>
   </trkpt>
   <trkpt lat="32.7545041" lon="35.2133200">
    <ele>156.4</ele>
    <time>2013-02-10T18:24:46Z</time>
   </trkpt>
   <trkpt lat="32.7545120" lon="35.2132705">
    <ele>156.3</ele>
    <time>2013-02-10T18:24:47Z</time>
   </trkpt>
   <trkpt lat="32.7545159" lon="35.2132231">
    <ele>156.3</ele>
    <time>2013-02-10T18:24:48Z</time>
   </trkpt>
   <trkpt lat="32.7545166" lon="35.2131774">
    <ele>156.1</ele>
    <time>2013-02-10T18:24:49Z</time>
   </trkpt>
   <trkpt lat="32.7545193" lon="35.2131274">
    <ele>156.0</ele>
    <time>2013-02-10T18:24:50Z</time>
   </trkpt>
   <trkpt lat="32.7545248" lon="35.2130787">
    <ele>156.0</ele>
    <time>2013-02-10T18:24:51Z</time>
   </trkpt>
   <trkpt lat="32.7545317" lon="35.2130297">
    <ele>155.9</ele>
    <time>2013-02-10T18:24:52Z</time>
   </trkpt>
   <trkpt lat="32.7545380" lon="35.2129754">
    <ele>155.8</ele>
    <time>2013-02-10T18:24:53Z</time>
   </trkpt>
   <trkpt lat="32.7545539" lon="35.2129250">
    <ele>155.8</ele>
    <time>2013-02-10T18:24:54Z</time>
   </trkpt>
   <trkpt lat="32.7545765" lon="35.2128827">
    <ele>155.5</ele>
    <time>2013-02-10T18:24:55Z</time>
   </trkpt>
   <trkpt lat="32.7546002" lon="35.2128404">
    <ele>155.1</ele>
    <time>2013-02-10T18:24:56Z</time>
   </trkpt>
   <trkpt lat="32.7546256" lon="35.2127958">
    <ele>154.7</ele>
    <time>2013-02-10T18:24:57Z</time>
   </trkpt>
   <trkpt lat="32.7546530" lon="35.2127524">
    <ele>154.2</ele>
    <time>2013-02-10T18:24:58Z</time>
   </trkpt>
   <trkpt lat="32.7546720" lon="35.2127155">
    <ele>153.9</ele>
    <time>2013-02-10T18:24:59Z</time>
   </trkpt>
   <trkpt lat="32.7546779" lon="35.2126775">
    <ele>153.5</ele>
    <time>2013-02-10T18:25:00Z</time>
   </trkpt>
   <trkpt lat="32.7546903" lon="35.2126326">
    <ele>153.0</ele>
    <time>2013-02-10T18:25:01Z</time>
   </trkpt>
   <trkpt lat="32.7547042" lon="35.2125804">
    <ele>152.4</ele>
    <time>2013-02-10T18:25:02Z</time>
   </trkpt>
   <trkpt lat="32.7547212" lon="35.2125305">
    <ele>151.9</ele>
    <time>2013-02-10T18:25:03Z</time>
   </trkpt>
   <trkpt lat="32.7547374" lon="35.2124814">
    <ele>151.4</ele>
    <time>2013-02-10T18:25:04Z</time>
   </trkpt>
   <trkpt lat="32.7547625" lon="35.2124375">
    <ele>151.1</ele>
    <time>2013-02-10T18:25:05Z</time>
   </trkpt>
   <trkpt lat="32.7547848" lon="35.2124174">
    <ele>150.9</ele>
    <time>2013-02-10T18:25:06Z</time>
   </trkpt>
   <trkpt lat="32.7548300" lon="35.2124116">
    <ele>151.1</ele>
    <time>2013-02-10T18:25:08Z</time>
   </trkpt>
   <trkpt lat="32.7548774" lon="35.2124039">
    <ele>151.2</ele>
    <time>2013-02-10T18:25:10Z</time>
   </trkpt>
   <trkpt lat="32.7549288" lon="35.2124126">
    <ele>151.5</ele>
    <time>2013-02-10T18:25:12Z</time>
   </trkpt>
   <trkpt lat="32.7549727" lon="35.2124372">
    <ele>152.0</ele>
    <time>2013-02-10T18:25:14Z</time>
   </trkpt>
   <trkpt lat="32.7550182" lon="35.2124606">
    <ele>152.4</ele>
    <time>2013-02-10T18:25:16Z</time>
   </trkpt>
   <trkpt lat="32.7550631" lon="35.2124868">
    <ele>152.9</ele>
    <time>2013-02-10T18:25:18Z</time>
   </trkpt>
   <trkpt lat="32.7551056" lon="35.2125085">
    <ele>153.3</ele>
    <time>2013-02-10T18:25:20Z</time>
   </trkpt>
   <trkpt lat="32.7551434" lon="35.2125379">
    <ele>153.7</ele>
    <time>2013-02-10T18:25:22Z</time>
   </trkpt>
   <trkpt lat="32.7551711" lon="35.2125760">
    <ele>154.2</ele>
    <time>2013-02-10T18:25:24Z</time>
   </trkpt>
   <trkpt lat="32.7551965" lon="35.2126067">
    <ele>154.6</ele>
    <time>2013-02-10T18:25:26Z</time>
   </trkpt>
   <trkpt lat="32.7552232" lon="35.2126278">
    <ele>154.9</ele>
    <time>2013-02-10T18:25:28Z</time>
   </trkpt>
   <trkpt lat="32.7552632" lon="35.2126375">
    <ele>155.1</ele>
    <time>2013-02-10T18:25:30Z</time>
   </trkpt>
   <trkpt lat="32.7553111" lon="35.2126496">
    <ele>155.4</ele>
    <time>2013-02-10T18:25:32Z</time>
   </trkpt>
   <trkpt lat="32.7553368" lon="35.2126593">
    <ele>155.6</ele>
    <time>2013-02-10T18:25:33Z</time>
   </trkpt>
   <trkpt lat="32.7553644" lon="35.2126692">
    <ele>155.7</ele>
    <time>2013-02-10T18:25:34Z</time>
   </trkpt>
   <trkpt lat="32.7553932" lon="35.2126782">
    <ele>155.9</ele>
    <time>2013-02-10T18:25:35Z</time>
   </trkpt>
   <trkpt lat="32.7554441" lon="35.2126964">
    <ele>156.3</ele>
    <time>2013-02-10T18:25:37Z</time>
   </trkpt>
   <trkpt lat="32.7554888" lon="35.2127149">
    <ele>156.8</ele>
    <time>2013-02-10T18:25:39Z</time>
   </trkpt>
   <trkpt lat="32.7555148" lon="35.2127456">
    <ele>157.2</ele>
    <time>2013-02-10T18:25:41Z</time>
   </trkpt>
   <trkpt lat="32.7555303" lon="35.2127825">
    <ele>157.6</ele>
    <time>2013-02-10T18:25:43Z</time>
   </trkpt>
   <trkpt lat="32.7555352" lon="35.2128171">
    <ele>157.9</ele>
    <time>2013-02-10T18:25:45Z</time>
   </trkpt>
   <trkpt lat="32.7555354" lon="35.2128551">
    <ele>158.2</ele>
    <time>2013-02-10T18:25:48Z</time>
   </trkpt>
   <trkpt lat="32.7555445" lon="35.2128854">
    <ele>158.5</ele>
    <time>2013-02-10T18:25:50Z</time>
   </trkpt>
   <trkpt lat="32.7555687" lon="35.2129207">
    <ele>159.0</ele>
    <time>2013-02-10T18:25:52Z</time>
   </trkpt>
   <trkpt lat="32.7556065" lon="35.2129455">
    <ele>159.4</ele>
    <time>2013-02-10T18:25:54Z</time>
   </trkpt>
   <trkpt lat="32.7556511" lon="35.2129612">
    <ele>159.9</ele>
    <time>2013-02-10T18:25:56Z</time>
   </trkpt>
   <trkpt lat="32.7556960" lon="35.2129776">
    <ele>160.3</ele>
    <time>2013-02-10T18:25:58Z</time>
   </trkpt>
   <trkpt lat="32.7557385" lon="35.2130011">
    <ele>160.8</ele>
    <time>2013-02-10T18:26:00Z</time>
   </trkpt>
   <trkpt lat="32.7557785" lon="35.2130278">
    <ele>161.3</ele>
    <time>2013-02-10T18:26:02Z</time>
   </trkpt>
   <trkpt lat="32.7558138" lon="35.2130535">
    <ele>161.7</ele>
    <time>2013-02-10T18:26:04Z</time>
   </trkpt>
   <trkpt lat="32.7558473" lon="35.2130691">
    <ele>162.0</ele>
    <time>2013-02-10T18:26:06Z</time>
   </trkpt>
   <trkpt lat="32.7558833" lon="35.2130788">
    <ele>162.3</ele>
    <time>2013-02-10T18:26:08Z</time>
   </trkpt>
   <trkpt lat="32.7559259" lon="35.2130889">
    <ele>162.7</ele>
    <time>2013-02-10T18:26:10Z</time>
   </trkpt>
   <trkpt lat="32.7559522" lon="35.2130967">
    <ele>162.9</ele>
    <time>2013-02-10T18:26:11Z</time>
   </trkpt>
   <trkpt lat="32.7559794" lon="35.2131122">
    <ele>163.2</ele>
    <time>2013-02-10T18:26:12Z</time>
   </trkpt>
   <trkpt lat="32.7560344" lon="35.2131419">
    <ele>163.7</ele>
    <time>2013-02-10T18:26:14Z</time>
   </trkpt>
   <trkpt lat="32.7560611" lon="35.2131566">
    <ele>164.0</ele>
    <time>2013-02-10T18:26:15Z</time>
   </trkpt>
   <trkpt lat="32.7560861" lon="35.2131689">
    <ele>164.3</ele>
    <time>2013-02-10T18:26:16Z</time>
   </trkpt>
   <trkpt lat="32.7561365" lon="35.2131867">
    <ele>164.7</ele>
    <time>2013-02-10T18:26:18Z</time>
   </trkpt>
   <trkpt lat="32.7561779" lon="35.2131978">
    <ele>165.0</ele>
    <time>2013-02-10T18:26:20Z</time>
   </trkpt>
   <trkpt lat="32.7562188" lon="35.2132004">
    <ele>165.2</ele>
    <time>2013-02-10T18:26:22Z</time>
   </trkpt>
   <trkpt lat="32.7562500" lon="35.2131913">
    <ele>165.3</ele>
    <time>2013-02-10T18:26:24Z</time>
   </trkpt>
   <trkpt lat="32.7562823" lon="35.2131993">
    <ele>165.8</ele>
    <time>2013-02-10T18:26:26Z</time>
   </trkpt>
   <trkpt lat="32.7563128" lon="35.2132112">
    <ele>166.3</ele>
    <time>2013-02-10T18:26:28Z</time>
   </trkpt>
   <trkpt lat="32.7563414" lon="35.2132233">
    <ele>166.8</ele>
    <time>2013-02-10T18:26:30Z</time>
   </trkpt>
   <trkpt lat="32.7563666" lon="35.2132369">
    <ele>167.3</ele>
    <time>2013-02-10T18:26:32Z</time>
   </trkpt>
   <trkpt lat="32.7563942" lon="35.2132565">
    <ele>167.8</ele>
    <time>2013-02-10T18:26:36Z</time>
   </trkpt>
   <trkpt lat="32.7564212" lon="35.2132500">
    <ele>168.1</ele>
    <time>2013-02-10T18:26:41Z</time>
   </trkpt>
   <trkpt lat="32.7564468" lon="35.2132666">
    <ele>168.6</ele>
    <time>2013-02-10T18:26:44Z</time>
   </trkpt>
   <trkpt lat="32.7564825" lon="35.2132791">
    <ele>169.2</ele>
    <time>2013-02-10T18:26:47Z</time>
   </trkpt>
   <trkpt lat="32.7565212" lon="35.2132738">
    <ele>169.7</ele>
    <time>2013-02-10T18:26:50Z</time>
   </trkpt>
   <trkpt lat="32.7565540" lon="35.2132443">
    <ele>169.9</ele>
    <time>2013-02-10T18:26:53Z</time>
   </trkpt>
   <trkpt lat="32.7565766" lon="35.2132198">
    <ele>170.1</ele>
    <time>2013-02-10T18:26:55Z</time>
   </trkpt>
   <trkpt lat="32.7565908" lon="35.2131783">
    <ele>170.0</ele>
    <time>2013-02-10T18:26:58Z</time>
   </trkpt>
   <trkpt lat="32.7565897" lon="35.2131433">
    <ele>169.8</ele>
    <time>2013-02-10T18:27:00Z</time>
   </trkpt>
   <trkpt lat="32.7565876" lon="35.2130907">
    <ele>169.4</ele>
    <time>2013-02-10T18:27:02Z</time>
   </trkpt>
   <trkpt lat="32.7565856" lon="35.2130325">
    <ele>169.0</ele>
    <time>2013-02-10T18:27:04Z</time>
   </trkpt>
   <trkpt lat="32.7565899" lon="35.2129728">
    <ele>168.7</ele>
    <time>2013-02-10T18:27:06Z</time>
   </trkpt>
   <trkpt lat="32.7566085" lon="35.2129238">
    <ele>168.6</ele>
    <time>2013-02-10T18:27:08Z</time>
   </trkpt>
   <trkpt lat="32.7566302" lon="35.2128779">
    <ele>168.8</ele>
    <time>2013-02-10T18:27:10Z</time>
   </trkpt>
   <trkpt lat="32.7566554" lon="35.2128277">
    <ele>169.1</ele>
    <time>2013-02-10T18:27:12Z</time>
   </trkpt>
   <trkpt lat="32.7566721" lon="35.2127929">
    <ele>169.3</ele>
    <time>2013-02-10T18:27:14Z</time>
   </trkpt>
   <trkpt lat="32.7566829" lon="35.2127526">
    <ele>169.4</ele>
    <time>2013-02-10T18:27:17Z</time>
   </trkpt>
   <trkpt lat="32.7566772" lon="35.2127206">
    <ele>169.2</ele>
    <time>2013-02-10T18:27:18Z</time>
   </trkpt>
   <trkpt lat="32.7566699" lon="35.2126838">
    <ele>169.0</ele>
    <time>2013-02-10T18:27:19Z</time>
   </trkpt>
   <trkpt lat="32.7566645" lon="35.2126400">
    <ele>168.8</ele>
    <time>2013-02-10T18:27:20Z</time>
   </trkpt>
   <trkpt lat="32.7566578" lon="35.2125942">
    <ele>168.6</ele>
    <time>2013-02-10T18:27:21Z</time>
   </trkpt>
   <trkpt lat="32.7566521" lon="35.2125495">
    <ele>168.4</ele>
    <time>2013-02-10T18:27:22Z</time>
   </trkpt>
   <trkpt lat="32.7566510" lon="35.2125130">
    <ele>168.3</ele>
    <time>2013-02-10T18:27:23Z</time>
   </trkpt>
   <trkpt lat="32.7566428" lon="35.2124542">
    <ele>168.0</ele>
    <time>2013-02-10T18:27:25Z</time>
   </trkpt>
   <trkpt lat="32.7566138" lon="35.2123988">
    <ele>167.4</ele>
    <time>2013-02-10T18:27:27Z</time>
   </trkpt>
   <trkpt lat="32.7565896" lon="35.2123697">
    <ele>166.9</ele>
    <time>2013-02-10T18:27:28Z</time>
   </trkpt>
   <trkpt lat="32.7565713" lon="35.2123392">
    <ele>166.5</ele>
    <time>2013-02-10T18:27:29Z</time>
   </trkpt>
   <trkpt lat="32.7565567" lon="35.2123081">
    <ele>166.1</ele>
    <time>2013-02-10T18:27:30Z</time>
   </trkpt>
   <trkpt lat="32.7565548" lon="35.2122495">
    <ele>165.9</ele>
    <time>2013-02-10T18:27:32Z</time>
   </trkpt>
   <trkpt lat="32.7565803" lon="35.2122027">
    <ele>166.3</ele>
    <time>2013-02-10T18:27:34Z</time>
   </trkpt>
   <trkpt lat="32.7566163" lon="35.2121925">
    <ele>166.9</ele>
    <time>2013-02-10T18:27:36Z</time>
   </trkpt>
   <trkpt lat="32.7566500" lon="35.2122218">
    <ele>167.5</ele>
    <time>2013-02-10T18:27:38Z</time>
   </trkpt>
   <trkpt lat="32.7566728" lon="35.2122658">
    <ele>168.0</ele>
    <time>2013-02-10T18:27:40Z</time>
   </trkpt>
   <trkpt lat="32.7566896" lon="35.2123010">
    <ele>168.4</ele>
    <time>2013-02-10T18:27:42Z</time>
   </trkpt>
   <trkpt lat="32.7567043" lon="35.2123455">
    <ele>168.8</ele>
    <time>2013-02-10T18:27:45Z</time>
   </trkpt>
   <trkpt lat="32.7567161" lon="35.2123763">
    <ele>169.1</ele>
    <time>2013-02-10T18:27:47Z</time>
   </trkpt>
   <trkpt lat="32.7567343" lon="35.2124005">
    <ele>169.4</ele>
    <time>2013-02-10T18:27:49Z</time>
   </trkpt>
   <trkpt lat="32.7567682" lon="35.2124221">
    <ele>170.0</ele>
    <time>2013-02-10T18:27:51Z</time>
   </trkpt>
   <trkpt lat="32.7567972" lon="35.2124461">
    <ele>170.6</ele>
    <time>2013-02-10T18:27:53Z</time>
   </trkpt>
   <trkpt lat="32.7568197" lon="35.2124882">
    <ele>171.0</ele>
    <time>2013-02-10T18:27:55Z</time>
   </trkpt>
   <trkpt lat="32.7568414" lon="35.2125290">
    <ele>171.5</ele>
    <time>2013-02-10T18:27:57Z</time>
   </trkpt>
   <trkpt lat="32.7568614" lon="35.2125653">
    <ele>171.9</ele>
    <time>2013-02-10T18:27:59Z</time>
   </trkpt>
   <trkpt lat="32.7568829" lon="35.2125980">
    <ele>172.3</ele>
    <time>2013-02-10T18:28:02Z</time>
   </trkpt>
   <trkpt lat="32.7568990" lon="35.2126285">
    <ele>172.6</ele>
    <time>2013-02-10T18:28:04Z</time>
   </trkpt>
   <trkpt lat="32.7569119" lon="35.2126618">
    <ele>172.9</ele>
    <time>2013-02-10T18:28:06Z</time>
   </trkpt>
   <trkpt lat="32.7569242" lon="35.2126927">
    <ele>173.1</ele>
    <time>2013-02-10T18:28:08Z</time>
   </trkpt>
   <trkpt lat="32.7569315" lon="35.2127297">
    <ele>173.3</ele>
    <time>2013-02-10T18:28:10Z</time>
   </trkpt>
   <trkpt lat="32.7569260" lon="35.2127697">
    <ele>173.3</ele>
    <time>2013-02-10T18:28:12Z</time>
   </trkpt>
   <trkpt lat="32.7569228" lon="35.2128072">
    <ele>173.3</ele>
    <time>2013-02-10T18:28:14Z</time>
   </trkpt>
   <trkpt lat="32.7569205" lon="35.2128580">
    <ele>173.4</ele>
    <time>2013-02-10T18:28:16Z</time>
   </trkpt>
   <trkpt lat="32.7569296" lon="35.2129137">
    <ele>173.6</ele>
    <time>2013-02-10T18:28:18Z</time>
   </trkpt>
   <trkpt lat="32.7569474" lon="35.2129598">
    <ele>174.1</ele>
    <time>2013-02-10T18:28:20Z</time>
   </trkpt>
   <trkpt lat="32.7569606" lon="35.2129940">
    <ele>174.4</ele>
    <time>2013-02-10T18:28:22Z</time>
   </trkpt>
   <trkpt lat="32.7569766" lon="35.2130314">
    <ele>174.8</ele>
    <time>2013-02-10T18:28:25Z</time>
   </trkpt>
   <trkpt lat="32.7569956" lon="35.2130672">
    <ele>175.2</ele>
    <time>2013-02-10T18:28:27Z</time>
   </trkpt>
   <trkpt lat="32.7570237" lon="35.2131088">
    <ele>175.8</ele>
    <time>2013-02-10T18:28:29Z</time>
   </trkpt>
   <trkpt lat="32.7570468" lon="35.2131476">
    <ele>176.3</ele>
    <time>2013-02-10T18:28:31Z</time>
   </trkpt>
   <trkpt lat="32.7570678" lon="35.2131893">
    <ele>176.8</ele>
    <time>2013-02-10T18:28:33Z</time>
   </trkpt>
   <trkpt lat="32.7570885" lon="35.2132248">
    <ele>177.2</ele>
    <time>2013-02-10T18:28:35Z</time>
   </trkpt>
   <trkpt lat="32.7571050" lon="35.2132649">
    <ele>177.6</ele>
    <time>2013-02-10T18:28:37Z</time>
   </trkpt>
   <trkpt lat="32.7571204" lon="35.2133038">
    <ele>178.0</ele>
    <time>2013-02-10T18:28:39Z</time>
   </trkpt>
   <trkpt lat="32.7571338" lon="35.2133468">
    <ele>178.4</ele>
    <time>2013-02-10T18:28:41Z</time>
   </trkpt>
   <trkpt lat="32.7571563" lon="35.2133919">
    <ele>178.9</ele>
    <time>2013-02-10T18:28:43Z</time>
   </trkpt>
   <trkpt lat="32.7571854" lon="35.2134338">
    <ele>179.4</ele>
    <time>2013-02-10T18:28:45Z</time>
   </trkpt>
   <trkpt lat="32.7572094" lon="35.2134592">
    <ele>179.9</ele>
    <time>2013-02-10T18:28:47Z</time>
   </trkpt>
   <trkpt lat="32.7572330" lon="35.2134886">
    <ele>180.3</ele>
    <time>2013-02-10T18:28:49Z</time>
   </trkpt>
   <trkpt lat="32.7572649" lon="35.2135249">
    <ele>180.9</ele>
    <time>2013-02-10T18:28:51Z</time>
   </trkpt>
   <trkpt lat="32.7572944" lon="35.2135613">
    <ele>181.4</ele>
    <time>2013-02-10T18:28:53Z</time>
   </trkpt>
   <trkpt lat="32.7573166" lon="35.2136079">
    <ele>181.8</ele>
    <time>2013-02-10T18:28:55Z</time>
   </trkpt>
   <trkpt lat="32.7573348" lon="35.2136528">
    <ele>182.1</ele>
    <time>2013-02-10T18:28:57Z</time>
   </trkpt>
   <trkpt lat="32.7573655" lon="35.2136716">
    <ele>182.6</ele>
    <time>2013-02-10T18:28:59Z</time>
   </trkpt>
   <trkpt lat="32.7574042" lon="35.2136770">
    <ele>183.1</ele>
    <time>2013-02-10T18:29:01Z</time>
   </trkpt>
   <trkpt lat="32.7574456" lon="35.2136801">
    <ele>183.7</ele>
    <time>2013-02-10T18:29:03Z</time>
   </trkpt>
   <trkpt lat="32.7574849" lon="35.2136818">
    <ele>184.3</ele>
    <time>2013-02-10T18:29:05Z</time>
   </trkpt>
   <trkpt lat="32.7575201" lon="35.2136819">
    <ele>184.7</ele>
    <time>2013-02-10T18:29:07Z</time>
   </trkpt>
   <trkpt lat="32.7575584" lon="35.2136807">
    <ele>185.3</ele>
    <time>2013-02-10T18:29:09Z</time>
   </trkpt>
   <trkpt lat="32.7575956" lon="35.2136759">
    <ele>185.8</ele>
    <time>2013-02-10T18:29:11Z</time>
   </trkpt>
   <trkpt lat="32.7576313" lon="35.2136583">
    <ele>186.3</ele>
    <time>2013-02-10T18:29:13Z</time>
   </trkpt>
   <trkpt lat="32.7576607" lon="35.2136331">
    <ele>186.7</ele>
    <time>2013-02-10T18:29:15Z</time>
   </trkpt>
   <trkpt lat="32.7576643" lon="35.2135958">
    <ele>186.8</ele>
    <time>2013-02-10T18:29:17Z</time>
   </trkpt>
   <trkpt lat="32.7576491" lon="35.2135605">
    <ele>186.6</ele>
    <time>2013-02-10T18:29:19Z</time>
   </trkpt>
   <trkpt lat="32.7576296" lon="35.2135302">
    <ele>186.3</ele>
    <time>2013-02-10T18:29:21Z</time>
   </trkpt>
   <trkpt lat="32.7576232" lon="35.2134914">
    <ele>186.2</ele>
    <time>2013-02-10T18:29:24Z</time>
   </trkpt>
   <trkpt lat="32.7576168" lon="35.2134600">
    <ele>186.1</ele>
    <time>2013-02-10T18:29:26Z</time>
   </trkpt>
   <trkpt lat="32.7576137" lon="35.2134152">
    <ele>186.1</ele>
    <time>2013-02-10T18:29:29Z</time>
   </trkpt>
   <trkpt lat="32.7576157" lon="35.2133726">
    <ele>186.1</ele>
    <time>2013-02-10T18:29:32Z</time>
   </trkpt>
   <trkpt lat="32.7576254" lon="35.2133360">
    <ele>186.3</ele>
    <time>2013-02-10T18:29:34Z</time>
   </trkpt>
   <trkpt lat="32.7576463" lon="35.2133055">
    <ele>186.6</ele>
    <time>2013-02-10T18:29:36Z</time>
   </trkpt>
   <trkpt lat="32.7576606" lon="35.2132693">
    <ele>186.9</ele>
    <time>2013-02-10T18:29:39Z</time>
   </trkpt>
   <trkpt lat="32.7576506" lon="35.2132324">
    <ele>186.7</ele>
    <time>2013-02-10T18:29:42Z</time>
   </trkpt>
   <trkpt lat="32.7576459" lon="35.2131934">
    <ele>186.7</ele>
    <time>2013-02-10T18:29:44Z</time>
   </trkpt>
   <trkpt lat="32.7576455" lon="35.2131463">
    <ele>186.7</ele>
    <time>2013-02-10T18:29:46Z</time>
   </trkpt>
   <trkpt lat="32.7576508" lon="35.2131082">
    <ele>186.8</ele>
    <time>2013-02-10T18:29:48Z</time>
   </trkpt>
   <trkpt lat="32.7576774" lon="35.2130565">
    <ele>187.3</ele>
    <time>2013-02-10T18:29:52Z</time>
   </trkpt>
   <trkpt lat="32.7576954" lon="35.2130262">
    <ele>187.7</ele>
    <time>2013-02-10T18:29:54Z</time>
   </trkpt>
   <trkpt lat="32.7577200" lon="35.2129995">
    <ele>188.1</ele>
    <time>2013-02-10T18:29:56Z</time>
   </trkpt>
   <trkpt lat="32.7577467" lon="35.2129764">
    <ele>188.7</ele>
    <time>2013-02-10T18:29:58Z</time>
   </trkpt>
   <trkpt lat="32.7577698" lon="35.2129421">
    <ele>189.1</ele>
    <time>2013-02-10T18:30:01Z</time>
   </trkpt>
   <trkpt lat="32.7577871" lon="35.2129099">
    <ele>189.5</ele>
    <time>2013-02-10T18:30:04Z</time>
   </trkpt>
   <trkpt lat="32.7577959" lon="35.2128672">
    <ele>189.4</ele>
    <time>2013-02-10T18:30:07Z</time>
   </trkpt>
   <trkpt lat="32.7578016" lon="35.2128349">
    <ele>189.4</ele>
    <time>2013-02-10T18:30:09Z</time>
   </trkpt>
   <trkpt lat="32.7578005" lon="35.2127939">
    <ele>189.1</ele>
    <time>2013-02-10T18:30:11Z</time>
   </trkpt>
   <trkpt lat="32.7578005" lon="35.2127518">
    <ele>188.9</ele>
    <time>2013-02-10T18:30:13Z</time>
   </trkpt>
   <trkpt lat="32.7578010" lon="35.2127065">
    <ele>188.7</ele>
    <time>2013-02-10T18:30:15Z</time>
   </trkpt>
   <trkpt lat="32.7578064" lon="35.2126587">
    <ele>188.5</ele>
    <time>2013-02-10T18:30:17Z</time>
   </trkpt>
   <trkpt lat="32.7578037" lon="35.2126077">
    <ele>188.2</ele>
    <time>2013-02-10T18:30:19Z</time>
   </trkpt>
   <trkpt lat="32.7577935" lon="35.2125604">
    <ele>187.8</ele>
    <time>2013-02-10T18:30:21Z</time>
   </trkpt>
   <trkpt lat="32.7577845" lon="35.2125138">
    <ele>187.4</ele>
    <time>2013-02-10T18:30:23Z</time>
   </trkpt>
   <trkpt lat="32.7577709" lon="35.2124655">
    <ele>186.9</ele>
    <time>2013-02-10T18:30:25Z</time>
   </trkpt>
   <trkpt lat="32.7577478" lon="35.2124132">
    <ele>186.2</ele>
    <time>2013-02-10T18:30:27Z</time>
   </trkpt>
   <trkpt lat="32.7577296" lon="35.2123829">
    <ele>185.8</ele>
    <time>2013-02-10T18:30:28Z</time>
   </trkpt>
   <trkpt lat="32.7577060" lon="35.2123560">
    <ele>185.3</ele>
    <time>2013-02-10T18:30:29Z</time>
   </trkpt>
   <trkpt lat="32.7576784" lon="35.2123318">
    <ele>184.7</ele>
    <time>2013-02-10T18:30:30Z</time>
   </trkpt>
   <trkpt lat="32.7576478" lon="35.2123131">
    <ele>184.2</ele>
    <time>2013-02-10T18:30:31Z</time>
   </trkpt>
   <trkpt lat="32.7576100" lon="35.2122957">
    <ele>183.5</ele>
    <time>2013-02-10T18:30:32Z</time>
   </trkpt>
   <trkpt lat="32.7575769" lon="35.2122779">
    <ele>182.9</ele>
    <time>2013-02-10T18:30:33Z</time>
   </trkpt>
   <trkpt lat="32.7575433" lon="35.2122589">
    <ele>182.3</ele>
    <time>2013-02-10T18:30:34Z</time>
   </trkpt>
   <trkpt lat="32.7575046" lon="35.2122428">
    <ele>181.6</ele>
    <time>2013-02-10T18:30:35Z</time>
   </trkpt>
   <trkpt lat="32.7574728" lon="35.2122246">
    <ele>181.1</ele>
    <time>2013-02-10T18:30:36Z</time>
   </trkpt>
   <trkpt lat="32.7574459" lon="35.2122209">
    <ele>180.7</ele>
    <time>2013-02-10T18:30:37Z</time>
   </trkpt>
   <trkpt lat="32.7573986" lon="35.2122393">
    <ele>180.0</ele>
    <time>2013-02-10T18:30:39Z</time>
   </trkpt>
   <trkpt lat="32.7573574" lon="35.2122307">
    <ele>179.4</ele>
    <time>2013-02-10T18:30:41Z</time>
   </trkpt>
   <trkpt lat="32.7573318" lon="35.2121959">
    <ele>178.9</ele>
    <time>2013-02-10T18:30:43Z</time>
   </trkpt>
   <trkpt lat="32.7573211" lon="35.2121622">
    <ele>178.6</ele>
    <time>2013-02-10T18:30:44Z</time>
   </trkpt>
   <trkpt lat="32.7573105" lon="35.2121227">
    <ele>178.4</ele>
    <time>2013-02-10T18:30:45Z</time>
   </trkpt>
   <trkpt lat="32.7572994" lon="35.2120754">
    <ele>178.1</ele>
    <time>2013-02-10T18:30:46Z</time>
   </trkpt>
   <trkpt lat="32.7572877" lon="35.2120250">
    <ele>177.9</ele>
    <time>2013-02-10T18:30:47Z</time>
   </trkpt>
   <trkpt lat="32.7572750" lon="35.2119743">
    <ele>177.8</ele>
    <time>2013-02-10T18:30:48Z</time>
   </trkpt>
   <trkpt lat="32.7572632" lon="35.2119281">
    <ele>177.6</ele>
    <time>2013-02-10T18:30:49Z</time>
   </trkpt>
   <trkpt lat="32.7572514" lon="35.2118834">
    <ele>177.5</ele>
    <time>2013-02-10T18:30:50Z</time>
   </trkpt>
   <trkpt lat="32.7572405" lon="35.2118428">
    <ele>177.4</ele>
    <time>2013-02-10T18:30:51Z</time>
   </trkpt>
   <trkpt lat="32.7572310" lon="35.2118049">
    <ele>177.3</ele>
    <time>2013-02-10T18:30:52Z</time>
   </trkpt>
   <trkpt lat="32.7572338" lon="35.2117472">
    <ele>177.3</ele>
    <time>2013-02-10T18:30:54Z</time>
   </trkpt>
   <trkpt lat="32.7572538" lon="35.2116687">
    <ele>177.5</ele>
    <time>2013-02-10T18:30:57Z</time>
   </trkpt>
   <trkpt lat="32.7572508" lon="35.2116056">
    <ele>177.5</ele>
    <time>2013-02-10T18:30:59Z</time>
   </trkpt>
   <trkpt lat="32.7572391" lon="35.2115718">
    <ele>177.4</ele>
    <time>2013-02-10T18:31:00Z</time>
   </trkpt>
   <trkpt lat="32.7572242" lon="35.2115393">
    <ele>177.3</ele>
    <time>2013-02-10T18:31:01Z</time>
   </trkpt>
   <trkpt lat="32.7572071" lon="35.2115018">
    <ele>177.2</ele>
    <time>2013-02-10T18:31:02Z</time>
   </trkpt>
   <trkpt lat="32.7571894" lon="35.2114623">
    <ele>177.2</ele>
    <time>2013-02-10T18:31:03Z</time>
   </trkpt>
   <trkpt lat="32.7571737" lon="35.2114264">
    <ele>177.1</ele>
    <time>2013-02-10T18:31:04Z</time>
   </trkpt>
   <trkpt lat="32.7571616" lon="35.2113937">
    <ele>177.1</ele>
    <time>2013-02-10T18:31:05Z</time>
   </trkpt>
   <trkpt lat="32.7571511" lon="35.2113640">
    <ele>177.1</ele>
    <time>2013-02-10T18:31:06Z</time>
   </trkpt>
   <trkpt lat="32.7571308" lon="35.2113081">
    <ele>177.1</ele>
    <time>2013-02-10T18:31:08Z</time>
   </trkpt>
   <trkpt lat="32.7571230" lon="35.2112713">
    <ele>177.1</ele>
    <time>2013-02-10T18:31:09Z</time>
   </trkpt>
   <trkpt lat="32.7571145" lon="35.2112307">
    <ele>177.1</ele>
    <time>2013-02-10T18:31:10Z</time>
   </trkpt>
   <trkpt lat="32.7571081" lon="35.2111850">
    <ele>176.9</ele>
    <time>2013-02-10T18:31:11Z</time>
   </trkpt>
   <trkpt lat="32.7571017" lon="35.2111415">
    <ele>176.8</ele>
    <time>2013-02-10T18:31:12Z</time>
   </trkpt>
   <trkpt lat="32.7570915" lon="35.2110708">
    <ele>176.6</ele>
    <time>2013-02-10T18:31:14Z</time>
   </trkpt>
   <trkpt lat="32.7570843" lon="35.2110318">
    <ele>176.5</ele>
    <time>2013-02-10T18:31:15Z</time>
   </trkpt>
   <trkpt lat="32.7570762" lon="35.2109909">
    <ele>176.3</ele>
    <time>2013-02-10T18:31:16Z</time>
   </trkpt>
   <trkpt lat="32.7570712" lon="35.2109458">
    <ele>176.1</ele>
    <time>2013-02-10T18:31:17Z</time>
   </trkpt>
   <trkpt lat="32.7570733" lon="35.2108982">
    <ele>176.0</ele>
    <time>2013-02-10T18:31:18Z</time>
   </trkpt>
   <trkpt lat="32.7570797" lon="35.2108514">
    <ele>176.0</ele>
    <time>2013-02-10T18:31:19Z</time>
   </trkpt>
   <trkpt lat="32.7570885" lon="35.2108049">
    <ele>175.9</ele>
    <time>2013-02-10T18:31:20Z</time>
   </trkpt>
   <trkpt lat="32.7570926" lon="35.2107614">
    <ele>175.8</ele>
    <time>2013-02-10T18:31:21Z</time>
   </trkpt>
   <trkpt lat="32.7570931" lon="35.2107192">
    <ele>175.7</ele>
    <time>2013-02-10T18:31:22Z</time>
   </trkpt>
   <trkpt lat="32.7570910" lon="35.2106756">
    <ele>175.6</ele>
    <time>2013-02-10T18:31:23Z</time>
   </trkpt>
   <trkpt lat="32.7570867" lon="35.2106320">
    <ele>175.5</ele>
    <time>2013-02-10T18:31:24Z</time>
   </trkpt>
   <trkpt lat="32.7570790" lon="35.2105880">
    <ele>175.3</ele>
    <time>2013-02-10T18:31:25Z</time>
   </trkpt>
   <trkpt lat="32.7570646" lon="35.2105511">
    <ele>175.0</ele>
    <time>2013-02-10T18:31:26Z</time>
   </trkpt>
   <trkpt lat="32.7570537" lon="35.2105100">
    <ele>174.8</ele>
    <time>2013-02-10T18:31:27Z</time>
   </trkpt>
   <trkpt lat="32.7570404" lon="35.2104693">
    <ele>174.5</ele>
    <time>2013-02-10T18:31:28Z</time>
   </trkpt>
   <trkpt lat="32.7570346" lon="35.2104186">
    <ele>174.3</ele>
    <time>2013-02-10T18:31:29Z</time>
   </trkpt>
   <trkpt lat="32.7570237" lon="35.2103696">
    <ele>173.8</ele>
    <time>2013-02-10T18:31:30Z</time>
   </trkpt>
   <trkpt lat="32.7570157" lon="35.2103227">
    <ele>173.3</ele>
    <time>2013-02-10T18:31:31Z</time>
   </trkpt>
   <trkpt lat="32.7569763" lon="35.2102495">
    <ele>172.3</ele>
    <time>2013-02-10T18:31:32Z</time>
   </trkpt>
   <trkpt lat="32.7569697" lon="35.2101892">
    <ele>171.8</ele>
    <time>2013-02-10T18:31:33Z</time>
   </trkpt>
   <trkpt lat="32.7569612" lon="35.2101275">
    <ele>171.3</ele>
    <time>2013-02-10T18:31:34Z</time>
   </trkpt>
   <trkpt lat="32.7569404" lon="35.2100706">
    <ele>170.7</ele>
    <time>2013-02-10T18:31:35Z</time>
   </trkpt>
   <trkpt lat="32.7569168" lon="35.2100170">
    <ele>170.1</ele>
    <time>2013-02-10T18:31:36Z</time>
   </trkpt>
   <trkpt lat="32.7569254" lon="35.2099518">
    <ele>169.8</ele>
    <time>2013-02-10T18:31:37Z</time>
   </trkpt>
   <trkpt lat="32.7569215" lon="35.2098919">
    <ele>169.4</ele>
    <time>2013-02-10T18:31:38Z</time>
   </trkpt>
   <trkpt lat="32.7569234" lon="35.2098419">
    <ele>169.1</ele>
    <time>2013-02-10T18:31:39Z</time>
   </trkpt>
   <trkpt lat="32.7569425" lon="35.2097759">
    <ele>168.8</ele>
    <time>2013-02-10T18:31:40Z</time>
   </trkpt>
   <trkpt lat="32.7569477" lon="35.2097151">
    <ele>168.4</ele>
    <time>2013-02-10T18:31:41Z</time>
   </trkpt>
   <trkpt lat="32.7569573" lon="35.2096574">
    <ele>168.0</ele>
    <time>2013-02-10T18:31:42Z</time>
   </trkpt>
   <trkpt lat="32.7569597" lon="35.2095863">
    <ele>167.6</ele>
    <time>2013-02-10T18:31:43Z</time>
   </trkpt>
   <trkpt lat="32.7569401" lon="35.2095288">
    <ele>167.4</ele>
    <time>2013-02-10T18:31:44Z</time>
   </trkpt>
   <trkpt lat="32.7569046" lon="35.2094783">
    <ele>167.2</ele>
    <time>2013-02-10T18:31:45Z</time>
   </trkpt>
   <trkpt lat="32.7568659" lon="35.2094387">
    <ele>167.0</ele>
    <time>2013-02-10T18:31:46Z</time>
   </trkpt>
   <trkpt lat="32.7568186" lon="35.2094132">
    <ele>166.8</ele>
    <time>2013-02-10T18:31:47Z</time>
   </trkpt>
   <trkpt lat="32.7567739" lon="35.2093672">
    <ele>166.7</ele>
    <time>2013-02-10T18:31:48Z</time>
   </trkpt>
   <trkpt lat="32.7567467" lon="35.2093234">
    <ele>166.5</ele>
    <time>2013-02-10T18:31:49Z</time>
   </trkpt>
   <trkpt lat="32.7567144" lon="35.2092822">
    <ele>166.4</ele>
    <time>2013-02-10T18:31:50Z</time>
   </trkpt>
   <trkpt lat="32.7566798" lon="35.2092376">
    <ele>166.3</ele>
    <time>2013-02-10T18:31:51Z</time>
   </trkpt>
   <trkpt lat="32.7566396" lon="35.2091939">
    <ele>166.2</ele>
    <time>2013-02-10T18:31:52Z</time>
   </trkpt>
   <trkpt lat="32.7566008" lon="35.2091548">
    <ele>166.1</ele>
    <time>2013-02-10T18:31:53Z</time>
   </trkpt>
   <trkpt lat="32.7565606" lon="35.2091507">
    <ele>166.1</ele>
    <time>2013-02-10T18:31:54Z</time>
   </trkpt>
   <trkpt lat="32.7565220" lon="35.2091001">
    <ele>166.0</ele>
    <time>2013-02-10T18:31:55Z</time>
   </trkpt>
   <trkpt lat="32.7564846" lon="35.2090738">
    <ele>165.9</ele>
    <time>2013-02-10T18:31:56Z</time>
   </trkpt>
   <trkpt lat="32.7564568" lon="35.2090261">
    <ele>165.9</ele>
    <time>2013-02-10T18:31:57Z</time>
   </trkpt>
   <trkpt lat="32.7564267" lon="35.2089714">
    <ele>165.9</ele>
    <time>2013-02-10T18:31:58Z</time>
   </trkpt>
   <trkpt lat="32.7564094" lon="35.2089252">
    <ele>165.9</ele>
    <time>2013-02-10T18:31:59Z</time>
   </trkpt>
   <trkpt lat="32.7563998" lon="35.2088860">
    <ele>165.9</ele>
    <time>2013-02-10T18:32:00Z</time>
   </trkpt>
   <trkpt lat="32.7563912" lon="35.2088405">
    <ele>165.9</ele>
    <time>2013-02-10T18:32:01Z</time>
   </trkpt>
   <trkpt lat="32.7563905" lon="35.2087798">
    <ele>166.0</ele>
    <time>2013-02-10T18:32:02Z</time>
   </trkpt>
   <trkpt lat="32.7563932" lon="35.2087400">
    <ele>166.0</ele>
    <time>2013-02-10T18:32:03Z</time>
   </trkpt>
   <trkpt lat="32.7563936" lon="35.2087000">
    <ele>166.0</ele>
    <time>2013-02-10T18:32:04Z</time>
   </trkpt>
   <trkpt lat="32.7563885" lon="35.2086665">
    <ele>166.1</ele>
    <time>2013-02-10T18:32:05Z</time>
   </trkpt>
   <trkpt lat="32.7563791" lon="35.2086261">
    <ele>166.1</ele>
    <time>2013-02-10T18:32:06Z</time>
   </trkpt>
   <trkpt lat="32.7563773" lon="35.2085866">
    <ele>166.2</ele>
    <time>2013-02-10T18:32:07Z</time>
   </trkpt>
   <trkpt lat="32.7563769" lon="35.2085461">
    <ele>166.2</ele>
    <time>2013-02-10T18:32:08Z</time>
   </trkpt>
   <trkpt lat="32.7563805" lon="35.2085057">
    <ele>166.2</ele>
    <time>2013-02-10T18:32:09Z</time>
   </trkpt>
   <trkpt lat="32.7563841" lon="35.2084660">
    <ele>166.3</ele>
    <time>2013-02-10T18:32:10Z</time>
   </trkpt>
   <trkpt lat="32.7563882" lon="35.2084251">
    <ele>166.3</ele>
    <time>2013-02-10T18:32:11Z</time>
   </trkpt>
   <trkpt lat="32.7563921" lon="35.2083852">
    <ele>166.4</ele>
    <time>2013-02-10T18:32:12Z</time>
   </trkpt>
   <trkpt lat="32.7564001" lon="35.2083532">
    <ele>166.4</ele>
    <time>2013-02-10T18:32:13Z</time>
   </trkpt>
   <trkpt lat="32.7564051" lon="35.2083202">
    <ele>166.4</ele>
    <time>2013-02-10T18:32:14Z</time>
   </trkpt>
   <trkpt lat="32.7564060" lon="35.2082876">
    <ele>166.5</ele>
    <time>2013-02-10T18:32:15Z</time>
   </trkpt>
   <trkpt lat="32.7564096" lon="35.2082335">
    <ele>166.5</ele>
    <time>2013-02-10T18:32:17Z</time>
   </trkpt>
   <trkpt lat="32.7564092" lon="35.2081765">
    <ele>166.6</ele>
    <time>2013-02-10T18:32:19Z</time>
   </trkpt>
   <trkpt lat="32.7564040" lon="35.2081172">
    <ele>166.6</ele>
    <time>2013-02-10T18:32:21Z</time>
   </trkpt>
   <trkpt lat="32.7563993" lon="35.2080618">
    <ele>166.7</ele>
    <time>2013-02-10T18:32:23Z</time>
   </trkpt>
   <trkpt lat="32.7563988" lon="35.2080129">
    <ele>166.7</ele>
    <time>2013-02-10T18:32:25Z</time>
   </trkpt>
   <trkpt lat="32.7564003" lon="35.2079651">
    <ele>166.8</ele>
    <time>2013-02-10T18:32:27Z</time>
   </trkpt>
   <trkpt lat="32.7563926" lon="35.2079193">
    <ele>166.8</ele>
    <time>2013-02-10T18:32:29Z</time>
   </trkpt>
   <trkpt lat="32.7563816" lon="35.2078745">
    <ele>166.9</ele>
    <time>2013-02-10T18:32:31Z</time>
   </trkpt>
   <trkpt lat="32.7563713" lon="35.2078224">
    <ele>167.0</ele>
    <time>2013-02-10T18:32:33Z</time>
   </trkpt>
   <trkpt lat="32.7563555" lon="35.2077633">
    <ele>167.1</ele>
    <time>2013-02-10T18:32:35Z</time>
   </trkpt>
   <trkpt lat="32.7563457" lon="35.2077316">
    <ele>167.2</ele>
    <time>2013-02-10T18:32:36Z</time>
   </trkpt>
   <trkpt lat="32.7563361" lon="35.2076985">
    <ele>167.3</ele>
    <time>2013-02-10T18:32:37Z</time>
   </trkpt>
   <trkpt lat="32.7563264" lon="35.2076638">
    <ele>167.4</ele>
    <time>2013-02-10T18:32:38Z</time>
   </trkpt>
   <trkpt lat="32.7563163" lon="35.2076282">
    <ele>167.5</ele>
    <time>2013-02-10T18:32:39Z</time>
   </trkpt>
   <trkpt lat="32.7563052" lon="35.2075937">
    <ele>167.6</ele>
    <time>2013-02-10T18:32:40Z</time>
   </trkpt>
   <trkpt lat="32.7562929" lon="35.2075578">
    <ele>167.7</ele>
    <time>2013-02-10T18:32:41Z</time>
   </trkpt>
   <trkpt lat="32.7562801" lon="35.2075245">
    <ele>167.8</ele>
    <time>2013-02-10T18:32:42Z</time>
   </trkpt>
   <trkpt lat="32.7562673" lon="35.2074909">
    <ele>167.9</ele>
    <time>2013-02-10T18:32:43Z</time>
   </trkpt>
   <trkpt lat="32.7562563" lon="35.2074589">
    <ele>168.1</ele>
    <time>2013-02-10T18:32:44Z</time>
   </trkpt>
   <trkpt lat="32.7562427" lon="35.2074055">
    <ele>168.2</ele>
    <time>2013-02-10T18:32:46Z</time>
   </trkpt>
   <trkpt lat="32.7562291" lon="35.2073528">
    <ele>168.1</ele>
    <time>2013-02-10T18:32:48Z</time>
   </trkpt>
   <trkpt lat="32.7562249" lon="35.2072944">
    <ele>168.2</ele>
    <time>2013-02-10T18:32:50Z</time>
   </trkpt>
   <trkpt lat="32.7562335" lon="35.2072306">
    <ele>168.5</ele>
    <time>2013-02-10T18:32:52Z</time>
   </trkpt>
   <trkpt lat="32.7562427" lon="35.2071792">
    <ele>168.7</ele>
    <time>2013-02-10T18:32:54Z</time>
   </trkpt>
   <trkpt lat="32.7562385" lon="35.2072133">
    <ele>168.6</ele>
    <time>2013-02-10T18:36:11Z</time>
   </trkpt>
   <trkpt lat="32.7562389" lon="35.2071767">
    <ele>168.7</ele>
    <time>2013-02-10T18:36:26Z</time>
   </trkpt>
   <trkpt lat="32.7562269" lon="35.2071373">
    <ele>168.6</ele>
    <time>2013-02-10T18:36:28Z</time>
   </trkpt>
   <trkpt lat="32.7562008" lon="35.2070834">
    <ele>168.5</ele>
    <time>2013-02-10T18:36:30Z</time>
   </trkpt>
   <trkpt lat="32.7561835" lon="35.2070511">
    <ele>168.3</ele>
    <time>2013-02-10T18:36:31Z</time>
   </trkpt>
   <trkpt lat="32.7561680" lon="35.2070142">
    <ele>168.2</ele>
    <time>2013-02-10T18:36:32Z</time>
   </trkpt>
   <trkpt lat="32.7561537" lon="35.2069739">
    <ele>168.1</ele>
    <time>2013-02-10T18:36:33Z</time>
   </trkpt>
   <trkpt lat="32.7561424" lon="35.2069298">
    <ele>168.0</ele>
    <time>2013-02-10T18:36:34Z</time>
   </trkpt>
   <trkpt lat="32.7561310" lon="35.2068849">
    <ele>168.0</ele>
    <time>2013-02-10T18:36:35Z</time>
   </trkpt>
   <trkpt lat="32.7561185" lon="35.2068370">
    <ele>167.9</ele>
    <time>2013-02-10T18:36:36Z</time>
   </trkpt>
   <trkpt lat="32.7561075" lon="35.2067879">
    <ele>167.8</ele>
    <time>2013-02-10T18:36:37Z</time>
   </trkpt>
   <trkpt lat="32.7560943" lon="35.2067401">
    <ele>167.7</ele>
    <time>2013-02-10T18:36:38Z</time>
   </trkpt>
   <trkpt lat="32.7560797" lon="35.2066912">
    <ele>167.6</ele>
    <time>2013-02-10T18:36:39Z</time>
   </trkpt>
   <trkpt lat="32.7560643" lon="35.2066440">
    <ele>167.5</ele>
    <time>2013-02-10T18:36:40Z</time>
   </trkpt>
   <trkpt lat="32.7560519" lon="35.2065961">
    <ele>167.4</ele>
    <time>2013-02-10T18:36:41Z</time>
   </trkpt>
   <trkpt lat="32.7560409" lon="35.2065484">
    <ele>167.4</ele>
    <time>2013-02-10T18:36:42Z</time>
   </trkpt>
   <trkpt lat="32.7560339" lon="35.2064996">
    <ele>167.4</ele>
    <time>2013-02-10T18:36:43Z</time>
   </trkpt>
   <trkpt lat="32.7560401" lon="35.2064295">
    <ele>167.5</ele>
    <time>2013-02-10T18:36:44Z</time>
   </trkpt>
   <trkpt lat="32.7560348" lon="35.2063817">
    <ele>167.5</ele>
    <time>2013-02-10T18:36:45Z</time>
   </trkpt>
   <trkpt lat="32.7560311" lon="35.2063308">
    <ele>167.5</ele>
    <time>2013-02-10T18:36:46Z</time>
   </trkpt>
   <trkpt lat="32.7560193" lon="35.2062866">
    <ele>167.5</ele>
    <time>2013-02-10T18:36:47Z</time>
   </trkpt>
   <trkpt lat="32.7560097" lon="35.2062382">
    <ele>167.3</ele>
    <time>2013-02-10T18:36:48Z</time>
   </trkpt>
   <trkpt lat="32.7560086" lon="35.2061988">
    <ele>167.1</ele>
    <time>2013-02-10T18:36:49Z</time>
   </trkpt>
   <trkpt lat="32.7560044" lon="35.2061534">
    <ele>166.8</ele>
    <time>2013-02-10T18:36:50Z</time>
   </trkpt>
   <trkpt lat="32.7559780" lon="35.2061294">
    <ele>166.4</ele>
    <time>2013-02-10T18:36:51Z</time>
   </trkpt>
   <trkpt lat="32.7559547" lon="35.2060949">
    <ele>166.0</ele>
    <time>2013-02-10T18:36:52Z</time>
   </trkpt>
   <trkpt lat="32.7559302" lon="35.2060617">
    <ele>165.6</ele>
    <time>2013-02-10T18:36:53Z</time>
   </trkpt>
   <trkpt lat="32.7559101" lon="35.2060253">
    <ele>165.2</ele>
    <time>2013-02-10T18:36:54Z</time>
   </trkpt>
   <trkpt lat="32.7559010" lon="35.2059884">
    <ele>164.9</ele>
    <time>2013-02-10T18:36:55Z</time>
   </trkpt>
   <trkpt lat="32.7558941" lon="35.2059494">
    <ele>164.7</ele>
    <time>2013-02-10T18:36:56Z</time>
   </trkpt>
   <trkpt lat="32.7558910" lon="35.2059116">
    <ele>164.4</ele>
    <time>2013-02-10T18:36:57Z</time>
   </trkpt>
   <trkpt lat="32.7558889" lon="35.2058680">
    <ele>164.2</ele>
    <time>2013-02-10T18:36:58Z</time>
   </trkpt>
   <trkpt lat="32.7558868" lon="35.2058231">
    <ele>164.0</ele>
    <time>2013-02-10T18:36:59Z</time>
   </trkpt>
   <trkpt lat="32.7558831" lon="35.2057774">
    <ele>163.7</ele>
    <time>2013-02-10T18:37:00Z</time>
   </trkpt>
   <trkpt lat="32.7558782" lon="35.2057322">
    <ele>163.4</ele>
    <time>2013-02-10T18:37:01Z</time>
   </trkpt>
   <trkpt lat="32.7558716" lon="35.2056897">
    <ele>163.2</ele>
    <time>2013-02-10T18:37:02Z</time>
   </trkpt>
   <trkpt lat="32.7558679" lon="35.2056493">
    <ele>162.9</ele>
    <time>2013-02-10T18:37:03Z</time>
   </trkpt>
   <trkpt lat="32.7558645" lon="35.2056092">
    <ele>162.7</ele>
    <time>2013-02-10T18:37:04Z</time>
   </trkpt>
   <trkpt lat="32.7558648" lon="35.2055716">
    <ele>162.5</ele>
    <time>2013-02-10T18:37:05Z</time>
   </trkpt>
   <trkpt lat="32.7558720" lon="35.2054932">
    <ele>162.2</ele>
    <time>2013-02-10T18:37:07Z</time>
   </trkpt>
   <trkpt lat="32.7558762" lon="35.2054521">
    <ele>162.0</ele>
    <time>2013-02-10T18:37:08Z</time>
   </trkpt>
   <trkpt lat="32.7558767" lon="35.2054097">
    <ele>161.8</ele>
    <time>2013-02-10T18:37:09Z</time>
   </trkpt>
   <trkpt lat="32.7558746" lon="35.2053641">
    <ele>161.3</ele>
    <time>2013-02-10T18:37:10Z</time>
   </trkpt>
   <trkpt lat="32.7558700" lon="35.2053152">
    <ele>160.8</ele>
    <time>2013-02-10T18:37:11Z</time>
   </trkpt>
   <trkpt lat="32.7558642" lon="35.2052646">
    <ele>160.3</ele>
    <time>2013-02-10T18:37:12Z</time>
   </trkpt>
   <trkpt lat="32.7558586" lon="35.2052114">
    <ele>159.7</ele>
    <time>2013-02-10T18:37:13Z</time>
   </trkpt>
   <trkpt lat="32.7558511" lon="35.2051584">
    <ele>159.1</ele>
    <time>2013-02-10T18:37:14Z</time>
   </trkpt>
   <trkpt lat="32.7558132" lon="35.2050785">
    <ele>158.1</ele>
    <time>2013-02-10T18:37:15Z</time>
   </trkpt>
   <trkpt lat="32.7557907" lon="35.2050238">
    <ele>157.5</ele>
    <time>2013-02-10T18:37:16Z</time>
   </trkpt>
   <trkpt lat="32.7557513" lon="35.2049606">
    <ele>156.8</ele>
    <time>2013-02-10T18:37:17Z</time>
   </trkpt>
   <trkpt lat="32.7557272" lon="35.2048940">
    <ele>156.1</ele>
    <time>2013-02-10T18:37:18Z</time>
   </trkpt>
   <trkpt lat="32.7556902" lon="35.2048526">
    <ele>155.6</ele>
    <time>2013-02-10T18:37:19Z</time>
   </trkpt>
   <trkpt lat="32.7556617" lon="35.2047993">
    <ele>155.0</ele>
    <time>2013-02-10T18:37:20Z</time>
   </trkpt>
   <trkpt lat="32.7556353" lon="35.2047439">
    <ele>154.5</ele>
    <time>2013-02-10T18:37:21Z</time>
   </trkpt>
   <trkpt lat="32.7556050" lon="35.2046996">
    <ele>154.1</ele>
    <time>2013-02-10T18:37:22Z</time>
   </trkpt>
   <trkpt lat="32.7555366" lon="35.2047043">
    <ele>154.0</ele>
    <time>2013-02-10T18:37:23Z</time>
   </trkpt>
   <trkpt lat="32.7554956" lon="35.2046533">
    <ele>153.6</ele>
    <time>2013-02-10T18:37:24Z</time>
   </trkpt>
   <trkpt lat="32.7554455" lon="35.2046191">
    <ele>153.3</ele>
    <time>2013-02-10T18:37:25Z</time>
   </trkpt>
   <trkpt lat="32.7554097" lon="35.2045958">
    <ele>153.0</ele>
    <time>2013-02-10T18:37:26Z</time>
   </trkpt>
   <trkpt lat="32.7553602" lon="35.2045632">
    <ele>152.5</ele>
    <time>2013-02-10T18:37:27Z</time>
   </trkpt>
   <trkpt lat="32.7553146" lon="35.2045344">
    <ele>152.0</ele>
    <time>2013-02-10T18:37:28Z</time>
   </trkpt>
   <trkpt lat="32.7552686" lon="35.2045040">
    <ele>151.5</ele>
    <time>2013-02-10T18:37:29Z</time>
   </trkpt>
   <trkpt lat="32.7552196" lon="35.2044981">
    <ele>151.1</ele>
    <time>2013-02-10T18:37:30Z</time>
   </trkpt>
   <trkpt lat="32.7551729" lon="35.2044835">
    <ele>150.7</ele>
    <time>2013-02-10T18:37:31Z</time>
   </trkpt>
   <trkpt lat="32.7551335" lon="35.2044545">
    <ele>150.3</ele>
    <time>2013-02-10T18:37:32Z</time>
   </trkpt>
   <trkpt lat="32.7550904" lon="35.2044398">
    <ele>149.9</ele>
    <time>2013-02-10T18:37:33Z</time>
   </trkpt>
   <trkpt lat="32.7550469" lon="35.2044182">
    <ele>149.5</ele>
    <time>2013-02-10T18:37:34Z</time>
   </trkpt>
   <trkpt lat="32.7550220" lon="35.2043973">
    <ele>149.3</ele>
    <time>2013-02-10T18:37:35Z</time>
   </trkpt>
   <trkpt lat="32.7550001" lon="35.2043720">
    <ele>149.0</ele>
    <time>2013-02-10T18:37:36Z</time>
   </trkpt>
   <trkpt lat="32.7549773" lon="35.2043404">
    <ele>148.7</ele>
    <time>2013-02-10T18:37:37Z</time>
   </trkpt>
   <trkpt lat="32.7549372" lon="35.2042843">
    <ele>148.2</ele>
    <time>2013-02-10T18:37:38Z</time>
   </trkpt>
   <trkpt lat="32.7549024" lon="35.2042359">
    <ele>147.7</ele>
    <time>2013-02-10T18:37:39Z</time>
   </trkpt>
   <trkpt lat="32.7548660" lon="35.2042080">
    <ele>147.4</ele>
    <time>2013-02-10T18:37:40Z</time>
   </trkpt>
   <trkpt lat="32.7548256" lon="35.2041886">
    <ele>147.0</ele>
    <time>2013-02-10T18:37:41Z</time>
   </trkpt>
   <trkpt lat="32.7547838" lon="35.2041526">
    <ele>146.6</ele>
    <time>2013-02-10T18:37:42Z</time>
   </trkpt>
   <trkpt lat="32.7547589" lon="35.2041092">
    <ele>146.3</ele>
    <time>2013-02-10T18:37:43Z</time>
   </trkpt>
   <trkpt lat="32.7547321" lon="35.2040634">
    <ele>146.0</ele>
    <time>2013-02-10T18:37:44Z</time>
   </trkpt>
   <trkpt lat="32.7547144" lon="35.2040206">
    <ele>145.7</ele>
    <time>2013-02-10T18:37:45Z</time>
   </trkpt>
   <trkpt lat="32.7546938" lon="35.2039767">
    <ele>145.4</ele>
    <time>2013-02-10T18:37:46Z</time>
   </trkpt>
   <trkpt lat="32.7546895" lon="35.2039245">
    <ele>145.2</ele>
    <time>2013-02-10T18:37:47Z</time>
   </trkpt>
   <trkpt lat="32.7546848" lon="35.2038849">
    <ele>145.0</ele>
    <time>2013-02-10T18:37:48Z</time>
   </trkpt>
   <trkpt lat="32.7547055" lon="35.2037835">
    <ele>144.7</ele>
    <time>2013-02-10T18:37:49Z</time>
   </trkpt>
   <trkpt lat="32.7547043" lon="35.2037245">
    <ele>144.6</ele>
    <time>2013-02-10T18:37:50Z</time>
   </trkpt>
   <trkpt lat="32.7547027" lon="35.2036721">
    <ele>144.6</ele>
    <time>2013-02-10T18:37:51Z</time>
   </trkpt>
   <trkpt lat="32.7546919" lon="35.2036207">
    <ele>144.6</ele>
    <time>2013-02-10T18:37:52Z</time>
   </trkpt>
   <trkpt lat="32.7546881" lon="35.2035805">
    <ele>144.6</ele>
    <time>2013-02-10T18:37:53Z</time>
   </trkpt>
   <trkpt lat="32.7546660" lon="35.2035593">
    <ele>144.5</ele>
    <time>2013-02-10T18:37:54Z</time>
   </trkpt>
   <trkpt lat="32.7546253" lon="35.2035203">
    <ele>144.4</ele>
    <time>2013-02-10T18:37:56Z</time>
   </trkpt>
   <trkpt lat="32.7546275" lon="35.2035549">
    <ele>144.4</ele>
    <time>2013-02-10T18:38:23Z</time>
   </trkpt>
   <trkpt lat="32.7546087" lon="35.2035142">
    <ele>144.4</ele>
    <time>2013-02-10T18:38:34Z</time>
   </trkpt>
   <trkpt lat="32.7545876" lon="35.2034850">
    <ele>144.3</ele>
    <time>2013-02-10T18:38:36Z</time>
   </trkpt>
   <trkpt lat="32.7545565" lon="35.2034628">
    <ele>144.2</ele>
    <time>2013-02-10T18:38:38Z</time>
   </trkpt>
   <trkpt lat="32.7545124" lon="35.2034376">
    <ele>144.0</ele>
    <time>2013-02-10T18:38:40Z</time>
   </trkpt>
   <trkpt lat="32.7544875" lon="35.2034239">
    <ele>143.9</ele>
    <time>2013-02-10T18:38:41Z</time>
   </trkpt>
   <trkpt lat="32.7544594" lon="35.2034049">
    <ele>143.7</ele>
    <time>2013-02-10T18:38:42Z</time>
   </trkpt>
   <trkpt lat="32.7544310" lon="35.2033826">
    <ele>143.6</ele>
    <time>2013-02-10T18:38:43Z</time>
   </trkpt>
   <trkpt lat="32.7544038" lon="35.2033567">
    <ele>143.5</ele>
    <time>2013-02-10T18:38:44Z</time>
   </trkpt>
   <trkpt lat="32.7543781" lon="35.2033279">
    <ele>143.4</ele>
    <time>2013-02-10T18:38:45Z</time>
   </trkpt>
   <trkpt lat="32.7543480" lon="35.2032985">
    <ele>143.3</ele>
    <time>2013-02-10T18:38:46Z</time>
   </trkpt>
   <trkpt lat="32.7543153" lon="35.2032731">
    <ele>143.1</ele>
    <time>2013-02-10T18:38:47Z</time>
   </trkpt>
   <trkpt lat="32.7542770" lon="35.2032553">
    <ele>143.0</ele>
    <time>2013-02-10T18:38:48Z</time>
   </trkpt>
   <trkpt lat="32.7542349" lon="35.2032450">
    <ele>142.8</ele>
    <time>2013-02-10T18:38:49Z</time>
   </trkpt>
   <trkpt lat="32.7541894" lon="35.2032444">
    <ele>142.5</ele>
    <time>2013-02-10T18:38:50Z</time>
   </trkpt>
   <trkpt lat="32.7541276" lon="35.2032656">
    <ele>142.2</ele>
    <time>2013-02-10T18:38:51Z</time>
   </trkpt>
   <trkpt lat="32.7540766" lon="35.2032799">
    <ele>141.9</ele>
    <time>2013-02-10T18:38:52Z</time>
   </trkpt>
   <trkpt lat="32.7540272" lon="35.2032861">
    <ele>141.6</ele>
    <time>2013-02-10T18:38:53Z</time>
   </trkpt>
   <trkpt lat="32.7539816" lon="35.2033027">
    <ele>141.3</ele>
    <time>2013-02-10T18:38:54Z</time>
   </trkpt>
   <trkpt lat="32.7539291" lon="35.2033119">
    <ele>141.0</ele>
    <time>2013-02-10T18:38:55Z</time>
   </trkpt>
   <trkpt lat="32.7538797" lon="35.2033019">
    <ele>140.8</ele>
    <time>2013-02-10T18:38:56Z</time>
   </trkpt>
   <trkpt lat="32.7538168" lon="35.2032912">
    <ele>140.5</ele>
    <time>2013-02-10T18:38:57Z</time>
   </trkpt>
   <trkpt lat="32.7537646" lon="35.2032776">
    <ele>140.2</ele>
    <time>2013-02-10T18:38:58Z</time>
   </trkpt>
   <trkpt lat="32.7537187" lon="35.2032800">
    <ele>139.7</ele>
    <time>2013-02-10T18:38:59Z</time>
   </trkpt>
   <trkpt lat="32.7536670" lon="35.2032726">
    <ele>139.1</ele>
    <time>2013-02-10T18:39:00Z</time>
   </trkpt>
   <trkpt lat="32.7536375" lon="35.2032858">
    <ele>138.7</ele>
    <time>2013-02-10T18:39:01Z</time>
   </trkpt>
   <trkpt lat="32.7535993" lon="35.2032863">
    <ele>138.2</ele>
    <time>2013-02-10T18:39:02Z</time>
   </trkpt>
   <trkpt lat="32.7535581" lon="35.2032725">
    <ele>137.7</ele>
    <time>2013-02-10T18:39:03Z</time>
   </trkpt>
   <trkpt lat="32.7535231" lon="35.2032717">
    <ele>137.3</ele>
    <time>2013-02-10T18:39:04Z</time>
   </trkpt>
   <trkpt lat="32.7534821" lon="35.2032642">
    <ele>136.8</ele>
    <time>2013-02-10T18:39:05Z</time>
   </trkpt>
   <trkpt lat="32.7534467" lon="35.2032416">
    <ele>136.4</ele>
    <time>2013-02-10T18:39:06Z</time>
   </trkpt>
   <trkpt lat="32.7534182" lon="35.2032157">
    <ele>136.0</ele>
    <time>2013-02-10T18:39:07Z</time>
   </trkpt>
   <trkpt lat="32.7533948" lon="35.2031899">
    <ele>135.8</ele>
    <time>2013-02-10T18:39:08Z</time>
   </trkpt>
   <trkpt lat="32.7533732" lon="35.2031655">
    <ele>135.6</ele>
    <time>2013-02-10T18:39:09Z</time>
   </trkpt>
   <trkpt lat="32.7533483" lon="35.2031384">
    <ele>135.3</ele>
    <time>2013-02-10T18:39:10Z</time>
   </trkpt>
   <trkpt lat="32.7533251" lon="35.2031088">
    <ele>135.0</ele>
    <time>2013-02-10T18:39:11Z</time>
   </trkpt>
   <trkpt lat="32.7533007" lon="35.2030786">
    <ele>134.8</ele>
    <time>2013-02-10T18:39:12Z</time>
   </trkpt>
   <trkpt lat="32.7532750" lon="35.2030500">
    <ele>134.5</ele>
    <time>2013-02-10T18:39:13Z</time>
   </trkpt>
   <trkpt lat="32.7532470" lon="35.2030229">
    <ele>134.2</ele>
    <time>2013-02-10T18:39:14Z</time>
   </trkpt>
   <trkpt lat="32.7532188" lon="35.2029971">
    <ele>133.9</ele>
    <time>2013-02-10T18:39:15Z</time>
   </trkpt>
   <trkpt lat="32.7531908" lon="35.2029725">
    <ele>133.5</ele>
    <time>2013-02-10T18:39:16Z</time>
   </trkpt>
   <trkpt lat="32.7531628" lon="35.2029487">
    <ele>133.2</ele>
    <time>2013-02-10T18:39:17Z</time>
   </trkpt>
   <trkpt lat="32.7531386" lon="35.2029205">
    <ele>132.9</ele>
    <time>2013-02-10T18:39:18Z</time>
   </trkpt>
   <trkpt lat="32.7531181" lon="35.2028799">
    <ele>132.8</ele>
    <time>2013-02-10T18:39:19Z</time>
   </trkpt>
   <trkpt lat="32.7531049" lon="35.2028340">
    <ele>132.7</ele>
    <time>2013-02-10T18:39:20Z</time>
   </trkpt>
   <trkpt lat="32.7530952" lon="35.2027856">
    <ele>132.7</ele>
    <time>2013-02-10T18:39:21Z</time>
   </trkpt>
   <trkpt lat="32.7530915" lon="35.2027338">
    <ele>132.8</ele>
    <time>2013-02-10T18:39:22Z</time>
   </trkpt>
   <trkpt lat="32.7530881" lon="35.2026843">
    <ele>132.9</ele>
    <time>2013-02-10T18:39:23Z</time>
   </trkpt>
   <trkpt lat="32.7530819" lon="35.2026408">
    <ele>133.0</ele>
    <time>2013-02-10T18:39:24Z</time>
   </trkpt>
   <trkpt lat="32.7530659" lon="35.2025995">
    <ele>132.9</ele>
    <time>2013-02-10T18:39:25Z</time>
   </trkpt>
   <trkpt lat="32.7530432" lon="35.2025608">
    <ele>132.7</ele>
    <time>2013-02-10T18:39:26Z</time>
   </trkpt>
   <trkpt lat="32.7529862" lon="35.2025150">
    <ele>132.0</ele>
    <time>2013-02-10T18:39:27Z</time>
   </trkpt>
   <trkpt lat="32.7529641" lon="35.2024540">
    <ele>131.8</ele>
    <time>2013-02-10T18:39:28Z</time>
   </trkpt>
   <trkpt lat="32.7529490" lon="35.2024008">
    <ele>131.7</ele>
    <time>2013-02-10T18:39:29Z</time>
   </trkpt>
   <trkpt lat="32.7529355" lon="35.2023489">
    <ele>131.6</ele>
    <time>2013-02-10T18:39:30Z</time>
   </trkpt>
   <trkpt lat="32.7528997" lon="35.2023121">
    <ele>131.2</ele>
    <time>2013-02-10T18:39:31Z</time>
   </trkpt>
   <trkpt lat="32.7528583" lon="35.2022003">
    <ele>130.9</ele>
    <time>2013-02-10T18:39:33Z</time>
   </trkpt>
   <trkpt lat="32.7528485" lon="35.2021600">
    <ele>130.8</ele>
    <time>2013-02-10T18:39:34Z</time>
   </trkpt>
   <trkpt lat="32.7528395" lon="35.2020835">
    <ele>130.9</ele>
    <time>2013-02-10T18:39:35Z</time>
   </trkpt>
   <trkpt lat="32.7528298" lon="35.2019970">
    <ele>131.0</ele>
    <time>2013-02-10T18:39:36Z</time>
   </trkpt>
   <trkpt lat="32.7528274" lon="35.2019534">
    <ele>131.1</ele>
    <time>2013-02-10T18:39:37Z</time>
   </trkpt>
   <trkpt lat="32.7528238" lon="35.2019009">
    <ele>131.3</ele>
    <time>2013-02-10T18:39:38Z</time>
   </trkpt>
   <trkpt lat="32.7528231" lon="35.2018535">
    <ele>131.4</ele>
    <time>2013-02-10T18:39:39Z</time>
   </trkpt>
   <trkpt lat="32.7528100" lon="35.2018022">
    <ele>131.4</ele>
    <time>2013-02-10T18:39:40Z</time>
   </trkpt>
   <trkpt lat="32.7527957" lon="35.2017504">
    <ele>131.3</ele>
    <time>2013-02-10T18:39:41Z</time>
   </trkpt>
   <trkpt lat="32.7527648" lon="35.2016914">
    <ele>131.1</ele>
    <time>2013-02-10T18:39:42Z</time>
   </trkpt>
   <trkpt lat="32.7527378" lon="35.2016468">
    <ele>130.8</ele>
    <time>2013-02-10T18:39:43Z</time>
   </trkpt>
   <trkpt lat="32.7527317" lon="35.2015882">
    <ele>130.9</ele>
    <time>2013-02-10T18:39:44Z</time>
   </trkpt>
   <trkpt lat="32.7527397" lon="35.2015360">
    <ele>131.1</ele>
    <time>2013-02-10T18:39:45Z</time>
   </trkpt>
   <trkpt lat="32.7527422" lon="35.2014939">
    <ele>131.3</ele>
    <time>2013-02-10T18:39:46Z</time>
   </trkpt>
   <trkpt lat="32.7527429" lon="35.2014501">
    <ele>131.5</ele>
    <time>2013-02-10T18:39:47Z</time>
   </trkpt>
   <trkpt lat="32.7527416" lon="35.2014029">
    <ele>131.6</ele>
    <time>2013-02-10T18:39:49Z</time>
   </trkpt>
   <trkpt lat="32.7527399" lon="35.2013536">
    <ele>131.7</ele>
    <time>2013-02-10T18:39:51Z</time>
   </trkpt>
   <trkpt lat="32.7527179" lon="35.2012930">
    <ele>131.5</ele>
    <time>2013-02-10T18:39:52Z</time>
   </trkpt>
   <trkpt lat="32.7527120" lon="35.2012512">
    <ele>131.6</ele>
    <time>2013-02-10T18:39:53Z</time>
   </trkpt>
   <trkpt lat="32.7527079" lon="35.2012084">
    <ele>131.5</ele>
    <time>2013-02-10T18:39:54Z</time>
   </trkpt>
   <trkpt lat="32.7527029" lon="35.2011646">
    <ele>131.5</ele>
    <time>2013-02-10T18:39:55Z</time>
   </trkpt>
   <trkpt lat="32.7526970" lon="35.2011209">
    <ele>131.4</ele>
    <time>2013-02-10T18:39:56Z</time>
   </trkpt>
   <trkpt lat="32.7526909" lon="35.2010753">
    <ele>131.3</ele>
    <time>2013-02-10T18:39:57Z</time>
   </trkpt>
   <trkpt lat="32.7526864" lon="35.2010298">
    <ele>131.3</ele>
    <time>2013-02-10T18:39:58Z</time>
   </trkpt>
   <trkpt lat="32.7526806" lon="35.2009813">
    <ele>131.2</ele>
    <time>2013-02-10T18:39:59Z</time>
   </trkpt>
   <trkpt lat="32.7526755" lon="35.2009337">
    <ele>131.1</ele>
    <time>2013-02-10T18:40:00Z</time>
   </trkpt>
   <trkpt lat="32.7526774" lon="35.2008896">
    <ele>131.2</ele>
    <time>2013-02-10T18:40:01Z</time>
   </trkpt>
   <trkpt lat="32.7526819" lon="35.2008472">
    <ele>131.3</ele>
    <time>2013-02-10T18:40:02Z</time>
   </trkpt>
   <trkpt lat="32.7526862" lon="35.2008051">
    <ele>131.4</ele>
    <time>2013-02-10T18:40:03Z</time>
   </trkpt>
   <trkpt lat="32.7526901" lon="35.2007670">
    <ele>131.5</ele>
    <time>2013-02-10T18:40:04Z</time>
   </trkpt>
   <trkpt lat="32.7526908" lon="35.2007298">
    <ele>131.5</ele>
    <time>2013-02-10T18:40:05Z</time>
   </trkpt>
   <trkpt lat="32.7526893" lon="35.2006945">
    <ele>131.5</ele>
    <time>2013-02-10T18:40:06Z</time>
   </trkpt>
   <trkpt lat="32.7526866" lon="35.2006612">
    <ele>131.5</ele>
    <time>2013-02-10T18:40:07Z</time>
   </trkpt>
   <trkpt lat="32.7526736" lon="35.2006266">
    <ele>131.2</ele>
    <time>2013-02-10T18:40:08Z</time>
   </trkpt>
   <trkpt lat="32.7526570" lon="35.2005907">
    <ele>130.9</ele>
    <time>2013-02-10T18:40:09Z</time>
   </trkpt>
   <trkpt lat="32.7526352" lon="35.2005539">
    <ele>130.5</ele>
    <time>2013-02-10T18:40:10Z</time>
   </trkpt>
   <trkpt lat="32.7526091" lon="35.2005115">
    <ele>130.1</ele>
    <time>2013-02-10T18:40:11Z</time>
   </trkpt>
   <trkpt lat="32.7526029" lon="35.2004701">
    <ele>130.0</ele>
    <time>2013-02-10T18:40:12Z</time>
   </trkpt>
   <trkpt lat="32.7525960" lon="35.2004256">
    <ele>129.8</ele>
    <time>2013-02-10T18:40:13Z</time>
   </trkpt>
   <trkpt lat="32.7525921" lon="35.2003808">
    <ele>129.8</ele>
    <time>2013-02-10T18:40:14Z</time>
   </trkpt>
   <trkpt lat="32.7525887" lon="35.2003359">
    <ele>129.7</ele>
    <time>2013-02-10T18:40:15Z</time>
   </trkpt>
   <trkpt lat="32.7525868" lon="35.2002898">
    <ele>129.7</ele>
    <time>2013-02-10T18:40:16Z</time>
   </trkpt>
   <trkpt lat="32.7525818" lon="35.2002420">
    <ele>129.6</ele>
    <time>2013-02-10T18:40:17Z</time>
   </trkpt>
   <trkpt lat="32.7525765" lon="35.2001934">
    <ele>129.5</ele>
    <time>2013-02-10T18:40:18Z</time>
   </trkpt>
   <trkpt lat="32.7525678" lon="35.2001446">
    <ele>129.4</ele>
    <time>2013-02-10T18:40:19Z</time>
   </trkpt>
   <trkpt lat="32.7525558" lon="35.2000946">
    <ele>129.2</ele>
    <time>2013-02-10T18:40:20Z</time>
   </trkpt>
   <trkpt lat="32.7525461" lon="35.2000425">
    <ele>129.0</ele>
    <time>2013-02-10T18:40:21Z</time>
   </trkpt>
   <trkpt lat="32.7525423" lon="35.1999908">
    <ele>129.0</ele>
    <time>2013-02-10T18:40:22Z</time>
   </trkpt>
   <trkpt lat="32.7525719" lon="35.1999209">
    <ele>129.5</ele>
    <time>2013-02-10T18:40:23Z</time>
   </trkpt>
   <trkpt lat="32.7525843" lon="35.1998696">
    <ele>129.7</ele>
    <time>2013-02-10T18:40:24Z</time>
   </trkpt>
   <trkpt lat="32.7525944" lon="35.1998087">
    <ele>129.9</ele>
    <time>2013-02-10T18:40:25Z</time>
   </trkpt>
   <trkpt lat="32.7526043" lon="35.1997515">
    <ele>130.1</ele>
    <time>2013-02-10T18:40:26Z</time>
   </trkpt>
   <trkpt lat="32.7526229" lon="35.1996985">
    <ele>130.4</ele>
    <time>2013-02-10T18:40:27Z</time>
   </trkpt>
   <trkpt lat="32.7526252" lon="35.1996488">
    <ele>130.4</ele>
    <time>2013-02-10T18:40:28Z</time>
   </trkpt>
   <trkpt lat="32.7526260" lon="35.1996002">
    <ele>130.5</ele>
    <time>2013-02-10T18:40:29Z</time>
   </trkpt>
   <trkpt lat="32.7526211" lon="35.1995505">
    <ele>130.3</ele>
    <time>2013-02-10T18:40:30Z</time>
   </trkpt>
   <trkpt lat="32.7526194" lon="35.1995016">
    <ele>130.1</ele>
    <time>2013-02-10T18:40:31Z</time>
   </trkpt>
   <trkpt lat="32.7525994" lon="35.1994296">
    <ele>129.6</ele>
    <time>2013-02-10T18:40:32Z</time>
   </trkpt>
   <trkpt lat="32.7525845" lon="35.1993832">
    <ele>129.3</ele>
    <time>2013-02-10T18:40:33Z</time>
   </trkpt>
   <trkpt lat="32.7525829" lon="35.1993413">
    <ele>129.2</ele>
    <time>2013-02-10T18:40:34Z</time>
   </trkpt>
   <trkpt lat="32.7525677" lon="35.1992871">
    <ele>128.8</ele>
    <time>2013-02-10T18:40:35Z</time>
   </trkpt>
   <trkpt lat="32.7525697" lon="35.1992232">
    <ele>128.7</ele>
    <time>2013-02-10T18:40:36Z</time>
   </trkpt>
   <trkpt lat="32.7525731" lon="35.1991763">
    <ele>128.6</ele>
    <time>2013-02-10T18:40:37Z</time>
   </trkpt>
   <trkpt lat="32.7525651" lon="35.1990764">
    <ele>128.2</ele>
    <time>2013-02-10T18:40:39Z</time>
   </trkpt>
   <trkpt lat="32.7525725" lon="35.1990248">
    <ele>128.2</ele>
    <time>2013-02-10T18:40:40Z</time>
   </trkpt>
   <trkpt lat="32.7525657" lon="35.1989785">
    <ele>128.0</ele>
    <time>2013-02-10T18:40:41Z</time>
   </trkpt>
   <trkpt lat="32.7525761" lon="35.1989274">
    <ele>128.0</ele>
    <time>2013-02-10T18:40:42Z</time>
   </trkpt>
   <trkpt lat="32.7525789" lon="35.1988744">
    <ele>127.9</ele>
    <time>2013-02-10T18:40:43Z</time>
   </trkpt>
   <trkpt lat="32.7525891" lon="35.1988225">
    <ele>127.9</ele>
    <time>2013-02-10T18:40:44Z</time>
   </trkpt>
   <trkpt lat="32.7525838" lon="35.1987737">
    <ele>127.7</ele>
    <time>2013-02-10T18:40:45Z</time>
   </trkpt>
   <trkpt lat="32.7525864" lon="35.1987213">
    <ele>127.6</ele>
    <time>2013-02-10T18:40:46Z</time>
   </trkpt>
   <trkpt lat="32.7525880" lon="35.1986826">
    <ele>127.5</ele>
    <time>2013-02-10T18:40:47Z</time>
   </trkpt>
   <trkpt lat="32.7525846" lon="35.1986487">
    <ele>127.4</ele>
    <time>2013-02-10T18:40:48Z</time>
   </trkpt>
   <trkpt lat="32.7525926" lon="35.1985828">
    <ele>127.4</ele>
    <time>2013-02-10T18:40:49Z</time>
   </trkpt>
   <trkpt lat="32.7525979" lon="35.1985257">
    <ele>127.4</ele>
    <time>2013-02-10T18:40:50Z</time>
   </trkpt>
   <trkpt lat="32.7526034" lon="35.1984696">
    <ele>127.3</ele>
    <time>2013-02-10T18:40:51Z</time>
   </trkpt>
   <trkpt lat="32.7526099" lon="35.1984109">
    <ele>127.3</ele>
    <time>2013-02-10T18:40:52Z</time>
   </trkpt>
   <trkpt lat="32.7526363" lon="35.1983689">
    <ele>127.5</ele>
    <time>2013-02-10T18:40:53Z</time>
   </trkpt>
   <trkpt lat="32.7526523" lon="35.1983258">
    <ele>127.7</ele>
    <time>2013-02-10T18:40:54Z</time>
   </trkpt>
   <trkpt lat="32.7526652" lon="35.1982878">
    <ele>127.7</ele>
    <time>2013-02-10T18:40:55Z</time>
   </trkpt>
   <trkpt lat="32.7526970" lon="35.1982268">
    <ele>128.0</ele>
    <time>2013-02-10T18:40:56Z</time>
   </trkpt>
   <trkpt lat="32.7527140" lon="35.1981911">
    <ele>128.1</ele>
    <time>2013-02-10T18:40:57Z</time>
   </trkpt>
   <trkpt lat="32.7527168" lon="35.1981548">
    <ele>128.1</ele>
    <time>2013-02-10T18:40:58Z</time>
   </trkpt>
   <trkpt lat="32.7527280" lon="35.1981133">
    <ele>128.2</ele>
    <time>2013-02-10T18:40:59Z</time>
   </trkpt>
   <trkpt lat="32.7527391" lon="35.1980805">
    <ele>128.2</ele>
    <time>2013-02-10T18:41:00Z</time>
   </trkpt>
   <trkpt lat="32.7527348" lon="35.1980347">
    <ele>128.1</ele>
    <time>2013-02-10T18:41:01Z</time>
   </trkpt>
   <trkpt lat="32.7527430" lon="35.1980005">
    <ele>128.1</ele>
    <time>2013-02-10T18:41:02Z</time>
   </trkpt>
   <trkpt lat="32.7527492" lon="35.1979623">
    <ele>128.1</ele>
    <time>2013-02-10T18:41:03Z</time>
   </trkpt>
   <trkpt lat="32.7527540" lon="35.1979181">
    <ele>128.1</ele>
    <time>2013-02-10T18:41:04Z</time>
   </trkpt>
   <trkpt lat="32.7527584" lon="35.1978715">
    <ele>127.9</ele>
    <time>2013-02-10T18:41:05Z</time>
   </trkpt>
   <trkpt lat="32.7527645" lon="35.1978232">
    <ele>127.8</ele>
    <time>2013-02-10T18:41:06Z</time>
   </trkpt>
   <trkpt lat="32.7527733" lon="35.1977747">
    <ele>127.7</ele>
    <time>2013-02-10T18:41:07Z</time>
   </trkpt>
   <trkpt lat="32.7527822" lon="35.1977254">
    <ele>127.6</ele>
    <time>2013-02-10T18:41:08Z</time>
   </trkpt>
   <trkpt lat="32.7527946" lon="35.1976594">
    <ele>127.5</ele>
    <time>2013-02-10T18:41:09Z</time>
   </trkpt>
   <trkpt lat="32.7528130" lon="35.1976126">
    <ele>127.5</ele>
    <time>2013-02-10T18:41:10Z</time>
   </trkpt>
   <trkpt lat="32.7528383" lon="35.1975628">
    <ele>127.5</ele>
    <time>2013-02-10T18:41:11Z</time>
   </trkpt>
   <trkpt lat="32.7528652" lon="35.1975232">
    <ele>127.6</ele>
    <time>2013-02-10T18:41:12Z</time>
   </trkpt>
   <trkpt lat="32.7528971" lon="35.1974819">
    <ele>127.7</ele>
    <time>2013-02-10T18:41:13Z</time>
   </trkpt>
   <trkpt lat="32.7529298" lon="35.1974436">
    <ele>127.8</ele>
    <time>2013-02-10T18:41:14Z</time>
   </trkpt>
   <trkpt lat="32.7529594" lon="35.1974022">
    <ele>127.8</ele>
    <time>2013-02-10T18:41:15Z</time>
   </trkpt>
   <trkpt lat="32.7529852" lon="35.1973724">
    <ele>127.9</ele>
    <time>2013-02-10T18:41:16Z</time>
   </trkpt>
   <trkpt lat="32.7530203" lon="35.1973396">
    <ele>127.9</ele>
    <time>2013-02-10T18:41:17Z</time>
   </trkpt>
   <trkpt lat="32.7530496" lon="35.1973089">
    <ele>127.9</ele>
    <time>2013-02-10T18:41:18Z</time>
   </trkpt>
   <trkpt lat="32.7530875" lon="35.1972933">
    <ele>128.1</ele>
    <time>2013-02-10T18:41:19Z</time>
   </trkpt>
   <trkpt lat="32.7531253" lon="35.1972716">
    <ele>128.2</ele>
    <time>2013-02-10T18:41:20Z</time>
   </trkpt>
   <trkpt lat="32.7531527" lon="35.1972521">
    <ele>128.2</ele>
    <time>2013-02-10T18:41:21Z</time>
   </trkpt>
   <trkpt lat="32.7531786" lon="35.1972287">
    <ele>128.2</ele>
    <time>2013-02-10T18:41:22Z</time>
   </trkpt>
   <trkpt lat="32.7532028" lon="35.1972129">
    <ele>128.3</ele>
    <time>2013-02-10T18:41:23Z</time>
   </trkpt>
   <trkpt lat="32.7532525" lon="35.1971936">
    <ele>128.4</ele>
    <time>2013-02-10T18:41:25Z</time>
   </trkpt>
   <trkpt lat="32.7532792" lon="35.1971789">
    <ele>128.4</ele>
    <time>2013-02-10T18:41:26Z</time>
   </trkpt>
   <trkpt lat="32.7533053" lon="35.1971616">
    <ele>128.5</ele>
    <time>2013-02-10T18:41:27Z</time>
   </trkpt>
   <trkpt lat="32.7533327" lon="35.1971404">
    <ele>128.4</ele>
    <time>2013-02-10T18:41:28Z</time>
   </trkpt>
   <trkpt lat="32.7533607" lon="35.1971163">
    <ele>128.4</ele>
    <time>2013-02-10T18:41:29Z</time>
   </trkpt>
   <trkpt lat="32.7533858" lon="35.1970886">
    <ele>128.3</ele>
    <time>2013-02-10T18:41:30Z</time>
   </trkpt>
   <trkpt lat="32.7534112" lon="35.1970588">
    <ele>128.2</ele>
    <time>2013-02-10T18:41:31Z</time>
   </trkpt>
   <trkpt lat="32.7534348" lon="35.1970278">
    <ele>128.1</ele>
    <time>2013-02-10T18:41:32Z</time>
   </trkpt>
   <trkpt lat="32.7534572" lon="35.1969953">
    <ele>127.9</ele>
    <time>2013-02-10T18:41:33Z</time>
   </trkpt>
   <trkpt lat="32.7534803" lon="35.1969695">
    <ele>127.8</ele>
    <time>2013-02-10T18:41:34Z</time>
   </trkpt>
   <trkpt lat="32.7535074" lon="35.1969528">
    <ele>127.8</ele>
    <time>2013-02-10T18:41:35Z</time>
   </trkpt>
   <trkpt lat="32.7535385" lon="35.1969466">
    <ele>127.9</ele>
    <time>2013-02-10T18:41:36Z</time>
   </trkpt>
   <trkpt lat="32.7535691" lon="35.1969459">
    <ele>128.0</ele>
    <time>2013-02-10T18:41:37Z</time>
   </trkpt>
   <trkpt lat="32.7536025" lon="35.1969511">
    <ele>128.2</ele>
    <time>2013-02-10T18:41:38Z</time>
   </trkpt>
   <trkpt lat="32.7536342" lon="35.1969539">
    <ele>128.3</ele>
    <time>2013-02-10T18:41:39Z</time>
   </trkpt>
   <trkpt lat="32.7536650" lon="35.1969552">
    <ele>128.4</ele>
    <time>2013-02-10T18:41:40Z</time>
   </trkpt>
   <trkpt lat="32.7536946" lon="35.1969521">
    <ele>128.5</ele>
    <time>2013-02-10T18:41:41Z</time>
   </trkpt>
   <trkpt lat="32.7537238" lon="35.1969493">
    <ele>128.6</ele>
    <time>2013-02-10T18:41:42Z</time>
   </trkpt>
   <trkpt lat="32.7537531" lon="35.1969500">
    <ele>128.7</ele>
    <time>2013-02-10T18:41:43Z</time>
   </trkpt>
   <trkpt lat="32.7537814" lon="35.1969532">
    <ele>128.7</ele>
    <time>2013-02-10T18:41:44Z</time>
   </trkpt>
   <trkpt lat="32.7538101" lon="35.1969586">
    <ele>128.8</ele>
    <time>2013-02-10T18:41:45Z</time>
   </trkpt>
   <trkpt lat="32.7538432" lon="35.1969669">
    <ele>128.9</ele>
    <time>2013-02-10T18:41:46Z</time>
   </trkpt>
   <trkpt lat="32.7538777" lon="35.1969753">
    <ele>128.9</ele>
    <time>2013-02-10T18:41:47Z</time>
   </trkpt>
   <trkpt lat="32.7539144" lon="35.1969833">
    <ele>129.0</ele>
    <time>2013-02-10T18:41:48Z</time>
   </trkpt>
   <trkpt lat="32.7539521" lon="35.1969897">
    <ele>129.0</ele>
    <time>2013-02-10T18:41:49Z</time>
   </trkpt>
   <trkpt lat="32.7539899" lon="35.1969940">
    <ele>129.1</ele>
    <time>2013-02-10T18:41:50Z</time>
   </trkpt>
   <trkpt lat="32.7540287" lon="35.1970039">
    <ele>129.2</ele>
    <time>2013-02-10T18:41:51Z</time>
   </trkpt>
   <trkpt lat="32.7540730" lon="35.1970393">
    <ele>129.5</ele>
    <time>2013-02-10T18:41:52Z</time>
   </trkpt>
   <trkpt lat="32.7541085" lon="35.1970658">
    <ele>129.8</ele>
    <time>2013-02-10T18:41:53Z</time>
   </trkpt>
   <trkpt lat="32.7541422" lon="35.1971168">
    <ele>130.4</ele>
    <time>2013-02-10T18:41:55Z</time>
   </trkpt>
   <trkpt lat="32.7541674" lon="35.1971308">
    <ele>130.6</ele>
    <time>2013-02-10T18:41:57Z</time>
   </trkpt>
   <trkpt lat="32.7541981" lon="35.1971376">
    <ele>130.7</ele>
    <time>2013-02-10T18:41:58Z</time>
   </trkpt>
   <trkpt lat="32.7542518" lon="35.1971431">
    <ele>130.8</ele>
    <time>2013-02-10T18:42:00Z</time>
   </trkpt>
   <trkpt lat="32.7542755" lon="35.1971604">
    <ele>131.1</ele>
    <time>2013-02-10T18:42:01Z</time>
   </trkpt>
   <trkpt lat="32.7543194" lon="35.1971696">
    <ele>131.2</ele>
    <time>2013-02-10T18:42:03Z</time>
   </trkpt>
   <trkpt lat="32.7543664" lon="35.1971911">
    <ele>131.5</ele>
    <time>2013-02-10T18:42:05Z</time>
   </trkpt>
   <trkpt lat="32.7544084" lon="35.1972335">
    <ele>132.2</ele>
    <time>2013-02-10T18:42:07Z</time>
   </trkpt>
   <trkpt lat="32.7544268" lon="35.1972618">
    <ele>132.6</ele>
    <time>2013-02-10T18:42:08Z</time>
   </trkpt>
   <trkpt lat="32.7544436" lon="35.1972894">
    <ele>133.0</ele>
    <time>2013-02-10T18:42:09Z</time>
   </trkpt>
   <trkpt lat="32.7544609" lon="35.1973162">
    <ele>133.5</ele>
    <time>2013-02-10T18:42:10Z</time>
   </trkpt>
   <trkpt lat="32.7544777" lon="35.1973428">
    <ele>133.9</ele>
    <time>2013-02-10T18:42:11Z</time>
   </trkpt>
   <trkpt lat="32.7544946" lon="35.1973699">
    <ele>134.3</ele>
    <time>2013-02-10T18:42:12Z</time>
   </trkpt>
   <trkpt lat="32.7545142" lon="35.1973959">
    <ele>134.8</ele>
    <time>2013-02-10T18:42:13Z</time>
   </trkpt>
   <trkpt lat="32.7545319" lon="35.1974238">
    <ele>135.2</ele>
    <time>2013-02-10T18:42:14Z</time>
   </trkpt>
   <trkpt lat="32.7545475" lon="35.1974538">
    <ele>135.7</ele>
    <time>2013-02-10T18:42:15Z</time>
   </trkpt>
   <trkpt lat="32.7545603" lon="35.1974838">
    <ele>136.2</ele>
    <time>2013-02-10T18:42:16Z</time>
   </trkpt>
   <trkpt lat="32.7545691" lon="35.1975146">
    <ele>136.7</ele>
    <time>2013-02-10T18:42:17Z</time>
   </trkpt>
   <trkpt lat="32.7545778" lon="35.1975708">
    <ele>137.6</ele>
    <time>2013-02-10T18:42:19Z</time>
   </trkpt>
   <trkpt lat="32.7545794" lon="35.1976265">
    <ele>138.5</ele>
    <time>2013-02-10T18:42:21Z</time>
   </trkpt>
   <trkpt lat="32.7545807" lon="35.1976899">
    <ele>139.5</ele>
    <time>2013-02-10T18:42:23Z</time>
   </trkpt>
   <trkpt lat="32.7545840" lon="35.1977241">
    <ele>140.0</ele>
    <time>2013-02-10T18:42:24Z</time>
   </trkpt>
   <trkpt lat="32.7545933" lon="35.1977844">
    <ele>140.8</ele>
    <time>2013-02-10T18:42:26Z</time>
   </trkpt>
   <trkpt lat="32.7546103" lon="35.1978315">
    <ele>141.3</ele>
    <time>2013-02-10T18:42:28Z</time>
   </trkpt>
   <trkpt lat="32.7546406" lon="35.1978713">
    <ele>141.5</ele>
    <time>2013-02-10T18:42:30Z</time>
   </trkpt>
   <trkpt lat="32.7546612" lon="35.1978926">
    <ele>141.5</ele>
    <time>2013-02-10T18:42:31Z</time>
   </trkpt>
   <trkpt lat="32.7546841" lon="35.1979146">
    <ele>141.5</ele>
    <time>2013-02-10T18:42:32Z</time>
   </trkpt>
   <trkpt lat="32.7547054" lon="35.1979384">
    <ele>141.4</ele>
    <time>2013-02-10T18:42:33Z</time>
   </trkpt>
   <trkpt lat="32.7547258" lon="35.1979665">
    <ele>141.2</ele>
    <time>2013-02-10T18:42:34Z</time>
   </trkpt>
   <trkpt lat="32.7547420" lon="35.1979946">
    <ele>141.1</ele>
    <time>2013-02-10T18:42:35Z</time>
   </trkpt>
   <trkpt lat="32.7547541" lon="35.1980242">
    <ele>141.1</ele>
    <time>2013-02-10T18:42:36Z</time>
   </trkpt>
   <trkpt lat="32.7547642" lon="35.1980543">
    <ele>141.1</ele>
    <time>2013-02-10T18:42:37Z</time>
   </trkpt>
   <trkpt lat="32.7547736" lon="35.1980849">
    <ele>141.2</ele>
    <time>2013-02-10T18:42:38Z</time>
   </trkpt>
   <trkpt lat="32.7547910" lon="35.1981460">
    <ele>141.2</ele>
    <time>2013-02-10T18:42:40Z</time>
   </trkpt>
   <trkpt lat="32.7547995" lon="35.1981775">
    <ele>141.3</ele>
    <time>2013-02-10T18:42:41Z</time>
   </trkpt>
   <trkpt lat="32.7548059" lon="35.1982108">
    <ele>141.4</ele>
    <time>2013-02-10T18:42:42Z</time>
   </trkpt>
   <trkpt lat="32.7548123" lon="35.1982455">
    <ele>141.5</ele>
    <time>2013-02-10T18:42:43Z</time>
   </trkpt>
   <trkpt lat="32.7548188" lon="35.1982823">
    <ele>141.6</ele>
    <time>2013-02-10T18:42:44Z</time>
   </trkpt>
   <trkpt lat="32.7548255" lon="35.1983215">
    <ele>141.7</ele>
    <time>2013-02-10T18:42:45Z</time>
   </trkpt>
   <trkpt lat="32.7548334" lon="35.1983650">
    <ele>141.9</ele>
    <time>2013-02-10T18:42:46Z</time>
   </trkpt>
   <trkpt lat="32.7548414" lon="35.1984123">
    <ele>142.0</ele>
    <time>2013-02-10T18:42:47Z</time>
   </trkpt>
   <trkpt lat="32.7548631" lon="35.1984729">
    <ele>142.1</ele>
    <time>2013-02-10T18:42:48Z</time>
   </trkpt>
   <trkpt lat="32.7548868" lon="35.1985219">
    <ele>142.1</ele>
    <time>2013-02-10T18:42:49Z</time>
   </trkpt>
   <trkpt lat="32.7549025" lon="35.1985890">
    <ele>142.2</ele>
    <time>2013-02-10T18:42:50Z</time>
   </trkpt>
   <trkpt lat="32.7549226" lon="35.1986586">
    <ele>142.4</ele>
    <time>2013-02-10T18:42:51Z</time>
   </trkpt>
   <trkpt lat="32.7549250" lon="35.1987216">
    <ele>142.7</ele>
    <time>2013-02-10T18:42:52Z</time>
   </trkpt>
   <trkpt lat="32.7549153" lon="35.1987763">
    <ele>143.1</ele>
    <time>2013-02-10T18:42:53Z</time>
   </trkpt>
   <trkpt lat="32.7549138" lon="35.1988304">
    <ele>143.2</ele>
    <time>2013-02-10T18:42:54Z</time>
   </trkpt>
   <trkpt lat="32.7549076" lon="35.1988732">
    <ele>143.4</ele>
    <time>2013-02-10T18:42:55Z</time>
   </trkpt>
   <trkpt lat="32.7549176" lon="35.1989419">
    <ele>143.5</ele>
    <time>2013-02-10T18:42:56Z</time>
   </trkpt>
   <trkpt lat="32.7549202" lon="35.1989912">
    <ele>143.6</ele>
    <time>2013-02-10T18:42:57Z</time>
   </trkpt>
   <trkpt lat="32.7549231" lon="35.1990362">
    <ele>143.7</ele>
    <time>2013-02-10T18:42:58Z</time>
   </trkpt>
   <trkpt lat="32.7549282" lon="35.1990804">
    <ele>143.7</ele>
    <time>2013-02-10T18:42:59Z</time>
   </trkpt>
   <trkpt lat="32.7549433" lon="35.1991335">
    <ele>143.7</ele>
    <time>2013-02-10T18:43:00Z</time>
   </trkpt>
   <trkpt lat="32.7549442" lon="35.1991842">
    <ele>143.8</ele>
    <time>2013-02-10T18:43:01Z</time>
   </trkpt>
   <trkpt lat="32.7549445" lon="35.1992495">
    <ele>143.9</ele>
    <time>2013-02-10T18:43:02Z</time>
   </trkpt>
   <trkpt lat="32.7549439" lon="35.1993159">
    <ele>144.1</ele>
    <time>2013-02-10T18:43:03Z</time>
   </trkpt>
   <trkpt lat="32.7549516" lon="35.1993752">
    <ele>144.2</ele>
    <time>2013-02-10T18:43:04Z</time>
   </trkpt>
   <trkpt lat="32.7549568" lon="35.1994324">
    <ele>144.2</ele>
    <time>2013-02-10T18:43:05Z</time>
   </trkpt>
   <trkpt lat="32.7549593" lon="35.1994774">
    <ele>144.3</ele>
    <time>2013-02-10T18:43:06Z</time>
   </trkpt>
   <trkpt lat="32.7549624" lon="35.1995348">
    <ele>144.4</ele>
    <time>2013-02-10T18:43:07Z</time>
   </trkpt>
   <trkpt lat="32.7549569" lon="35.1995820">
    <ele>144.6</ele>
    <time>2013-02-10T18:43:08Z</time>
   </trkpt>
   <trkpt lat="32.7549549" lon="35.1996221">
    <ele>144.9</ele>
    <time>2013-02-10T18:43:09Z</time>
   </trkpt>
   <trkpt lat="32.7549684" lon="35.1996628">
    <ele>144.9</ele>
    <time>2013-02-10T18:43:10Z</time>
   </trkpt>
   <trkpt lat="32.7549690" lon="35.1997242">
    <ele>145.2</ele>
    <time>2013-02-10T18:43:12Z</time>
   </trkpt>
   <trkpt lat="32.7549785" lon="35.1997756">
    <ele>145.3</ele>
    <time>2013-02-10T18:43:14Z</time>
   </trkpt>
   <trkpt lat="32.7549876" lon="35.1998062">
    <ele>145.4</ele>
    <time>2013-02-10T18:43:15Z</time>
   </trkpt>
   <trkpt lat="32.7550127" lon="35.1998576">
    <ele>145.3</ele>
    <time>2013-02-10T18:43:17Z</time>
   </trkpt>
   <trkpt lat="32.7550260" lon="35.1999264">
    <ele>145.5</ele>
    <time>2013-02-10T18:43:19Z</time>
   </trkpt>
   <trkpt lat="32.7550368" lon="35.1999578">
    <ele>145.6</ele>
    <time>2013-02-10T18:43:20Z</time>
   </trkpt>
   <trkpt lat="32.7550466" lon="35.1999917">
    <ele>145.6</ele>
    <time>2013-02-10T18:43:21Z</time>
   </trkpt>
   <trkpt lat="32.7550562" lon="35.2000283">
    <ele>145.7</ele>
    <time>2013-02-10T18:43:22Z</time>
   </trkpt>
   <trkpt lat="32.7550623" lon="35.2000639">
    <ele>145.8</ele>
    <time>2013-02-10T18:43:23Z</time>
   </trkpt>
   <trkpt lat="32.7550675" lon="35.2000986">
    <ele>146.0</ele>
    <time>2013-02-10T18:43:24Z</time>
   </trkpt>
   <trkpt lat="32.7550716" lon="35.2001356">
    <ele>146.1</ele>
    <time>2013-02-10T18:43:25Z</time>
   </trkpt>
   <trkpt lat="32.7550705" lon="35.2001720">
    <ele>146.3</ele>
    <time>2013-02-10T18:43:26Z</time>
   </trkpt>
   <trkpt lat="32.7550713" lon="35.2002085">
    <ele>146.5</ele>
    <time>2013-02-10T18:43:27Z</time>
   </trkpt>
   <trkpt lat="32.7550706" lon="35.2002449">
    <ele>146.8</ele>
    <time>2013-02-10T18:43:28Z</time>
   </trkpt>
   <trkpt lat="32.7550745" lon="35.2002786">
    <ele>146.9</ele>
    <time>2013-02-10T18:43:29Z</time>
   </trkpt>
   <trkpt lat="32.7550723" lon="35.2003144">
    <ele>147.1</ele>
    <time>2013-02-10T18:43:30Z</time>
   </trkpt>
   <trkpt lat="32.7550761" lon="35.2003531">
    <ele>147.3</ele>
    <time>2013-02-10T18:43:31Z</time>
   </trkpt>
   <trkpt lat="32.7550785" lon="35.2003914">
    <ele>147.5</ele>
    <time>2013-02-10T18:43:32Z</time>
   </trkpt>
   <trkpt lat="32.7550813" lon="35.2004273">
    <ele>147.6</ele>
    <time>2013-02-10T18:43:33Z</time>
   </trkpt>
   <trkpt lat="32.7550836" lon="35.2004600">
    <ele>147.7</ele>
    <time>2013-02-10T18:43:34Z</time>
   </trkpt>
   <trkpt lat="32.7550833" lon="35.2005176">
    <ele>147.7</ele>
    <time>2013-02-10T18:43:36Z</time>
   </trkpt>
   <trkpt lat="32.7550770" lon="35.2005637">
    <ele>147.9</ele>
    <time>2013-02-10T18:43:38Z</time>
   </trkpt>
   <trkpt lat="32.7550780" lon="35.2006038">
    <ele>147.9</ele>
    <time>2013-02-10T18:43:40Z</time>
   </trkpt>
   <trkpt lat="32.7550776" lon="35.2006365">
    <ele>148.0</ele>
    <time>2013-02-10T18:43:42Z</time>
   </trkpt>
   <trkpt lat="32.7550755" lon="35.2006791">
    <ele>148.1</ele>
    <time>2013-02-10T18:43:44Z</time>
   </trkpt>
   <trkpt lat="32.7550709" lon="35.2007378">
    <ele>148.2</ele>
    <time>2013-02-10T18:43:46Z</time>
   </trkpt>
   <trkpt lat="32.7550667" lon="35.2007705">
    <ele>148.3</ele>
    <time>2013-02-10T18:43:47Z</time>
   </trkpt>
   <trkpt lat="32.7550607" lon="35.2008063">
    <ele>148.4</ele>
    <time>2013-02-10T18:43:48Z</time>
   </trkpt>
   <trkpt lat="32.7550556" lon="35.2008397">
    <ele>148.5</ele>
    <time>2013-02-10T18:43:49Z</time>
   </trkpt>
   <trkpt lat="32.7550428" lon="35.2008943">
    <ele>148.7</ele>
    <time>2013-02-10T18:43:51Z</time>
   </trkpt>
   <trkpt lat="32.7550320" lon="35.2009387">
    <ele>148.8</ele>
    <time>2013-02-10T18:43:53Z</time>
   </trkpt>
   <trkpt lat="32.7550340" lon="35.2009877">
    <ele>148.9</ele>
    <time>2013-02-10T18:43:55Z</time>
   </trkpt>
   <trkpt lat="32.7550387" lon="35.2010195">
    <ele>148.9</ele>
    <time>2013-02-10T18:43:56Z</time>
   </trkpt>
   <trkpt lat="32.7550437" lon="35.2010562">
    <ele>148.9</ele>
    <time>2013-02-10T18:43:57Z</time>
   </trkpt>
   <trkpt lat="32.7550482" lon="35.2010953">
    <ele>148.9</ele>
    <time>2013-02-10T18:43:58Z</time>
   </trkpt>
   <trkpt lat="32.7550487" lon="35.2011371">
    <ele>148.9</ele>
    <time>2013-02-10T18:43:59Z</time>
   </trkpt>
   <trkpt lat="32.7550460" lon="35.2011818">
    <ele>149.0</ele>
    <time>2013-02-10T18:44:00Z</time>
   </trkpt>
   <trkpt lat="32.7550400" lon="35.2012296">
    <ele>149.1</ele>
    <time>2013-02-10T18:44:01Z</time>
   </trkpt>
   <trkpt lat="32.7550316" lon="35.2012792">
    <ele>149.2</ele>
    <time>2013-02-10T18:44:02Z</time>
   </trkpt>
   <trkpt lat="32.7550247" lon="35.2013304">
    <ele>149.2</ele>
    <time>2013-02-10T18:44:03Z</time>
   </trkpt>
   <trkpt lat="32.7550203" lon="35.2013790">
    <ele>149.2</ele>
    <time>2013-02-10T18:44:04Z</time>
   </trkpt>
   <trkpt lat="32.7550193" lon="35.2014261">
    <ele>149.1</ele>
    <time>2013-02-10T18:44:05Z</time>
   </trkpt>
   <trkpt lat="32.7550223" lon="35.2014697">
    <ele>149.1</ele>
    <time>2013-02-10T18:44:06Z</time>
   </trkpt>
   <trkpt lat="32.7550259" lon="35.2015124">
    <ele>149.0</ele>
    <time>2013-02-10T18:44:07Z</time>
   </trkpt>
   <trkpt lat="32.7550304" lon="35.2015546">
    <ele>148.9</ele>
    <time>2013-02-10T18:44:08Z</time>
   </trkpt>
   <trkpt lat="32.7550345" lon="35.2015997">
    <ele>148.9</ele>
    <time>2013-02-10T18:44:09Z</time>
   </trkpt>
   <trkpt lat="32.7550385" lon="35.2016444">
    <ele>148.8</ele>
    <time>2013-02-10T18:44:10Z</time>
   </trkpt>
   <trkpt lat="32.7550370" lon="35.2016920">
    <ele>148.8</ele>
    <time>2013-02-10T18:44:11Z</time>
   </trkpt>
   <trkpt lat="32.7550322" lon="35.2017406">
    <ele>148.7</ele>
    <time>2013-02-10T18:44:12Z</time>
   </trkpt>
   <trkpt lat="32.7550193" lon="35.2017849">
    <ele>148.8</ele>
    <time>2013-02-10T18:44:13Z</time>
   </trkpt>
   <trkpt lat="32.7550022" lon="35.2018253">
    <ele>148.8</ele>
    <time>2013-02-10T18:44:14Z</time>
   </trkpt>
   <trkpt lat="32.7549807" lon="35.2018619">
    <ele>148.9</ele>
    <time>2013-02-10T18:44:15Z</time>
   </trkpt>
   <trkpt lat="32.7549628" lon="35.2019011">
    <ele>148.9</ele>
    <time>2013-02-10T18:44:16Z</time>
   </trkpt>
   <trkpt lat="32.7549492" lon="35.2019424">
    <ele>148.9</ele>
    <time>2013-02-10T18:44:17Z</time>
   </trkpt>
   <trkpt lat="32.7549456" lon="35.2019870">
    <ele>148.8</ele>
    <time>2013-02-10T18:44:18Z</time>
   </trkpt>
   <trkpt lat="32.7549474" lon="35.2020328">
    <ele>148.8</ele>
    <time>2013-02-10T18:44:19Z</time>
   </trkpt>
   <trkpt lat="32.7549565" lon="35.2020777">
    <ele>148.7</ele>
    <time>2013-02-10T18:44:20Z</time>
   </trkpt>
   <trkpt lat="32.7549699" lon="35.2021175">
    <ele>148.4</ele>
    <time>2013-02-10T18:44:21Z</time>
   </trkpt>
   <trkpt lat="32.7549861" lon="35.2021487">
    <ele>148.2</ele>
    <time>2013-02-10T18:44:22Z</time>
   </trkpt>
   <trkpt lat="32.7550041" lon="35.2021741">
    <ele>148.1</ele>
    <time>2013-02-10T18:44:23Z</time>
   </trkpt>
   <trkpt lat="32.7550264" lon="35.2021961">
    <ele>147.9</ele>
    <time>2013-02-10T18:44:24Z</time>
   </trkpt>
   <trkpt lat="32.7550533" lon="35.2022181">
    <ele>147.7</ele>
    <time>2013-02-10T18:44:25Z</time>
   </trkpt>
   <trkpt lat="32.7551024" lon="35.2022499">
    <ele>147.4</ele>
    <time>2013-02-10T18:44:26Z</time>
   </trkpt>
   <trkpt lat="32.7551322" lon="35.2022910">
    <ele>147.1</ele>
    <time>2013-02-10T18:44:27Z</time>
   </trkpt>
   <trkpt lat="32.7551598" lon="35.2023384">
    <ele>146.8</ele>
    <time>2013-02-10T18:44:28Z</time>
   </trkpt>
   <trkpt lat="32.7551763" lon="35.2023936">
    <ele>146.5</ele>
    <time>2013-02-10T18:44:29Z</time>
   </trkpt>
   <trkpt lat="32.7551808" lon="35.2024519">
    <ele>146.3</ele>
    <time>2013-02-10T18:44:30Z</time>
   </trkpt>
   <trkpt lat="32.7551792" lon="35.2025115">
    <ele>146.0</ele>
    <time>2013-02-10T18:44:31Z</time>
   </trkpt>
   <trkpt lat="32.7551865" lon="35.2025676">
    <ele>145.8</ele>
    <time>2013-02-10T18:44:32Z</time>
   </trkpt>
   <trkpt lat="32.7551995" lon="35.2026285">
    <ele>145.5</ele>
    <time>2013-02-10T18:44:33Z</time>
   </trkpt>
   <trkpt lat="32.7552080" lon="35.2026793">
    <ele>145.2</ele>
    <time>2013-02-10T18:44:34Z</time>
   </trkpt>
   <trkpt lat="32.7552344" lon="35.2027287">
    <ele>145.0</ele>
    <time>2013-02-10T18:44:35Z</time>
   </trkpt>
   <trkpt lat="32.7552518" lon="35.2027771">
    <ele>144.8</ele>
    <time>2013-02-10T18:44:36Z</time>
   </trkpt>
   <trkpt lat="32.7552753" lon="35.2028162">
    <ele>144.6</ele>
    <time>2013-02-10T18:44:37Z</time>
   </trkpt>
   <trkpt lat="32.7552884" lon="35.2028539">
    <ele>144.4</ele>
    <time>2013-02-10T18:44:38Z</time>
   </trkpt>
   <trkpt lat="32.7553022" lon="35.2028924">
    <ele>144.2</ele>
    <time>2013-02-10T18:44:39Z</time>
   </trkpt>
   <trkpt lat="32.7553131" lon="35.2029226">
    <ele>144.1</ele>
    <time>2013-02-10T18:44:42Z</time>
   </trkpt>
   <trkpt lat="32.7553216" lon="35.2029530">
    <ele>144.3</ele>
    <time>2013-02-10T18:45:28Z</time>
   </trkpt>
   <trkpt lat="32.7553061" lon="35.2029819">
    <ele>144.4</ele>
    <time>2013-02-10T18:45:36Z</time>
   </trkpt>
   <trkpt lat="32.7552903" lon="35.2030081">
    <ele>144.5</ele>
    <time>2013-02-10T18:46:10Z</time>
   </trkpt>
   <trkpt lat="32.7553028" lon="35.2029718">
    <ele>144.4</ele>
    <time>2013-02-10T18:49:30Z</time>
   </trkpt>
   <trkpt lat="32.7552784" lon="35.2029571">
    <ele>144.3</ele>
    <time>2013-02-10T18:49:38Z</time>
   </trkpt>
   <trkpt lat="32.7553066" lon="35.2029469">
    <ele>144.3</ele>
    <time>2013-02-10T18:51:42Z</time>
   </trkpt>
   <trkpt lat="32.7553539" lon="35.2029437">
    <ele>144.2</ele>
    <time>2013-02-10T18:51:44Z</time>
   </trkpt>
   <trkpt lat="32.7553865" lon="35.2029438">
    <ele>144.2</ele>
    <time>2013-02-10T18:51:45Z</time>
   </trkpt>
   <trkpt lat="32.7554261" lon="35.2029461">
    <ele>144.0</ele>
    <time>2013-02-10T18:51:46Z</time>
   </trkpt>
   <trkpt lat="32.7554704" lon="35.2029492">
    <ele>143.6</ele>
    <time>2013-02-10T18:51:47Z</time>
   </trkpt>
   <trkpt lat="32.7555583" lon="35.2029584">
    <ele>142.7</ele>
    <time>2013-02-10T18:51:48Z</time>
   </trkpt>
   <trkpt lat="32.7556081" lon="35.2029659">
    <ele>142.2</ele>
    <time>2013-02-10T18:51:49Z</time>
   </trkpt>
   <trkpt lat="32.7556615" lon="35.2029637">
    <ele>141.6</ele>
    <time>2013-02-10T18:51:50Z</time>
   </trkpt>
   <trkpt lat="32.7557189" lon="35.2029690">
    <ele>141.0</ele>
    <time>2013-02-10T18:51:51Z</time>
   </trkpt>
   <trkpt lat="32.7557757" lon="35.2029649">
    <ele>140.4</ele>
    <time>2013-02-10T18:51:52Z</time>
   </trkpt>
   <trkpt lat="32.7558394" lon="35.2029645">
    <ele>139.7</ele>
    <time>2013-02-10T18:51:53Z</time>
   </trkpt>
   <trkpt lat="32.7559034" lon="35.2029665">
    <ele>139.1</ele>
    <time>2013-02-10T18:51:54Z</time>
   </trkpt>
   <trkpt lat="32.7559733" lon="35.2029568">
    <ele>138.2</ele>
    <time>2013-02-10T18:51:55Z</time>
   </trkpt>
   <trkpt lat="32.7560399" lon="35.2029483">
    <ele>137.5</ele>
    <time>2013-02-10T18:51:56Z</time>
   </trkpt>
   <trkpt lat="32.7561101" lon="35.2029539">
    <ele>136.8</ele>
    <time>2013-02-10T18:51:57Z</time>
   </trkpt>
   <trkpt lat="32.7561778" lon="35.2029514">
    <ele>136.0</ele>
    <time>2013-02-10T18:51:58Z</time>
   </trkpt>
   <trkpt lat="32.7562588" lon="35.2029415">
    <ele>135.2</ele>
    <time>2013-02-10T18:51:59Z</time>
   </trkpt>
   <trkpt lat="32.7563287" lon="35.2029404">
    <ele>135.3</ele>
    <time>2013-02-10T18:52:00Z</time>
   </trkpt>
   <trkpt lat="32.7563994" lon="35.2029287">
    <ele>135.4</ele>
    <time>2013-02-10T18:52:01Z</time>
   </trkpt>
   <trkpt lat="32.7564756" lon="35.2029023">
    <ele>135.6</ele>
    <time>2013-02-10T18:52:02Z</time>
   </trkpt>
   <trkpt lat="32.7565392" lon="35.2028725">
    <ele>135.8</ele>
    <time>2013-02-10T18:52:03Z</time>
   </trkpt>
   <trkpt lat="32.7566059" lon="35.2028486">
    <ele>136.1</ele>
    <time>2013-02-10T18:52:04Z</time>
   </trkpt>
   <trkpt lat="32.7566589" lon="35.2028250">
    <ele>136.3</ele>
    <time>2013-02-10T18:52:05Z</time>
   </trkpt>
   <trkpt lat="32.7567099" lon="35.2028122">
    <ele>136.5</ele>
    <time>2013-02-10T18:52:06Z</time>
   </trkpt>
   <trkpt lat="32.7567567" lon="35.2027902">
    <ele>136.8</ele>
    <time>2013-02-10T18:52:07Z</time>
   </trkpt>
   <trkpt lat="32.7567985" lon="35.2027654">
    <ele>137.0</ele>
    <time>2013-02-10T18:52:08Z</time>
   </trkpt>
   <trkpt lat="32.7568197" lon="35.2027342">
    <ele>137.3</ele>
    <time>2013-02-10T18:52:10Z</time>
   </trkpt>
   <trkpt lat="32.7568379" lon="35.2027026">
    <ele>137.5</ele>
    <time>2013-02-10T18:52:14Z</time>
   </trkpt>
   <trkpt lat="32.7568502" lon="35.2026719">
    <ele>137.7</ele>
    <time>2013-02-10T18:52:16Z</time>
   </trkpt>
   <trkpt lat="32.7568524" lon="35.2026177">
    <ele>138.0</ele>
    <time>2013-02-10T18:52:18Z</time>
   </trkpt>
   <trkpt lat="32.7568478" lon="35.2025673">
    <ele>138.2</ele>
    <time>2013-02-10T18:52:20Z</time>
   </trkpt>
   <trkpt lat="32.7568517" lon="35.2025086">
    <ele>138.6</ele>
    <time>2013-02-10T18:52:22Z</time>
   </trkpt>
   <trkpt lat="32.7568548" lon="35.2024752">
    <ele>138.8</ele>
    <time>2013-02-10T18:52:23Z</time>
   </trkpt>
   <trkpt lat="32.7568562" lon="35.2024117">
    <ele>139.1</ele>
    <time>2013-02-10T18:52:25Z</time>
   </trkpt>
   <trkpt lat="32.7568542" lon="35.2023531">
    <ele>139.4</ele>
    <time>2013-02-10T18:52:27Z</time>
   </trkpt>
   <trkpt lat="32.7568629" lon="35.2022904">
    <ele>139.8</ele>
    <time>2013-02-10T18:52:29Z</time>
   </trkpt>
   <trkpt lat="32.7568525" lon="35.2022596">
    <ele>139.9</ele>
    <time>2013-02-10T18:52:30Z</time>
   </trkpt>
   <trkpt lat="32.7568480" lon="35.2022272">
    <ele>140.0</ele>
    <time>2013-02-10T18:52:31Z</time>
   </trkpt>
   <trkpt lat="32.7568460" lon="35.2021698">
    <ele>140.3</ele>
    <time>2013-02-10T18:52:33Z</time>
   </trkpt>
   <trkpt lat="32.7568370" lon="35.2021158">
    <ele>140.5</ele>
    <time>2013-02-10T18:52:35Z</time>
   </trkpt>
   <trkpt lat="32.7568301" lon="35.2020790">
    <ele>140.6</ele>
    <time>2013-02-10T18:52:37Z</time>
   </trkpt>
   <trkpt lat="32.7568251" lon="35.2020395">
    <ele>140.6</ele>
    <time>2013-02-10T18:52:39Z</time>
   </trkpt>
   <trkpt lat="32.7568170" lon="35.2019966">
    <ele>140.6</ele>
    <time>2013-02-10T18:52:41Z</time>
   </trkpt>
   <trkpt lat="32.7568117" lon="35.2019496">
    <ele>140.6</ele>
    <time>2013-02-10T18:52:43Z</time>
   </trkpt>
   <trkpt lat="32.7567958" lon="35.2019207">
    <ele>140.5</ele>
    <time>2013-02-10T18:52:44Z</time>
   </trkpt>
   <trkpt lat="32.7567768" lon="35.2018611">
    <ele>140.4</ele>
    <time>2013-02-10T18:52:46Z</time>
   </trkpt>
   <trkpt lat="32.7567554" lon="35.2018240">
    <ele>140.2</ele>
    <time>2013-02-10T18:52:47Z</time>
   </trkpt>
   <trkpt lat="32.7567355" lon="35.2017869">
    <ele>140.0</ele>
    <time>2013-02-10T18:52:48Z</time>
   </trkpt>
   <trkpt lat="32.7567191" lon="35.2017507">
    <ele>139.8</ele>
    <time>2013-02-10T18:52:49Z</time>
   </trkpt>
   <trkpt lat="32.7567003" lon="35.2016784">
    <ele>139.7</ele>
    <time>2013-02-10T18:52:51Z</time>
   </trkpt>
   <trkpt lat="32.7566873" lon="35.2016160">
    <ele>139.5</ele>
    <time>2013-02-10T18:52:53Z</time>
   </trkpt>
   <trkpt lat="32.7566869" lon="35.2015834">
    <ele>139.6</ele>
    <time>2013-02-10T18:52:54Z</time>
   </trkpt>
   <trkpt lat="32.7566751" lon="35.2015176">
    <ele>139.5</ele>
    <time>2013-02-10T18:52:56Z</time>
   </trkpt>
   <trkpt lat="32.7566635" lon="35.2014840">
    <ele>139.3</ele>
    <time>2013-02-10T18:52:57Z</time>
   </trkpt>
   <trkpt lat="32.7566572" lon="35.2014369">
    <ele>139.3</ele>
    <time>2013-02-10T18:52:59Z</time>
   </trkpt>
   <trkpt lat="32.7566521" lon="35.2013908">
    <ele>139.2</ele>
    <time>2013-02-10T18:53:01Z</time>
   </trkpt>
   <trkpt lat="32.7566409" lon="35.2013503">
    <ele>139.1</ele>
    <time>2013-02-10T18:53:03Z</time>
   </trkpt>
   <trkpt lat="32.7566294" lon="35.2013173">
    <ele>138.9</ele>
    <time>2013-02-10T18:53:04Z</time>
   </trkpt>
   <trkpt lat="32.7566165" lon="35.2012850">
    <ele>138.7</ele>
    <time>2013-02-10T18:53:05Z</time>
   </trkpt>
   <trkpt lat="32.7565944" lon="35.2012274">
    <ele>138.3</ele>
    <time>2013-02-10T18:53:07Z</time>
   </trkpt>
   <trkpt lat="32.7565945" lon="35.2011749">
    <ele>138.2</ele>
    <time>2013-02-10T18:53:09Z</time>
   </trkpt>
   <trkpt lat="32.7566059" lon="35.2011352">
    <ele>138.3</ele>
    <time>2013-02-10T18:53:12Z</time>
   </trkpt>
   <trkpt lat="32.7566114" lon="35.2010893">
    <ele>138.3</ele>
    <time>2013-02-10T18:53:14Z</time>
   </trkpt>
   <trkpt lat="32.7566201" lon="35.2010349">
    <ele>138.3</ele>
    <time>2013-02-10T18:53:16Z</time>
   </trkpt>
   <trkpt lat="32.7566258" lon="35.2010021">
    <ele>138.3</ele>
    <time>2013-02-10T18:53:17Z</time>
   </trkpt>
   <trkpt lat="32.7566381" lon="35.2009471">
    <ele>138.3</ele>
    <time>2013-02-10T18:53:19Z</time>
   </trkpt>
   <trkpt lat="32.7566494" lon="35.2009006">
    <ele>138.4</ele>
    <time>2013-02-10T18:53:21Z</time>
   </trkpt>
   <trkpt lat="32.7566646" lon="35.2008594">
    <ele>138.5</ele>
    <time>2013-02-10T18:53:23Z</time>
   </trkpt>
   <trkpt lat="32.7566770" lon="35.2008130">
    <ele>138.6</ele>
    <time>2013-02-10T18:53:25Z</time>
   </trkpt>
   <trkpt lat="32.7566785" lon="35.2007469">
    <ele>138.5</ele>
    <time>2013-02-10T18:53:27Z</time>
   </trkpt>
   <trkpt lat="32.7566777" lon="35.2007103">
    <ele>138.4</ele>
    <time>2013-02-10T18:53:28Z</time>
   </trkpt>
   <trkpt lat="32.7566786" lon="35.2006712">
    <ele>138.3</ele>
    <time>2013-02-10T18:53:29Z</time>
   </trkpt>
   <trkpt lat="32.7566827" lon="35.2006381">
    <ele>138.3</ele>
    <time>2013-02-10T18:53:30Z</time>
   </trkpt>
   <trkpt lat="32.7566760" lon="35.2005892">
    <ele>138.1</ele>
    <time>2013-02-10T18:53:31Z</time>
   </trkpt>
   <trkpt lat="32.7566737" lon="35.2005488">
    <ele>137.9</ele>
    <time>2013-02-10T18:53:32Z</time>
   </trkpt>
   <trkpt lat="32.7566729" lon="35.2005149">
    <ele>137.8</ele>
    <time>2013-02-10T18:53:33Z</time>
   </trkpt>
   <trkpt lat="32.7566862" lon="35.2004633">
    <ele>137.9</ele>
    <time>2013-02-10T18:53:35Z</time>
   </trkpt>
   <trkpt lat="32.7567023" lon="35.2004225">
    <ele>138.1</ele>
    <time>2013-02-10T18:53:37Z</time>
   </trkpt>
   <trkpt lat="32.7567138" lon="35.2003850">
    <ele>138.1</ele>
    <time>2013-02-10T18:53:39Z</time>
   </trkpt>
   <trkpt lat="32.7567243" lon="35.2003412">
    <ele>138.2</ele>
    <time>2013-02-10T18:53:41Z</time>
   </trkpt>
   <trkpt lat="32.7567491" lon="35.2003130">
    <ele>138.5</ele>
    <time>2013-02-10T18:53:42Z</time>
   </trkpt>
   <trkpt lat="32.7567659" lon="35.2002710">
    <ele>138.6</ele>
    <time>2013-02-10T18:53:44Z</time>
   </trkpt>
   <trkpt lat="32.7567906" lon="35.2002467">
    <ele>139.0</ele>
    <time>2013-02-10T18:53:45Z</time>
   </trkpt>
   <trkpt lat="32.7568077" lon="35.2002101">
    <ele>139.1</ele>
    <time>2013-02-10T18:53:47Z</time>
   </trkpt>
   <trkpt lat="32.7568314" lon="35.2001743">
    <ele>139.4</ele>
    <time>2013-02-10T18:53:49Z</time>
   </trkpt>
   <trkpt lat="32.7568563" lon="35.2001260">
    <ele>139.7</ele>
    <time>2013-02-10T18:53:51Z</time>
   </trkpt>
   <trkpt lat="32.7568795" lon="35.2001024">
    <ele>140.0</ele>
    <time>2013-02-10T18:53:52Z</time>
   </trkpt>
   <trkpt lat="32.7569036" lon="35.2000745">
    <ele>140.3</ele>
    <time>2013-02-10T18:53:53Z</time>
   </trkpt>
   <trkpt lat="32.7569219" lon="35.2000509">
    <ele>140.5</ele>
    <time>2013-02-10T18:53:54Z</time>
   </trkpt>
   <trkpt lat="32.7569404" lon="35.2000267">
    <ele>140.8</ele>
    <time>2013-02-10T18:53:55Z</time>
   </trkpt>
   <trkpt lat="32.7569820" lon="35.1999910">
    <ele>141.3</ele>
    <time>2013-02-10T18:53:57Z</time>
   </trkpt>
   <trkpt lat="32.7570278" lon="35.1999795">
    <ele>142.1</ele>
    <time>2013-02-10T18:53:59Z</time>
   </trkpt>
   <trkpt lat="32.7570651" lon="35.1999857">
    <ele>142.7</ele>
    <time>2013-02-10T18:54:01Z</time>
   </trkpt>
   <trkpt lat="32.7571037" lon="35.1999816">
    <ele>143.2</ele>
    <time>2013-02-10T18:54:03Z</time>
   </trkpt>
   <trkpt lat="32.7571312" lon="35.1999713">
    <ele>143.5</ele>
    <time>2013-02-10T18:54:09Z</time>
   </trkpt>
   <trkpt lat="32.7571610" lon="35.1999762">
    <ele>143.9</ele>
    <time>2013-02-10T18:54:11Z</time>
   </trkpt>
   <trkpt lat="32.7572011" lon="35.1999963">
    <ele>144.4</ele>
    <time>2013-02-10T18:54:13Z</time>
   </trkpt>
   <trkpt lat="32.7572234" lon="35.2000340">
    <ele>144.8</ele>
    <time>2013-02-10T18:54:16Z</time>
   </trkpt>
   <trkpt lat="32.7572225" lon="35.2000851">
    <ele>144.9</ele>
    <time>2013-02-10T18:54:19Z</time>
   </trkpt>
   <trkpt lat="32.7572381" lon="35.2001300">
    <ele>145.3</ele>
    <time>2013-02-10T18:54:21Z</time>
   </trkpt>
   <trkpt lat="32.7572514" lon="35.2001649">
    <ele>145.6</ele>
    <time>2013-02-10T18:54:23Z</time>
   </trkpt>
   <trkpt lat="32.7572576" lon="35.2001974">
    <ele>145.8</ele>
    <time>2013-02-10T18:54:25Z</time>
   </trkpt>
   <trkpt lat="32.7572531" lon="35.2002415">
    <ele>145.9</ele>
    <time>2013-02-10T18:54:27Z</time>
   </trkpt>
   <trkpt lat="32.7572460" lon="35.2002766">
    <ele>145.9</ele>
    <time>2013-02-10T18:54:29Z</time>
   </trkpt>
   <trkpt lat="32.7572354" lon="35.2003080">
    <ele>145.8</ele>
    <time>2013-02-10T18:54:32Z</time>
   </trkpt>
   <trkpt lat="32.7572328" lon="35.2003608">
    <ele>146.0</ele>
    <time>2013-02-10T18:54:35Z</time>
   </trkpt>
   <trkpt lat="32.7572373" lon="35.2004134">
    <ele>146.2</ele>
    <time>2013-02-10T18:54:37Z</time>
   </trkpt>
   <trkpt lat="32.7572549" lon="35.2004535">
    <ele>146.6</ele>
    <time>2013-02-10T18:54:39Z</time>
   </trkpt>
   <trkpt lat="32.7572704" lon="35.2004826">
    <ele>146.9</ele>
    <time>2013-02-10T18:54:40Z</time>
   </trkpt>
   <trkpt lat="32.7572993" lon="35.2005224">
    <ele>147.5</ele>
    <time>2013-02-10T18:54:42Z</time>
   </trkpt>
   <trkpt lat="32.7573068" lon="35.2005591">
    <ele>147.7</ele>
    <time>2013-02-10T18:54:44Z</time>
   </trkpt>
   <trkpt lat="32.7573097" lon="35.2005927">
    <ele>147.9</ele>
    <time>2013-02-10T18:54:46Z</time>
   </trkpt>
   <trkpt lat="32.7573056" lon="35.2006353">
    <ele>148.0</ele>
    <time>2013-02-10T18:54:49Z</time>
   </trkpt>
   <trkpt lat="32.7573338" lon="35.2006607">
    <ele>148.5</ele>
    <time>2013-02-10T18:54:51Z</time>
   </trkpt>
   <trkpt lat="32.7573626" lon="35.2006998">
    <ele>149.2</ele>
    <time>2013-02-10T18:54:53Z</time>
   </trkpt>
   <trkpt lat="32.7573733" lon="35.2007426">
    <ele>149.5</ele>
    <time>2013-02-10T18:54:55Z</time>
   </trkpt>
   <trkpt lat="32.7573990" lon="35.2007716">
    <ele>150.0</ele>
    <time>2013-02-10T18:54:57Z</time>
   </trkpt>
   <trkpt lat="32.7574267" lon="35.2007834">
    <ele>150.6</ele>
    <time>2013-02-10T18:54:59Z</time>
   </trkpt>
   <trkpt lat="32.7574581" lon="35.2007925">
    <ele>151.1</ele>
    <time>2013-02-10T18:55:02Z</time>
   </trkpt>
   <trkpt lat="32.7574869" lon="35.2008178">
    <ele>151.7</ele>
    <time>2013-02-10T18:55:04Z</time>
   </trkpt>
   <trkpt lat="32.7575156" lon="35.2008452">
    <ele>152.3</ele>
    <time>2013-02-10T18:55:06Z</time>
   </trkpt>
   <trkpt lat="32.7575406" lon="35.2008627">
    <ele>152.8</ele>
    <time>2013-02-10T18:55:08Z</time>
   </trkpt>
   <trkpt lat="32.7575687" lon="35.2008791">
    <ele>153.4</ele>
    <time>2013-02-10T18:55:10Z</time>
   </trkpt>
   <trkpt lat="32.7576004" lon="35.2009319">
    <ele>154.2</ele>
    <time>2013-02-10T18:55:12Z</time>
   </trkpt>
   <trkpt lat="32.7576205" lon="35.2009555">
    <ele>154.7</ele>
    <time>2013-02-10T18:55:13Z</time>
   </trkpt>
   <trkpt lat="32.7576635" lon="35.2009957">
    <ele>155.7</ele>
    <time>2013-02-10T18:55:15Z</time>
   </trkpt>
   <trkpt lat="32.7577051" lon="35.2010178">
    <ele>156.5</ele>
    <time>2013-02-10T18:55:18Z</time>
   </trkpt>
   <trkpt lat="32.7577255" lon="35.2010448">
    <ele>157.1</ele>
    <time>2013-02-10T18:55:21Z</time>
   </trkpt>
   <trkpt lat="32.7577488" lon="35.2010749">
    <ele>157.7</ele>
    <time>2013-02-10T18:55:23Z</time>
   </trkpt>
   <trkpt lat="32.7577749" lon="35.2010890">
    <ele>158.2</ele>
    <time>2013-02-10T18:55:24Z</time>
   </trkpt>
   <trkpt lat="32.7578205" lon="35.2011240">
    <ele>159.3</ele>
    <time>2013-02-10T18:55:26Z</time>
   </trkpt>
   <trkpt lat="32.7578439" lon="35.2011414">
    <ele>159.9</ele>
    <time>2013-02-10T18:55:27Z</time>
   </trkpt>
   <trkpt lat="32.7578826" lon="35.2011597">
    <ele>160.7</ele>
    <time>2013-02-10T18:55:29Z</time>
   </trkpt>
   <trkpt lat="32.7579214" lon="35.2011644">
    <ele>161.4</ele>
    <time>2013-02-10T18:55:33Z</time>
   </trkpt>
   <trkpt lat="32.7579573" lon="35.2011771">
    <ele>161.7</ele>
    <time>2013-02-10T18:55:35Z</time>
   </trkpt>
   <trkpt lat="32.7580029" lon="35.2011852">
    <ele>162.1</ele>
    <time>2013-02-10T18:55:37Z</time>
   </trkpt>
   <trkpt lat="32.7580390" lon="35.2011814">
    <ele>162.3</ele>
    <time>2013-02-10T18:55:39Z</time>
   </trkpt>
   <trkpt lat="32.7580667" lon="35.2011321">
    <ele>162.1</ele>
    <time>2013-02-10T18:55:43Z</time>
   </trkpt>
   <trkpt lat="32.7581073" lon="35.2011171">
    <ele>162.2</ele>
    <time>2013-02-10T18:55:46Z</time>
   </trkpt>
   <trkpt lat="32.7581424" lon="35.2011376">
    <ele>162.6</ele>
    <time>2013-02-10T18:55:48Z</time>
   </trkpt>
   <trkpt lat="32.7581702" lon="35.2011459">
    <ele>162.8</ele>
    <time>2013-02-10T18:55:50Z</time>
   </trkpt>
   <trkpt lat="32.7581990" lon="35.2011499">
    <ele>163.0</ele>
    <time>2013-02-10T18:55:53Z</time>
   </trkpt>
   <trkpt lat="32.7582231" lon="35.2011849">
    <ele>163.4</ele>
    <time>2013-02-10T18:55:56Z</time>
   </trkpt>
   <trkpt lat="32.7582529" lon="35.2012034">
    <ele>163.7</ele>
    <time>2013-02-10T18:57:32Z</time>
   </trkpt>
   <trkpt lat="32.7583030" lon="35.2012117">
    <ele>164.1</ele>
    <time>2013-02-10T18:57:34Z</time>
   </trkpt>
   <trkpt lat="32.7582898" lon="35.2011835">
    <ele>163.8</ele>
    <time>2013-02-10T18:57:41Z</time>
   </trkpt>
   <trkpt lat="32.7582656" lon="35.2011660">
    <ele>163.5</ele>
    <time>2013-02-10T18:57:54Z</time>
   </trkpt>
   <trkpt lat="32.7582360" lon="35.2011679">
    <ele>163.4</ele>
    <time>2013-02-10T18:58:07Z</time>
   </trkpt>
   <trkpt lat="32.7582148" lon="35.2011926">
    <ele>163.4</ele>
    <time>2013-02-10T18:58:09Z</time>
   </trkpt>
   <trkpt lat="32.7582567" lon="35.2011886">
    <ele>163.6</ele>
    <time>2013-02-10T18:58:20Z</time>
   </trkpt>
   <trkpt lat="32.7582732" lon="35.2011574">
    <ele>163.5</ele>
    <time>2013-02-10T18:58:22Z</time>
   </trkpt>
   <trkpt lat="32.7583036" lon="35.2011521">
    <ele>163.7</ele>
    <time>2013-02-10T18:58:23Z</time>
   </trkpt>
   <trkpt lat="32.7583437" lon="35.2011358">
    <ele>163.8</ele>
    <time>2013-02-10T18:58:25Z</time>
   </trkpt>
   <trkpt lat="32.7583825" lon="35.2011229">
    <ele>164.0</ele>
    <time>2013-02-10T18:58:27Z</time>
   </trkpt>
   <trkpt lat="32.7584139" lon="35.2011116">
    <ele>164.1</ele>
    <time>2013-02-10T18:58:28Z</time>
   </trkpt>
   <trkpt lat="32.7584574" lon="35.2010796">
    <ele>164.2</ele>
    <time>2013-02-10T18:58:30Z</time>
   </trkpt>
   <trkpt lat="32.7585033" lon="35.2010500">
    <ele>164.2</ele>
    <time>2013-02-10T18:58:32Z</time>
   </trkpt>
   <trkpt lat="32.7585623" lon="35.2010445">
    <ele>164.6</ele>
    <time>2013-02-10T18:58:34Z</time>
   </trkpt>
   <trkpt lat="32.7585916" lon="35.2010398">
    <ele>164.7</ele>
    <time>2013-02-10T18:58:35Z</time>
   </trkpt>
   <trkpt lat="32.7586386" lon="35.2010355">
    <ele>165.0</ele>
    <time>2013-02-10T18:58:37Z</time>
   </trkpt>
   <trkpt lat="32.7586648" lon="35.2010260">
    <ele>165.1</ele>
    <time>2013-02-10T18:58:38Z</time>
   </trkpt>
   <trkpt lat="32.7586922" lon="35.2010188">
    <ele>165.2</ele>
    <time>2013-02-10T18:58:39Z</time>
   </trkpt>
   <trkpt lat="32.7587209" lon="35.2010082">
    <ele>165.4</ele>
    <time>2013-02-10T18:58:40Z</time>
   </trkpt>
   <trkpt lat="32.7587615" lon="35.2009961">
    <ele>165.4</ele>
    <time>2013-02-10T18:58:41Z</time>
   </trkpt>
   <trkpt lat="32.7587979" lon="35.2009851">
    <ele>164.9</ele>
    <time>2013-02-10T18:58:42Z</time>
   </trkpt>
   <trkpt lat="32.7588327" lon="35.2009767">
    <ele>164.5</ele>
    <time>2013-02-10T18:58:43Z</time>
   </trkpt>
   <trkpt lat="32.7588680" lon="35.2009680">
    <ele>164.1</ele>
    <time>2013-02-10T18:58:44Z</time>
   </trkpt>
   <trkpt lat="32.7589030" lon="35.2009587">
    <ele>163.7</ele>
    <time>2013-02-10T18:58:45Z</time>
   </trkpt>
   <trkpt lat="32.7589401" lon="35.2009462">
    <ele>163.2</ele>
    <time>2013-02-10T18:58:46Z</time>
   </trkpt>
   <trkpt lat="32.7589865" lon="35.2009526">
    <ele>162.8</ele>
    <time>2013-02-10T18:58:47Z</time>
   </trkpt>
   <trkpt lat="32.7590318" lon="35.2009582">
    <ele>162.4</ele>
    <time>2013-02-10T18:58:48Z</time>
   </trkpt>
   <trkpt lat="32.7590758" lon="35.2009778">
    <ele>162.1</ele>
    <time>2013-02-10T18:58:49Z</time>
   </trkpt>
   <trkpt lat="32.7591206" lon="35.2010060">
    <ele>161.9</ele>
    <time>2013-02-10T18:58:50Z</time>
   </trkpt>
   <trkpt lat="32.7591489" lon="35.2010493">
    <ele>162.0</ele>
    <time>2013-02-10T18:58:51Z</time>
   </trkpt>
   <trkpt lat="32.7591767" lon="35.2010892">
    <ele>162.1</ele>
    <time>2013-02-10T18:58:52Z</time>
   </trkpt>
   <trkpt lat="32.7592006" lon="35.2011334">
    <ele>162.2</ele>
    <time>2013-02-10T18:58:53Z</time>
   </trkpt>
   <trkpt lat="32.7592298" lon="35.2012142">
    <ele>162.7</ele>
    <time>2013-02-10T18:58:54Z</time>
   </trkpt>
   <trkpt lat="32.7592566" lon="35.2012508">
    <ele>162.7</ele>
    <time>2013-02-10T18:58:55Z</time>
   </trkpt>
   <trkpt lat="32.7592881" lon="35.2012897">
    <ele>162.7</ele>
    <time>2013-02-10T18:58:56Z</time>
   </trkpt>
   <trkpt lat="32.7593196" lon="35.2013355">
    <ele>162.7</ele>
    <time>2013-02-10T18:58:57Z</time>
   </trkpt>
   <trkpt lat="32.7593462" lon="35.2013821">
    <ele>162.9</ele>
    <time>2013-02-10T18:58:58Z</time>
   </trkpt>
   <trkpt lat="32.7593778" lon="35.2014284">
    <ele>163.0</ele>
    <time>2013-02-10T18:58:59Z</time>
   </trkpt>
   <trkpt lat="32.7594099" lon="35.2014762">
    <ele>163.1</ele>
    <time>2013-02-10T18:59:00Z</time>
   </trkpt>
   <trkpt lat="32.7594459" lon="35.2015257">
    <ele>163.3</ele>
    <time>2013-02-10T18:59:01Z</time>
   </trkpt>
   <trkpt lat="32.7594771" lon="35.2015718">
    <ele>163.5</ele>
    <time>2013-02-10T18:59:02Z</time>
   </trkpt>
   <trkpt lat="32.7595110" lon="35.2016256">
    <ele>163.9</ele>
    <time>2013-02-10T18:59:03Z</time>
   </trkpt>
   <trkpt lat="32.7595440" lon="35.2016826">
    <ele>164.3</ele>
    <time>2013-02-10T18:59:04Z</time>
   </trkpt>
   <trkpt lat="32.7595772" lon="35.2017280">
    <ele>164.6</ele>
    <time>2013-02-10T18:59:05Z</time>
   </trkpt>
   <trkpt lat="32.7596084" lon="35.2017601">
    <ele>164.4</ele>
    <time>2013-02-10T18:59:06Z</time>
   </trkpt>
   <trkpt lat="32.7596512" lon="35.2017922">
    <ele>163.8</ele>
    <time>2013-02-10T18:59:07Z</time>
   </trkpt>
   <trkpt lat="32.7596816" lon="35.2018452">
    <ele>163.7</ele>
    <time>2013-02-10T18:59:08Z</time>
   </trkpt>
   <trkpt lat="32.7596950" lon="35.2019006">
    <ele>163.9</ele>
    <time>2013-02-10T18:59:09Z</time>
   </trkpt>
   <trkpt lat="32.7597119" lon="35.2019473">
    <ele>164.0</ele>
    <time>2013-02-10T18:59:10Z</time>
   </trkpt>
   <trkpt lat="32.7597420" lon="35.2019874">
    <ele>163.8</ele>
    <time>2013-02-10T18:59:11Z</time>
   </trkpt>
   <trkpt lat="32.7597805" lon="35.2020239">
    <ele>163.4</ele>
    <time>2013-02-10T18:59:12Z</time>
   </trkpt>
   <trkpt lat="32.7598219" lon="35.2020521">
    <ele>162.8</ele>
    <time>2013-02-10T18:59:13Z</time>
   </trkpt>
   <trkpt lat="32.7598751" lon="35.2020697">
    <ele>161.9</ele>
    <time>2013-02-10T18:59:14Z</time>
   </trkpt>
   <trkpt lat="32.7599158" lon="35.2021052">
    <ele>161.4</ele>
    <time>2013-02-10T18:59:15Z</time>
   </trkpt>
   <trkpt lat="32.7599475" lon="35.2021443">
    <ele>161.2</ele>
    <time>2013-02-10T18:59:16Z</time>
   </trkpt>
   <trkpt lat="32.7599728" lon="35.2021764">
    <ele>161.0</ele>
    <time>2013-02-10T18:59:17Z</time>
   </trkpt>
   <trkpt lat="32.7599973" lon="35.2021966">
    <ele>160.8</ele>
    <time>2013-02-10T18:59:20Z</time>
   </trkpt>
   <trkpt lat="32.7600296" lon="35.2022247">
    <ele>160.5</ele>
    <time>2013-02-10T18:59:23Z</time>
   </trkpt>
   <trkpt lat="32.7600592" lon="35.2022471">
    <ele>160.2</ele>
    <time>2013-02-10T18:59:26Z</time>
   </trkpt>
   <trkpt lat="32.7600929" lon="35.2022651">
    <ele>159.8</ele>
    <time>2013-02-10T18:59:29Z</time>
   </trkpt>
   <trkpt lat="32.7601278" lon="35.2022782">
    <ele>159.4</ele>
    <time>2013-02-10T18:59:32Z</time>
   </trkpt>
   <trkpt lat="32.7601582" lon="35.2022914">
    <ele>159.0</ele>
    <time>2013-02-10T18:59:34Z</time>
   </trkpt>
   <trkpt lat="32.7601878" lon="35.2023076">
    <ele>158.7</ele>
    <time>2013-02-10T18:59:36Z</time>
   </trkpt>
   <trkpt lat="32.7602140" lon="35.2023309">
    <ele>158.6</ele>
    <time>2013-02-10T18:59:38Z</time>
   </trkpt>
   <trkpt lat="32.7602454" lon="35.2023577">
    <ele>158.4</ele>
    <time>2013-02-10T18:59:41Z</time>
   </trkpt>
   <trkpt lat="32.7602745" lon="35.2023895">
    <ele>158.4</ele>
    <time>2013-02-10T18:59:44Z</time>
   </trkpt>
   <trkpt lat="32.7602940" lon="35.2024161">
    <ele>158.5</ele>
    <time>2013-02-10T18:59:46Z</time>
   </trkpt>
   <trkpt lat="32.7603077" lon="35.2024485">
    <ele>158.8</ele>
    <time>2013-02-10T18:59:48Z</time>
   </trkpt>
   <trkpt lat="32.7603225" lon="35.2024854">
    <ele>159.1</ele>
    <time>2013-02-10T18:59:50Z</time>
   </trkpt>
   <trkpt lat="32.7603347" lon="35.2025309">
    <ele>159.7</ele>
    <time>2013-02-10T18:59:52Z</time>
   </trkpt>
   <trkpt lat="32.7603520" lon="35.2025843">
    <ele>160.3</ele>
    <time>2013-02-10T18:59:54Z</time>
   </trkpt>
   <trkpt lat="32.7603726" lon="35.2026367">
    <ele>160.8</ele>
    <time>2013-02-10T18:59:56Z</time>
   </trkpt>
   <trkpt lat="32.7603956" lon="35.2026853">
    <ele>161.4</ele>
    <time>2013-02-10T18:59:58Z</time>
   </trkpt>
   <trkpt lat="32.7604268" lon="35.2027303">
    <ele>161.7</ele>
    <time>2013-02-10T19:00:00Z</time>
   </trkpt>
   <trkpt lat="32.7604479" lon="35.2027577">
    <ele>161.8</ele>
    <time>2013-02-10T19:00:01Z</time>
   </trkpt>
   <trkpt lat="32.7604703" lon="35.2027840">
    <ele>161.8</ele>
    <time>2013-02-10T19:00:02Z</time>
   </trkpt>
   <trkpt lat="32.7604939" lon="35.2028122">
    <ele>161.8</ele>
    <time>2013-02-10T19:00:03Z</time>
   </trkpt>
   <trkpt lat="32.7605174" lon="35.2028451">
    <ele>161.9</ele>
    <time>2013-02-10T19:00:04Z</time>
   </trkpt>
   <trkpt lat="32.7605372" lon="35.2028815">
    <ele>162.1</ele>
    <time>2013-02-10T19:00:05Z</time>
   </trkpt>
   <trkpt lat="32.7605471" lon="35.2029202">
    <ele>162.6</ele>
    <time>2013-02-10T19:00:06Z</time>
   </trkpt>
   <trkpt lat="32.7605574" lon="35.2029588">
    <ele>163.0</ele>
    <time>2013-02-10T19:00:07Z</time>
   </trkpt>
   <trkpt lat="32.7605675" lon="35.2029993">
    <ele>163.4</ele>
    <time>2013-02-10T19:00:08Z</time>
   </trkpt>
   <trkpt lat="32.7605691" lon="35.2030434">
    <ele>164.1</ele>
    <time>2013-02-10T19:00:09Z</time>
   </trkpt>
   <trkpt lat="32.7605692" lon="35.2030867">
    <ele>164.7</ele>
    <time>2013-02-10T19:00:10Z</time>
   </trkpt>
   <trkpt lat="32.7605686" lon="35.2031298">
    <ele>165.4</ele>
    <time>2013-02-10T19:00:11Z</time>
   </trkpt>
   <trkpt lat="32.7605675" lon="35.2031715">
    <ele>166.1</ele>
    <time>2013-02-10T19:00:12Z</time>
   </trkpt>
   <trkpt lat="32.7605656" lon="35.2032145">
    <ele>166.8</ele>
    <time>2013-02-10T19:00:13Z</time>
   </trkpt>
   <trkpt lat="32.7605648" lon="35.2032563">
    <ele>167.5</ele>
    <time>2013-02-10T19:00:14Z</time>
   </trkpt>
   <trkpt lat="32.7605641" lon="35.2032988">
    <ele>168.2</ele>
    <time>2013-02-10T19:00:15Z</time>
   </trkpt>
   <trkpt lat="32.7605668" lon="35.2033420">
    <ele>168.8</ele>
    <time>2013-02-10T19:00:16Z</time>
   </trkpt>
   <trkpt lat="32.7605703" lon="35.2033858">
    <ele>169.4</ele>
    <time>2013-02-10T19:00:17Z</time>
   </trkpt>
   <trkpt lat="32.7605747" lon="35.2034307">
    <ele>170.0</ele>
    <time>2013-02-10T19:00:18Z</time>
   </trkpt>
   <trkpt lat="32.7605789" lon="35.2034748">
    <ele>170.6</ele>
    <time>2013-02-10T19:00:19Z</time>
   </trkpt>
   <trkpt lat="32.7605818" lon="35.2035167">
    <ele>171.2</ele>
    <time>2013-02-10T19:00:20Z</time>
   </trkpt>
   <trkpt lat="32.7605858" lon="35.2035580">
    <ele>171.7</ele>
    <time>2013-02-10T19:00:21Z</time>
   </trkpt>
   <trkpt lat="32.7605912" lon="35.2035935">
    <ele>172.2</ele>
    <time>2013-02-10T19:00:22Z</time>
   </trkpt>
   <trkpt lat="32.7605949" lon="35.2036283">
    <ele>172.6</ele>
    <time>2013-02-10T19:00:23Z</time>
   </trkpt>
   <trkpt lat="32.7605978" lon="35.2036610">
    <ele>173.1</ele>
    <time>2013-02-10T19:00:24Z</time>
   </trkpt>
   <trkpt lat="32.7605928" lon="35.2037168">
    <ele>174.0</ele>
    <time>2013-02-10T19:00:26Z</time>
   </trkpt>
   <trkpt lat="32.7605849" lon="35.2037684">
    <ele>174.8</ele>
    <time>2013-02-10T19:00:28Z</time>
   </trkpt>
   <trkpt lat="32.7605826" lon="35.2038189">
    <ele>175.1</ele>
    <time>2013-02-10T19:00:30Z</time>
   </trkpt>
   <trkpt lat="32.7605816" lon="35.2038730">
    <ele>175.4</ele>
    <time>2013-02-10T19:00:32Z</time>
   </trkpt>
   <trkpt lat="32.7605847" lon="35.2039328">
    <ele>175.6</ele>
    <time>2013-02-10T19:00:34Z</time>
   </trkpt>
   <trkpt lat="32.7605752" lon="35.2039860">
    <ele>176.1</ele>
    <time>2013-02-10T19:00:36Z</time>
   </trkpt>
   <trkpt lat="32.7605752" lon="35.2040381">
    <ele>176.3</ele>
    <time>2013-02-10T19:00:38Z</time>
   </trkpt>
   <trkpt lat="32.7605767" lon="35.2040849">
    <ele>176.5</ele>
    <time>2013-02-10T19:00:40Z</time>
   </trkpt>
   <trkpt lat="32.7605780" lon="35.2041315">
    <ele>176.6</ele>
    <time>2013-02-10T19:00:42Z</time>
   </trkpt>
   <trkpt lat="32.7605791" lon="35.2041773">
    <ele>176.8</ele>
    <time>2013-02-10T19:00:44Z</time>
   </trkpt>
   <trkpt lat="32.7605802" lon="35.2042212">
    <ele>177.0</ele>
    <time>2013-02-10T19:00:46Z</time>
   </trkpt>
   <trkpt lat="32.7605840" lon="35.2042643">
    <ele>177.1</ele>
    <time>2013-02-10T19:00:48Z</time>
   </trkpt>
   <trkpt lat="32.7605887" lon="35.2043043">
    <ele>177.2</ele>
    <time>2013-02-10T19:00:50Z</time>
   </trkpt>
   <trkpt lat="32.7605978" lon="35.2043422">
    <ele>177.2</ele>
    <time>2013-02-10T19:00:52Z</time>
   </trkpt>
   <trkpt lat="32.7606045" lon="35.2043855">
    <ele>177.3</ele>
    <time>2013-02-10T19:00:54Z</time>
   </trkpt>
   <trkpt lat="32.7606127" lon="35.2044349">
    <ele>177.4</ele>
    <time>2013-02-10T19:00:56Z</time>
   </trkpt>
   <trkpt lat="32.7606182" lon="35.2044901">
    <ele>177.6</ele>
    <time>2013-02-10T19:00:58Z</time>
   </trkpt>
   <trkpt lat="32.7606249" lon="35.2045508">
    <ele>177.8</ele>
    <time>2013-02-10T19:01:00Z</time>
   </trkpt>
   <trkpt lat="32.7606284" lon="35.2046078">
    <ele>178.0</ele>
    <time>2013-02-10T19:01:02Z</time>
   </trkpt>
   <trkpt lat="32.7606272" lon="35.2046593">
    <ele>178.2</ele>
    <time>2013-02-10T19:01:04Z</time>
   </trkpt>
   <trkpt lat="32.7606212" lon="35.2046975">
    <ele>178.5</ele>
    <time>2013-02-10T19:01:06Z</time>
   </trkpt>
   <trkpt lat="32.7606346" lon="35.2047396">
    <ele>178.4</ele>
    <time>2013-02-10T19:01:09Z</time>
   </trkpt>
   <trkpt lat="32.7606704" lon="35.2047837">
    <ele>178.1</ele>
    <time>2013-02-10T19:01:11Z</time>
   </trkpt>
   <trkpt lat="32.7606919" lon="35.2048107">
    <ele>177.9</ele>
    <time>2013-02-10T19:01:12Z</time>
   </trkpt>
   <trkpt lat="32.7607210" lon="35.2048283">
    <ele>177.6</ele>
    <time>2013-02-10T19:01:13Z</time>
   </trkpt>
   <trkpt lat="32.7607559" lon="35.2048311">
    <ele>177.2</ele>
    <time>2013-02-10T19:01:14Z</time>
   </trkpt>
   <trkpt lat="32.7608296" lon="35.2047786">
    <ele>176.0</ele>
    <time>2013-02-10T19:01:15Z</time>
   </trkpt>
   <trkpt lat="32.7608688" lon="35.2047527">
    <ele>175.3</ele>
    <time>2013-02-10T19:01:16Z</time>
   </trkpt>
   <trkpt lat="32.7609005" lon="35.2047235">
    <ele>174.8</ele>
    <time>2013-02-10T19:01:17Z</time>
   </trkpt>
   <trkpt lat="32.7609350" lon="35.2046967">
    <ele>174.1</ele>
    <time>2013-02-10T19:01:18Z</time>
   </trkpt>
   <trkpt lat="32.7609624" lon="35.2046693">
    <ele>173.6</ele>
    <time>2013-02-10T19:01:19Z</time>
   </trkpt>
   <trkpt lat="32.7609222" lon="35.2046184">
    <ele>173.9</ele>
    <time>2013-02-10T19:01:20Z</time>
   </trkpt>
   <trkpt lat="32.7609264" lon="35.2045776">
    <ele>173.6</ele>
    <time>2013-02-10T19:01:21Z</time>
   </trkpt>
   <trkpt lat="32.7609448" lon="35.2045537">
    <ele>173.1</ele>
    <time>2013-02-10T19:01:22Z</time>
   </trkpt>
   <trkpt lat="32.7609791" lon="35.2045042">
    <ele>172.1</ele>
    <time>2013-02-10T19:01:24Z</time>
   </trkpt>
   <trkpt lat="32.7610060" lon="35.2044599">
    <ele>171.3</ele>
    <time>2013-02-10T19:01:26Z</time>
   </trkpt>
   <trkpt lat="32.7610333" lon="35.2044122">
    <ele>170.3</ele>
    <time>2013-02-10T19:01:28Z</time>
   </trkpt>
   <trkpt lat="32.7610669" lon="35.2043664">
    <ele>169.3</ele>
    <time>2013-02-10T19:01:30Z</time>
   </trkpt>
   <trkpt lat="32.7611058" lon="35.2043166">
    <ele>168.1</ele>
    <time>2013-02-10T19:01:32Z</time>
   </trkpt>
   <trkpt lat="32.7611317" lon="35.2042943">
    <ele>167.3</ele>
    <time>2013-02-10T19:01:33Z</time>
   </trkpt>
   <trkpt lat="32.7611582" lon="35.2042728">
    <ele>166.6</ele>
    <time>2013-02-10T19:01:34Z</time>
   </trkpt>
   <trkpt lat="32.7611815" lon="35.2042416">
    <ele>165.8</ele>
    <time>2013-02-10T19:01:35Z</time>
   </trkpt>
   <trkpt lat="32.7612061" lon="35.2042153">
    <ele>165.0</ele>
    <time>2013-02-10T19:01:36Z</time>
   </trkpt>
   <trkpt lat="32.7612253" lon="35.2041926">
    <ele>164.3</ele>
    <time>2013-02-10T19:01:37Z</time>
   </trkpt>
   <trkpt lat="32.7612472" lon="35.2041525">
    <ele>163.4</ele>
    <time>2013-02-10T19:01:38Z</time>
   </trkpt>
   <trkpt lat="32.7612693" lon="35.2041170">
    <ele>163.0</ele>
    <time>2013-02-10T19:01:39Z</time>
   </trkpt>
   <trkpt lat="32.7612827" lon="35.2040838">
    <ele>162.7</ele>
    <time>2013-02-10T19:01:40Z</time>
   </trkpt>
   <trkpt lat="32.7612935" lon="35.2040445">
    <ele>162.3</ele>
    <time>2013-02-10T19:01:41Z</time>
   </trkpt>
   <trkpt lat="32.7613046" lon="35.2040089">
    <ele>161.9</ele>
    <time>2013-02-10T19:01:42Z</time>
   </trkpt>
   <trkpt lat="32.7613171" lon="35.2039645">
    <ele>161.4</ele>
    <time>2013-02-10T19:01:43Z</time>
   </trkpt>
   <trkpt lat="32.7613289" lon="35.2039216">
    <ele>160.9</ele>
    <time>2013-02-10T19:01:44Z</time>
   </trkpt>
   <trkpt lat="32.7613409" lon="35.2038798">
    <ele>160.4</ele>
    <time>2013-02-10T19:01:45Z</time>
   </trkpt>
   <trkpt lat="32.7613504" lon="35.2038420">
    <ele>159.9</ele>
    <time>2013-02-10T19:01:46Z</time>
   </trkpt>
   <trkpt lat="32.7613636" lon="35.2038035">
    <ele>159.5</ele>
    <time>2013-02-10T19:01:47Z</time>
   </trkpt>
   <trkpt lat="32.7613793" lon="35.2037697">
    <ele>159.1</ele>
    <time>2013-02-10T19:01:48Z</time>
   </trkpt>
   <trkpt lat="32.7613951" lon="35.2037433">
    <ele>158.8</ele>
    <time>2013-02-10T19:01:49Z</time>
   </trkpt>
   <trkpt lat="32.7614283" lon="35.2036960">
    <ele>158.4</ele>
    <time>2013-02-10T19:01:51Z</time>
   </trkpt>
   <trkpt lat="32.7614576" lon="35.2036459">
    <ele>157.9</ele>
    <time>2013-02-10T19:01:53Z</time>
   </trkpt>
   <trkpt lat="32.7614929" lon="35.2036113">
    <ele>157.6</ele>
    <time>2013-02-10T19:01:55Z</time>
   </trkpt>
   <trkpt lat="32.7615372" lon="35.2035932">
    <ele>157.5</ele>
    <time>2013-02-10T19:01:57Z</time>
   </trkpt>
   <trkpt lat="32.7615872" lon="35.2035813">
    <ele>157.5</ele>
    <time>2013-02-10T19:01:59Z</time>
   </trkpt>
   <trkpt lat="32.7616270" lon="35.2035640">
    <ele>157.4</ele>
    <time>2013-02-10T19:02:01Z</time>
   </trkpt>
   <trkpt lat="32.7616516" lon="35.2035504">
    <ele>157.3</ele>
    <time>2013-02-10T19:02:02Z</time>
   </trkpt>
   <trkpt lat="32.7616891" lon="35.2035252">
    <ele>157.1</ele>
    <time>2013-02-10T19:02:04Z</time>
   </trkpt>
   <trkpt lat="32.7617339" lon="35.2035202">
    <ele>157.1</ele>
    <time>2013-02-10T19:02:06Z</time>
   </trkpt>
   <trkpt lat="32.7617755" lon="35.2035236">
    <ele>157.3</ele>
    <time>2013-02-10T19:02:08Z</time>
   </trkpt>
   <trkpt lat="32.7618085" lon="35.2035268">
    <ele>157.5</ele>
    <time>2013-02-10T19:02:10Z</time>
   </trkpt>
   <trkpt lat="32.7618423" lon="35.2035266">
    <ele>157.6</ele>
    <time>2013-02-10T19:02:12Z</time>
   </trkpt>
   <trkpt lat="32.7618895" lon="35.2035019">
    <ele>157.3</ele>
    <time>2013-02-10T19:02:14Z</time>
   </trkpt>
   <trkpt lat="32.7619372" lon="35.2035033">
    <ele>157.5</ele>
    <time>2013-02-10T19:02:16Z</time>
   </trkpt>
   <trkpt lat="32.7619789" lon="35.2035011">
    <ele>157.6</ele>
    <time>2013-02-10T19:02:18Z</time>
   </trkpt>
   <trkpt lat="32.7620185" lon="35.2035030">
    <ele>157.8</ele>
    <time>2013-02-10T19:02:20Z</time>
   </trkpt>
   <trkpt lat="32.7620536" lon="35.2035042">
    <ele>157.9</ele>
    <time>2013-02-10T19:02:22Z</time>
   </trkpt>
   <trkpt lat="32.7620940" lon="35.2035061">
    <ele>158.0</ele>
    <time>2013-02-10T19:02:24Z</time>
   </trkpt>
   <trkpt lat="32.7621332" lon="35.2034959">
    <ele>157.9</ele>
    <time>2013-02-10T19:02:25Z</time>
   </trkpt>
   <trkpt lat="32.7621650" lon="35.2034999">
    <ele>158.0</ele>
    <time>2013-02-10T19:02:26Z</time>
   </trkpt>
   <trkpt lat="32.7622014" lon="35.2035048">
    <ele>158.1</ele>
    <time>2013-02-10T19:02:27Z</time>
   </trkpt>
   <trkpt lat="32.7622775" lon="35.2035150">
    <ele>158.4</ele>
    <time>2013-02-10T19:02:28Z</time>
   </trkpt>
   <trkpt lat="32.7623347" lon="35.2035136">
    <ele>158.4</ele>
    <time>2013-02-10T19:02:29Z</time>
   </trkpt>
   <trkpt lat="32.7623844" lon="35.2035153">
    <ele>158.5</ele>
    <time>2013-02-10T19:02:30Z</time>
   </trkpt>
   <trkpt lat="32.7624400" lon="35.2035108">
    <ele>158.5</ele>
    <time>2013-02-10T19:02:31Z</time>
   </trkpt>
   <trkpt lat="32.7624692" lon="35.2035541">
    <ele>159.3</ele>
    <time>2013-02-10T19:02:33Z</time>
   </trkpt>
   <trkpt lat="32.7625146" lon="35.2035929">
    <ele>160.1</ele>
    <time>2013-02-10T19:02:35Z</time>
   </trkpt>
   <trkpt lat="32.7625398" lon="35.2036213">
    <ele>160.6</ele>
    <time>2013-02-10T19:02:38Z</time>
   </trkpt>
   <trkpt lat="32.7625772" lon="35.2036534">
    <ele>161.2</ele>
    <time>2013-02-10T19:02:41Z</time>
   </trkpt>
   <trkpt lat="32.7626123" lon="35.2036710">
    <ele>161.6</ele>
    <time>2013-02-10T19:02:43Z</time>
   </trkpt>
   <trkpt lat="32.7626372" lon="35.2036842">
    <ele>161.8</ele>
    <time>2013-02-10T19:02:44Z</time>
   </trkpt>
   <trkpt lat="32.7626802" lon="35.2037114">
    <ele>162.3</ele>
    <time>2013-02-10T19:02:46Z</time>
   </trkpt>
   <trkpt lat="32.7627069" lon="35.2037336">
    <ele>162.7</ele>
    <time>2013-02-10T19:02:48Z</time>
   </trkpt>
   <trkpt lat="32.7627278" lon="35.2037559">
    <ele>163.1</ele>
    <time>2013-02-10T19:02:50Z</time>
   </trkpt>
   <trkpt lat="32.7627396" lon="35.2037925">
    <ele>164.1</ele>
    <time>2013-02-10T19:02:53Z</time>
   </trkpt>
   <trkpt lat="32.7627602" lon="35.2038352">
    <ele>165.2</ele>
    <time>2013-02-10T19:02:55Z</time>
   </trkpt>
   <trkpt lat="32.7627732" lon="35.2038904">
    <ele>166.6</ele>
    <time>2013-02-10T19:02:57Z</time>
   </trkpt>
   <trkpt lat="32.7627807" lon="35.2039339">
    <ele>167.7</ele>
    <time>2013-02-10T19:02:59Z</time>
   </trkpt>
   <trkpt lat="32.7627870" lon="35.2039696">
    <ele>168.7</ele>
    <time>2013-02-10T19:03:01Z</time>
   </trkpt>
   <trkpt lat="32.7627584" lon="35.2039563">
    <ele>168.3</ele>
    <time>2013-02-10T19:03:07Z</time>
   </trkpt>
   <trkpt lat="32.7627354" lon="35.2039300">
    <ele>167.6</ele>
    <time>2013-02-10T19:03:10Z</time>
   </trkpt>
   <trkpt lat="32.7627082" lon="35.2039226">
    <ele>167.4</ele>
    <time>2013-02-10T19:04:56Z</time>
   </trkpt>
   <trkpt lat="32.7627413" lon="35.2039214">
    <ele>167.4</ele>
    <time>2013-02-10T19:08:19Z</time>
   </trkpt>
   <trkpt lat="32.7627116" lon="35.2039302">
    <ele>167.6</ele>
    <time>2013-02-10T19:08:57Z</time>
   </trkpt>
   <trkpt lat="32.7626838" lon="35.2039074">
    <ele>167.0</ele>
    <time>2013-02-10T19:09:20Z</time>
   </trkpt>
   <trkpt lat="32.7626560" lon="35.2038870">
    <ele>166.5</ele>
    <time>2013-02-10T19:09:22Z</time>
   </trkpt>
   <trkpt lat="32.7626161" lon="35.2038672">
    <ele>165.9</ele>
    <time>2013-02-10T19:09:25Z</time>
   </trkpt>
   <trkpt lat="32.7625786" lon="35.2038466">
    <ele>165.4</ele>
    <time>2013-02-10T19:09:28Z</time>
   </trkpt>
   <trkpt lat="32.7625534" lon="35.2038321">
    <ele>165.0</ele>
    <time>2013-02-10T19:09:30Z</time>
   </trkpt>
   <trkpt lat="32.7625243" lon="35.2038092">
    <ele>164.5</ele>
    <time>2013-02-10T19:09:32Z</time>
   </trkpt>
   <trkpt lat="32.7624911" lon="35.2037877">
    <ele>163.9</ele>
    <time>2013-02-10T19:09:34Z</time>
   </trkpt>
   <trkpt lat="32.7624575" lon="35.2037703">
    <ele>163.5</ele>
    <time>2013-02-10T19:09:36Z</time>
   </trkpt>
   <trkpt lat="32.7624221" lon="35.2037533">
    <ele>163.1</ele>
    <time>2013-02-10T19:09:38Z</time>
   </trkpt>
   <trkpt lat="32.7623837" lon="35.2037358">
    <ele>162.7</ele>
    <time>2013-02-10T19:09:40Z</time>
   </trkpt>
   <trkpt lat="32.7623380" lon="35.2037262">
    <ele>162.5</ele>
    <time>2013-02-10T19:09:42Z</time>
   </trkpt>
   <trkpt lat="32.7622833" lon="35.2037229">
    <ele>162.5</ele>
    <time>2013-02-10T19:09:44Z</time>
   </trkpt>
   <trkpt lat="32.7622544" lon="35.2037245">
    <ele>162.5</ele>
    <time>2013-02-10T19:09:45Z</time>
   </trkpt>
   <trkpt lat="32.7621986" lon="35.2037321">
    <ele>162.6</ele>
    <time>2013-02-10T19:09:47Z</time>
   </trkpt>
   <trkpt lat="32.7621566" lon="35.2037427">
    <ele>162.9</ele>
    <time>2013-02-10T19:09:49Z</time>
   </trkpt>
   <trkpt lat="32.7621122" lon="35.2037409">
    <ele>162.8</ele>
    <time>2013-02-10T19:09:51Z</time>
   </trkpt>
   <trkpt lat="32.7620716" lon="35.2037374">
    <ele>162.7</ele>
    <time>2013-02-10T19:09:53Z</time>
   </trkpt>
   <trkpt lat="32.7620268" lon="35.2037267">
    <ele>162.2</ele>
    <time>2013-02-10T19:09:55Z</time>
   </trkpt>
   <trkpt lat="32.7619944" lon="35.2037349">
    <ele>162.2</ele>
    <time>2013-02-10T19:09:57Z</time>
   </trkpt>
   <trkpt lat="32.7619725" lon="35.2037598">
    <ele>162.5</ele>
    <time>2013-02-10T19:09:59Z</time>
   </trkpt>
   <trkpt lat="32.7619482" lon="35.2037791">
    <ele>162.8</ele>
    <time>2013-02-10T19:10:01Z</time>
   </trkpt>
   <trkpt lat="32.7619168" lon="35.2038225">
    <ele>163.5</ele>
    <time>2013-02-10T19:10:03Z</time>
   </trkpt>
   <trkpt lat="32.7618825" lon="35.2038674">
    <ele>164.2</ele>
    <time>2013-02-10T19:10:05Z</time>
   </trkpt>
   <trkpt lat="32.7618534" lon="35.2039023">
    <ele>164.7</ele>
    <time>2013-02-10T19:10:07Z</time>
   </trkpt>
   <trkpt lat="32.7618284" lon="35.2039465">
    <ele>165.4</ele>
    <time>2013-02-10T19:10:09Z</time>
   </trkpt>
   <trkpt lat="32.7618067" lon="35.2039935">
    <ele>166.1</ele>
    <time>2013-02-10T19:10:11Z</time>
   </trkpt>
   <trkpt lat="32.7617771" lon="35.2040324">
    <ele>166.6</ele>
    <time>2013-02-10T19:10:13Z</time>
   </trkpt>
   <trkpt lat="32.7617537" lon="35.2040682">
    <ele>167.1</ele>
    <time>2013-02-10T19:10:15Z</time>
   </trkpt>
   <trkpt lat="32.7617425" lon="35.2040987">
    <ele>167.5</ele>
    <time>2013-02-10T19:10:17Z</time>
   </trkpt>
   <trkpt lat="32.7617282" lon="35.2041451">
    <ele>168.3</ele>
    <time>2013-02-10T19:10:20Z</time>
   </trkpt>
   <trkpt lat="32.7617030" lon="35.2041837">
    <ele>168.7</ele>
    <time>2013-02-10T19:10:22Z</time>
   </trkpt>
   <trkpt lat="32.7616751" lon="35.2042329">
    <ele>169.3</ele>
    <time>2013-02-10T19:10:24Z</time>
   </trkpt>
   <trkpt lat="32.7616499" lon="35.2042780">
    <ele>169.8</ele>
    <time>2013-02-10T19:10:26Z</time>
   </trkpt>
   <trkpt lat="32.7616448" lon="35.2043111">
    <ele>170.3</ele>
    <time>2013-02-10T19:10:27Z</time>
   </trkpt>
   <trkpt lat="32.7616359" lon="35.2043605">
    <ele>171.1</ele>
    <time>2013-02-10T19:10:29Z</time>
   </trkpt>
   <trkpt lat="32.7616283" lon="35.2044011">
    <ele>171.7</ele>
    <time>2013-02-10T19:10:31Z</time>
   </trkpt>
   <trkpt lat="32.7616254" lon="35.2044395">
    <ele>172.3</ele>
    <time>2013-02-10T19:10:34Z</time>
   </trkpt>
   <trkpt lat="32.7616253" lon="35.2044775">
    <ele>173.0</ele>
    <time>2013-02-10T19:10:36Z</time>
   </trkpt>
   <trkpt lat="32.7616292" lon="35.2045136">
    <ele>173.7</ele>
    <time>2013-02-10T19:10:38Z</time>
   </trkpt>
   <trkpt lat="32.7616475" lon="35.2045521">
    <ele>174.6</ele>
    <time>2013-02-10T19:10:41Z</time>
   </trkpt>
   <trkpt lat="32.7616793" lon="35.2045708">
    <ele>175.5</ele>
    <time>2013-02-10T19:10:43Z</time>
   </trkpt>
   <trkpt lat="32.7617189" lon="35.2045820">
    <ele>176.3</ele>
    <time>2013-02-10T19:10:46Z</time>
   </trkpt>
   <trkpt lat="32.7617472" lon="35.2045886">
    <ele>176.8</ele>
    <time>2013-02-10T19:10:48Z</time>
   </trkpt>
   <trkpt lat="32.7617828" lon="35.2045982">
    <ele>177.4</ele>
    <time>2013-02-10T19:10:51Z</time>
   </trkpt>
   <trkpt lat="32.7618116" lon="35.2046040">
    <ele>177.9</ele>
    <time>2013-02-10T19:10:53Z</time>
   </trkpt>
   <trkpt lat="32.7618552" lon="35.2046013">
    <ele>178.6</ele>
    <time>2013-02-10T19:10:56Z</time>
   </trkpt>
   <trkpt lat="32.7618911" lon="35.2045961">
    <ele>179.1</ele>
    <time>2013-02-10T19:10:58Z</time>
   </trkpt>
   <trkpt lat="32.7619344" lon="35.2045923">
    <ele>179.7</ele>
    <time>2013-02-10T19:11:00Z</time>
   </trkpt>
   <trkpt lat="32.7619639" lon="35.2045935">
    <ele>180.2</ele>
    <time>2013-02-10T19:11:02Z</time>
   </trkpt>
   <trkpt lat="32.7620020" lon="35.2045940">
    <ele>180.8</ele>
    <time>2013-02-10T19:11:05Z</time>
   </trkpt>
   <trkpt lat="32.7620290" lon="35.2045884">
    <ele>181.2</ele>
    <time>2013-02-10T19:11:08Z</time>
   </trkpt>
   <trkpt lat="32.7620355" lon="35.2046234">
    <ele>181.6</ele>
    <time>2013-02-10T19:11:12Z</time>
   </trkpt>
   <trkpt lat="32.7620655" lon="35.2046514">
    <ele>182.3</ele>
    <time>2013-02-10T19:11:15Z</time>
   </trkpt>
   <trkpt lat="32.7620914" lon="35.2046701">
    <ele>182.8</ele>
    <time>2013-02-10T19:11:17Z</time>
   </trkpt>
   <trkpt lat="32.7621166" lon="35.2046892">
    <ele>183.0</ele>
    <time>2013-02-10T19:11:19Z</time>
   </trkpt>
   <trkpt lat="32.7621361" lon="35.2047127">
    <ele>183.3</ele>
    <time>2013-02-10T19:11:22Z</time>
   </trkpt>
   <trkpt lat="32.7621409" lon="35.2047555">
    <ele>183.7</ele>
    <time>2013-02-10T19:11:25Z</time>
   </trkpt>
   <trkpt lat="32.7621559" lon="35.2047961">
    <ele>184.1</ele>
    <time>2013-02-10T19:11:27Z</time>
   </trkpt>
   <trkpt lat="32.7621673" lon="35.2048390">
    <ele>184.5</ele>
    <time>2013-02-10T19:11:29Z</time>
   </trkpt>
   <trkpt lat="32.7621880" lon="35.2048696">
    <ele>184.9</ele>
    <time>2013-02-10T19:11:31Z</time>
   </trkpt>
   <trkpt lat="32.7622146" lon="35.2048854">
    <ele>185.1</ele>
    <time>2013-02-10T19:11:33Z</time>
   </trkpt>
   <trkpt lat="32.7622501" lon="35.2048984">
    <ele>185.4</ele>
    <time>2013-02-10T19:11:35Z</time>
   </trkpt>
   <trkpt lat="32.7622786" lon="35.2049164">
    <ele>185.7</ele>
    <time>2013-02-10T19:11:37Z</time>
   </trkpt>
   <trkpt lat="32.7623079" lon="35.2049387">
    <ele>186.0</ele>
    <time>2013-02-10T19:11:39Z</time>
   </trkpt>
   <trkpt lat="32.7623404" lon="35.2049701">
    <ele>186.5</ele>
    <time>2013-02-10T19:11:41Z</time>
   </trkpt>
   <trkpt lat="32.7623463" lon="35.2050057">
    <ele>186.8</ele>
    <time>2013-02-10T19:11:43Z</time>
   </trkpt>
   <trkpt lat="32.7623481" lon="35.2050386">
    <ele>187.1</ele>
    <time>2013-02-10T19:11:44Z</time>
   </trkpt>
   <trkpt lat="32.7623507" lon="35.2051002">
    <ele>187.7</ele>
    <time>2013-02-10T19:11:46Z</time>
   </trkpt>
   <trkpt lat="32.7623503" lon="35.2051506">
    <ele>188.2</ele>
    <time>2013-02-10T19:11:48Z</time>
   </trkpt>
   <trkpt lat="32.7623568" lon="35.2051997">
    <ele>188.6</ele>
    <time>2013-02-10T19:11:50Z</time>
   </trkpt>
   <trkpt lat="32.7623790" lon="35.2052213">
    <ele>189.0</ele>
    <time>2013-02-10T19:11:51Z</time>
   </trkpt>
   <trkpt lat="32.7624088" lon="35.2052586">
    <ele>189.5</ele>
    <time>2013-02-10T19:11:53Z</time>
   </trkpt>
   <trkpt lat="32.7624380" lon="35.2052963">
    <ele>190.0</ele>
    <time>2013-02-10T19:11:55Z</time>
   </trkpt>
   <trkpt lat="32.7624619" lon="35.2053398">
    <ele>190.5</ele>
    <time>2013-02-10T19:11:57Z</time>
   </trkpt>
   <trkpt lat="32.7624763" lon="35.2053863">
    <ele>191.1</ele>
    <time>2013-02-10T19:11:59Z</time>
   </trkpt>
   <trkpt lat="32.7624878" lon="35.2054329">
    <ele>191.4</ele>
    <time>2013-02-10T19:12:01Z</time>
   </trkpt>
   <trkpt lat="32.7625021" lon="35.2054733">
    <ele>191.6</ele>
    <time>2013-02-10T19:12:03Z</time>
   </trkpt>
   <trkpt lat="32.7625156" lon="35.2055141">
    <ele>191.7</ele>
    <time>2013-02-10T19:12:05Z</time>
   </trkpt>
   <trkpt lat="32.7625323" lon="35.2055551">
    <ele>191.9</ele>
    <time>2013-02-10T19:12:07Z</time>
   </trkpt>
   <trkpt lat="32.7625490" lon="35.2056001">
    <ele>192.1</ele>
    <time>2013-02-10T19:12:09Z</time>
   </trkpt>
   <trkpt lat="32.7625674" lon="35.2056560">
    <ele>192.3</ele>
    <time>2013-02-10T19:12:11Z</time>
   </trkpt>
   <trkpt lat="32.7625814" lon="35.2057102">
    <ele>192.5</ele>
    <time>2013-02-10T19:12:13Z</time>
   </trkpt>
   <trkpt lat="32.7625967" lon="35.2057620">
    <ele>192.8</ele>
    <time>2013-02-10T19:12:15Z</time>
   </trkpt>
   <trkpt lat="32.7626165" lon="35.2058098">
    <ele>193.1</ele>
    <time>2013-02-10T19:12:17Z</time>
   </trkpt>
   <trkpt lat="32.7626385" lon="35.2058579">
    <ele>193.4</ele>
    <time>2013-02-10T19:12:19Z</time>
   </trkpt>
   <trkpt lat="32.7626536" lon="35.2058988">
    <ele>193.6</ele>
    <time>2013-02-10T19:12:21Z</time>
   </trkpt>
   <trkpt lat="32.7626692" lon="35.2059428">
    <ele>193.9</ele>
    <time>2013-02-10T19:12:23Z</time>
   </trkpt>
   <trkpt lat="32.7626834" lon="35.2059833">
    <ele>194.2</ele>
    <time>2013-02-10T19:12:25Z</time>
   </trkpt>
   <trkpt lat="32.7626993" lon="35.2060309">
    <ele>194.5</ele>
    <time>2013-02-10T19:12:27Z</time>
   </trkpt>
   <trkpt lat="32.7627044" lon="35.2060894">
    <ele>194.7</ele>
    <time>2013-02-10T19:12:29Z</time>
   </trkpt>
   <trkpt lat="32.7627070" lon="35.2061462">
    <ele>194.9</ele>
    <time>2013-02-10T19:12:31Z</time>
   </trkpt>
   <trkpt lat="32.7627097" lon="35.2061938">
    <ele>195.1</ele>
    <time>2013-02-10T19:12:33Z</time>
   </trkpt>
   <trkpt lat="32.7627207" lon="35.2062381">
    <ele>195.4</ele>
    <time>2013-02-10T19:12:35Z</time>
   </trkpt>
   <trkpt lat="32.7627369" lon="35.2062743">
    <ele>195.8</ele>
    <time>2013-02-10T19:12:37Z</time>
   </trkpt>
   <trkpt lat="32.7627559" lon="35.2063064">
    <ele>196.2</ele>
    <time>2013-02-10T19:12:39Z</time>
   </trkpt>
   <trkpt lat="32.7627729" lon="35.2063406">
    <ele>196.6</ele>
    <time>2013-02-10T19:12:41Z</time>
   </trkpt>
   <trkpt lat="32.7627857" lon="35.2063824">
    <ele>197.1</ele>
    <time>2013-02-10T19:12:43Z</time>
   </trkpt>
   <trkpt lat="32.7627886" lon="35.2064277">
    <ele>197.4</ele>
    <time>2013-02-10T19:12:45Z</time>
   </trkpt>
   <trkpt lat="32.7627804" lon="35.2064676">
    <ele>197.5</ele>
    <time>2013-02-10T19:12:47Z</time>
   </trkpt>
   <trkpt lat="32.7627688" lon="35.2065066">
    <ele>197.6</ele>
    <time>2013-02-10T19:12:49Z</time>
   </trkpt>
   <trkpt lat="32.7627719" lon="35.2065529">
    <ele>197.9</ele>
    <time>2013-02-10T19:12:52Z</time>
   </trkpt>
   <trkpt lat="32.7627965" lon="35.2065773">
    <ele>198.4</ele>
    <time>2013-02-10T19:12:54Z</time>
   </trkpt>
   <trkpt lat="32.7628243" lon="35.2066037">
    <ele>198.9</ele>
    <time>2013-02-10T19:12:56Z</time>
   </trkpt>
   <trkpt lat="32.7628545" lon="35.2066355">
    <ele>199.5</ele>
    <time>2013-02-10T19:12:58Z</time>
   </trkpt>
   <trkpt lat="32.7628780" lon="35.2066689">
    <ele>200.0</ele>
    <time>2013-02-10T19:13:00Z</time>
   </trkpt>
   <trkpt lat="32.7629008" lon="35.2067063">
    <ele>200.5</ele>
    <time>2013-02-10T19:13:02Z</time>
   </trkpt>
   <trkpt lat="32.7629265" lon="35.2067409">
    <ele>200.9</ele>
    <time>2013-02-10T19:13:04Z</time>
   </trkpt>
   <trkpt lat="32.7629530" lon="35.2067743">
    <ele>200.9</ele>
    <time>2013-02-10T19:13:06Z</time>
   </trkpt>
   <trkpt lat="32.7629825" lon="35.2068027">
    <ele>200.9</ele>
    <time>2013-02-10T19:13:08Z</time>
   </trkpt>
   <trkpt lat="32.7630104" lon="35.2068325">
    <ele>201.0</ele>
    <time>2013-02-10T19:13:10Z</time>
   </trkpt>
   <trkpt lat="32.7630370" lon="35.2068623">
    <ele>201.1</ele>
    <time>2013-02-10T19:13:12Z</time>
   </trkpt>
   <trkpt lat="32.7630599" lon="35.2068919">
    <ele>201.2</ele>
    <time>2013-02-10T19:13:14Z</time>
   </trkpt>
   <trkpt lat="32.7630823" lon="35.2069277">
    <ele>201.4</ele>
    <time>2013-02-10T19:13:16Z</time>
   </trkpt>
   <trkpt lat="32.7631008" lon="35.2069738">
    <ele>201.7</ele>
    <time>2013-02-10T19:13:18Z</time>
   </trkpt>
   <trkpt lat="32.7631190" lon="35.2070193">
    <ele>202.0</ele>
    <time>2013-02-10T19:13:20Z</time>
   </trkpt>
   <trkpt lat="32.7631368" lon="35.2070516">
    <ele>202.2</ele>
    <time>2013-02-10T19:13:22Z</time>
   </trkpt>
   <trkpt lat="32.7631580" lon="35.2070884">
    <ele>202.5</ele>
    <time>2013-02-10T19:13:25Z</time>
   </trkpt>
   <trkpt lat="32.7631825" lon="35.2071185">
    <ele>202.7</ele>
    <time>2013-02-10T19:13:27Z</time>
   </trkpt>
   <trkpt lat="32.7632118" lon="35.2071494">
    <ele>203.0</ele>
    <time>2013-02-10T19:13:29Z</time>
   </trkpt>
   <trkpt lat="32.7632431" lon="35.2071831">
    <ele>203.3</ele>
    <time>2013-02-10T19:13:31Z</time>
   </trkpt>
   <trkpt lat="32.7632684" lon="35.2072201">
    <ele>203.7</ele>
    <time>2013-02-10T19:13:33Z</time>
   </trkpt>
   <trkpt lat="32.7632918" lon="35.2072563">
    <ele>204.1</ele>
    <time>2013-02-10T19:13:35Z</time>
   </trkpt>
   <trkpt lat="32.7633163" lon="35.2072852">
    <ele>204.4</ele>
    <time>2013-02-10T19:13:37Z</time>
   </trkpt>
   <trkpt lat="32.7633444" lon="35.2073135">
    <ele>204.8</ele>
    <time>2013-02-10T19:13:39Z</time>
   </trkpt>
   <trkpt lat="32.7633705" lon="35.2073434">
    <ele>205.1</ele>
    <time>2013-02-10T19:13:41Z</time>
   </trkpt>
   <trkpt lat="32.7633916" lon="35.2073875">
    <ele>205.7</ele>
    <time>2013-02-10T19:13:43Z</time>
   </trkpt>
   <trkpt lat="32.7634066" lon="35.2074280">
    <ele>206.3</ele>
    <time>2013-02-10T19:13:45Z</time>
   </trkpt>
   <trkpt lat="32.7634223" lon="35.2074723">
    <ele>206.9</ele>
    <time>2013-02-10T19:13:47Z</time>
   </trkpt>
   <trkpt lat="32.7634363" lon="35.2075242">
    <ele>207.6</ele>
    <time>2013-02-10T19:13:49Z</time>
   </trkpt>
   <trkpt lat="32.7634431" lon="35.2075708">
    <ele>208.2</ele>
    <time>2013-02-10T19:13:51Z</time>
   </trkpt>
   <trkpt lat="32.7634205" lon="35.2075989">
    <ele>208.5</ele>
    <time>2013-02-10T19:13:54Z</time>
   </trkpt>
   <trkpt lat="32.7633817" lon="35.2076107">
    <ele>208.5</ele>
    <time>2013-02-10T19:13:57Z</time>
   </trkpt>
   <trkpt lat="32.7633524" lon="35.2076189">
    <ele>208.5</ele>
    <time>2013-02-10T19:13:59Z</time>
   </trkpt>
   <trkpt lat="32.7633259" lon="35.2076328">
    <ele>208.6</ele>
    <time>2013-02-10T19:14:01Z</time>
   </trkpt>
   <trkpt lat="32.7633072" lon="35.2076565">
    <ele>208.8</ele>
    <time>2013-02-10T19:14:03Z</time>
   </trkpt>
   <trkpt lat="32.7632925" lon="35.2076896">
    <ele>209.1</ele>
    <time>2013-02-10T19:14:05Z</time>
   </trkpt>
   <trkpt lat="32.7632824" lon="35.2077274">
    <ele>209.5</ele>
    <time>2013-02-10T19:14:07Z</time>
   </trkpt>
   <trkpt lat="32.7632573" lon="35.2077458">
    <ele>209.6</ele>
    <time>2013-02-10T19:14:09Z</time>
   </trkpt>
   <trkpt lat="32.7632277" lon="35.2077500">
    <ele>209.4</ele>
    <time>2013-02-10T19:14:11Z</time>
   </trkpt>
   <trkpt lat="32.7631935" lon="35.2077493">
    <ele>209.3</ele>
    <time>2013-02-10T19:14:13Z</time>
   </trkpt>
   <trkpt lat="32.7631562" lon="35.2077533">
    <ele>209.1</ele>
    <time>2013-02-10T19:14:15Z</time>
   </trkpt>
   <trkpt lat="32.7631223" lon="35.2077619">
    <ele>209.0</ele>
    <time>2013-02-10T19:14:17Z</time>
   </trkpt>
   <trkpt lat="32.7630931" lon="35.2077734">
    <ele>208.9</ele>
    <time>2013-02-10T19:14:19Z</time>
   </trkpt>
   <trkpt lat="32.7630799" lon="35.2078075">
    <ele>209.2</ele>
    <time>2013-02-10T19:14:21Z</time>
   </trkpt>
   <trkpt lat="32.7630663" lon="35.2078518">
    <ele>209.5</ele>
    <time>2013-02-10T19:14:23Z</time>
   </trkpt>
   <trkpt lat="32.7630557" lon="35.2078957">
    <ele>209.8</ele>
    <time>2013-02-10T19:14:25Z</time>
   </trkpt>
   <trkpt lat="32.7630453" lon="35.2079380">
    <ele>210.2</ele>
    <time>2013-02-10T19:14:27Z</time>
   </trkpt>
   <trkpt lat="32.7630351" lon="35.2079754">
    <ele>210.7</ele>
    <time>2013-02-10T19:14:29Z</time>
   </trkpt>
   <trkpt lat="32.7630205" lon="35.2080052">
    <ele>211.0</ele>
    <time>2013-02-10T19:14:31Z</time>
   </trkpt>
   <trkpt lat="32.7629854" lon="35.2080299">
    <ele>211.0</ele>
    <time>2013-02-10T19:14:34Z</time>
   </trkpt>
   <trkpt lat="32.7629368" lon="35.2080568">
    <ele>211.0</ele>
    <time>2013-02-10T19:14:37Z</time>
   </trkpt>
   <trkpt lat="32.7629204" lon="35.2080958">
    <ele>211.4</ele>
    <time>2013-02-10T19:14:40Z</time>
   </trkpt>
   <trkpt lat="32.7629256" lon="35.2081274">
    <ele>211.9</ele>
    <time>2013-02-10T19:14:42Z</time>
   </trkpt>
   <trkpt lat="32.7629565" lon="35.2081623">
    <ele>212.6</ele>
    <time>2013-02-10T19:14:45Z</time>
   </trkpt>
   <trkpt lat="32.7629828" lon="35.2081949">
    <ele>213.2</ele>
    <time>2013-02-10T19:14:48Z</time>
   </trkpt>
   <trkpt lat="32.7630098" lon="35.2082289">
    <ele>213.9</ele>
    <time>2013-02-10T19:14:51Z</time>
   </trkpt>
   <trkpt lat="32.7630410" lon="35.2082505">
    <ele>214.5</ele>
    <time>2013-02-10T19:14:54Z</time>
   </trkpt>
   <trkpt lat="32.7630681" lon="35.2082705">
    <ele>215.0</ele>
    <time>2013-02-10T19:14:57Z</time>
   </trkpt>
   <trkpt lat="32.7630917" lon="35.2083097">
    <ele>215.7</ele>
    <time>2013-02-10T19:15:00Z</time>
   </trkpt>
   <trkpt lat="32.7631096" lon="35.2083399">
    <ele>216.3</ele>
    <time>2013-02-10T19:15:02Z</time>
   </trkpt>
   <trkpt lat="32.7631270" lon="35.2083743">
    <ele>217.0</ele>
    <time>2013-02-10T19:15:05Z</time>
   </trkpt>
   <trkpt lat="32.7631486" lon="35.2084038">
    <ele>217.6</ele>
    <time>2013-02-10T19:15:11Z</time>
   </trkpt>
   <trkpt lat="32.7631359" lon="35.2084324">
    <ele>217.9</ele>
    <time>2013-02-10T19:15:13Z</time>
   </trkpt>
   <trkpt lat="32.7631137" lon="35.2084646">
    <ele>218.1</ele>
    <time>2013-02-10T19:15:15Z</time>
   </trkpt>
   <trkpt lat="32.7631004" lon="35.2085045">
    <ele>218.5</ele>
    <time>2013-02-10T19:15:17Z</time>
   </trkpt>
   <trkpt lat="32.7630921" lon="35.2085433">
    <ele>219.0</ele>
    <time>2013-02-10T19:15:19Z</time>
   </trkpt>
   <trkpt lat="32.7630853" lon="35.2085790">
    <ele>219.4</ele>
    <time>2013-02-10T19:15:21Z</time>
   </trkpt>
   <trkpt lat="32.7630762" lon="35.2086195">
    <ele>219.9</ele>
    <time>2013-02-10T19:15:24Z</time>
   </trkpt>
   <trkpt lat="32.7630775" lon="35.2086628">
    <ele>220.5</ele>
    <time>2013-02-10T19:15:27Z</time>
   </trkpt>
   <trkpt lat="32.7630749" lon="35.2087047">
    <ele>221.1</ele>
    <time>2013-02-10T19:15:30Z</time>
   </trkpt>
   <trkpt lat="32.7630967" lon="35.2087446">
    <ele>221.9</ele>
    <time>2013-02-10T19:15:33Z</time>
   </trkpt>
   <trkpt lat="32.7631198" lon="35.2087661">
    <ele>222.4</ele>
    <time>2013-02-10T19:15:35Z</time>
   </trkpt>
   <trkpt lat="32.7631370" lon="35.2087957">
    <ele>222.9</ele>
    <time>2013-02-10T19:15:37Z</time>
   </trkpt>
   <trkpt lat="32.7631665" lon="35.2088220">
    <ele>223.5</ele>
    <time>2013-02-10T19:15:40Z</time>
   </trkpt>
   <trkpt lat="32.7632002" lon="35.2088290">
    <ele>223.9</ele>
    <time>2013-02-10T19:15:43Z</time>
   </trkpt>
   <trkpt lat="32.7632344" lon="35.2088288">
    <ele>224.3</ele>
    <time>2013-02-10T19:15:46Z</time>
   </trkpt>
   <trkpt lat="32.7632528" lon="35.2088001">
    <ele>224.2</ele>
    <time>2013-02-10T19:20:30Z</time>
   </trkpt>
   <trkpt lat="32.7632765" lon="35.2087815">
    <ele>224.2</ele>
    <time>2013-02-10T19:20:35Z</time>
   </trkpt>
   <trkpt lat="32.7632449" lon="35.2087710">
    <ele>223.8</ele>
    <time>2013-02-10T19:20:58Z</time>
   </trkpt>
   <trkpt lat="32.7632717" lon="35.2087566">
    <ele>223.9</ele>
    <time>2013-02-10T19:21:28Z</time>
   </trkpt>
   <trkpt lat="32.7633025" lon="35.2087791">
    <ele>224.5</ele>
    <time>2013-02-10T19:22:17Z</time>
   </trkpt>
   <trkpt lat="32.7633497" lon="35.2087962">
    <ele>225.2</ele>
    <time>2013-02-10T19:22:19Z</time>
   </trkpt>
   <trkpt lat="32.7633919" lon="35.2087929">
    <ele>225.6</ele>
    <time>2013-02-10T19:22:21Z</time>
   </trkpt>
   <trkpt lat="32.7634131" lon="35.2088165">
    <ele>226.1</ele>
    <time>2013-02-10T19:22:22Z</time>
   </trkpt>
   <trkpt lat="32.7634541" lon="35.2088201">
    <ele>226.6</ele>
    <time>2013-02-10T19:22:24Z</time>
   </trkpt>
   <trkpt lat="32.7634896" lon="35.2088235">
    <ele>227.0</ele>
    <time>2013-02-10T19:22:26Z</time>
   </trkpt>
   <trkpt lat="32.7635252" lon="35.2088280">
    <ele>227.5</ele>
    <time>2013-02-10T19:22:28Z</time>
   </trkpt>
   <trkpt lat="32.7635578" lon="35.2088303">
    <ele>227.9</ele>
    <time>2013-02-10T19:22:30Z</time>
   </trkpt>
   <trkpt lat="32.7635857" lon="35.2088423">
    <ele>228.3</ele>
    <time>2013-02-10T19:22:32Z</time>
   </trkpt>
   <trkpt lat="32.7636221" lon="35.2088437">
    <ele>228.7</ele>
    <time>2013-02-10T19:22:34Z</time>
   </trkpt>
   <trkpt lat="32.7636610" lon="35.2088429">
    <ele>229.1</ele>
    <time>2013-02-10T19:22:36Z</time>
   </trkpt>
   <trkpt lat="32.7637040" lon="35.2088396">
    <ele>229.6</ele>
    <time>2013-02-10T19:22:38Z</time>
   </trkpt>
   <trkpt lat="32.7637485" lon="35.2088357">
    <ele>230.0</ele>
    <time>2013-02-10T19:22:40Z</time>
   </trkpt>
   <trkpt lat="32.7637922" lon="35.2088277">
    <ele>229.5</ele>
    <time>2013-02-10T19:22:42Z</time>
   </trkpt>
   <trkpt lat="32.7638343" lon="35.2088436">
    <ele>229.2</ele>
    <time>2013-02-10T19:22:44Z</time>
   </trkpt>
   <trkpt lat="32.7638766" lon="35.2088561">
    <ele>228.9</ele>
    <time>2013-02-10T19:22:46Z</time>
   </trkpt>
   <trkpt lat="32.7639201" lon="35.2088786">
    <ele>228.8</ele>
    <time>2013-02-10T19:22:48Z</time>
   </trkpt>
   <trkpt lat="32.7639537" lon="35.2089122">
    <ele>228.9</ele>
    <time>2013-02-10T19:22:50Z</time>
   </trkpt>
   <trkpt lat="32.7639826" lon="35.2089525">
    <ele>229.2</ele>
    <time>2013-02-10T19:22:52Z</time>
   </trkpt>
   <trkpt lat="32.7640173" lon="35.2089902">
    <ele>229.4</ele>
    <time>2013-02-10T19:22:54Z</time>
   </trkpt>
   <trkpt lat="32.7640597" lon="35.2090250">
    <ele>229.6</ele>
    <time>2013-02-10T19:22:56Z</time>
   </trkpt>
   <trkpt lat="32.7640945" lon="35.2090522">
    <ele>229.7</ele>
    <time>2013-02-10T19:22:58Z</time>
   </trkpt>
   <trkpt lat="32.7641196" lon="35.2090842">
    <ele>230.0</ele>
    <time>2013-02-10T19:23:00Z</time>
   </trkpt>
   <trkpt lat="32.7641373" lon="35.2091187">
    <ele>230.4</ele>
    <time>2013-02-10T19:23:02Z</time>
   </trkpt>
   <trkpt lat="32.7641572" lon="35.2091621">
    <ele>231.0</ele>
    <time>2013-02-10T19:23:04Z</time>
   </trkpt>
   <trkpt lat="32.7641800" lon="35.2092072">
    <ele>231.6</ele>
    <time>2013-02-10T19:23:06Z</time>
   </trkpt>
   <trkpt lat="32.7642032" lon="35.2092527">
    <ele>232.2</ele>
    <time>2013-02-10T19:23:08Z</time>
   </trkpt>
   <trkpt lat="32.7642262" lon="35.2092940">
    <ele>232.8</ele>
    <time>2013-02-10T19:23:10Z</time>
   </trkpt>
   <trkpt lat="32.7642260" lon="35.2093653">
    <ele>234.0</ele>
    <time>2013-02-10T19:23:12Z</time>
   </trkpt>
   <trkpt lat="32.7642239" lon="35.2094057">
    <ele>234.8</ele>
    <time>2013-02-10T19:23:13Z</time>
   </trkpt>
   <trkpt lat="32.7642201" lon="35.2094527">
    <ele>235.6</ele>
    <time>2013-02-10T19:23:14Z</time>
   </trkpt>
   <trkpt lat="32.7642176" lon="35.2094929">
    <ele>236.3</ele>
    <time>2013-02-10T19:23:15Z</time>
   </trkpt>
   <trkpt lat="32.7642179" lon="35.2095475">
    <ele>237.3</ele>
    <time>2013-02-10T19:23:17Z</time>
   </trkpt>
   <trkpt lat="32.7642162" lon="35.2095842">
    <ele>237.9</ele>
    <time>2013-02-10T19:23:19Z</time>
   </trkpt>
   <trkpt lat="32.7642148" lon="35.2096165">
    <ele>238.2</ele>
    <time>2013-02-10T19:23:21Z</time>
   </trkpt>
   <trkpt lat="32.7642211" lon="35.2096501">
    <ele>238.4</ele>
    <time>2013-02-10T19:23:23Z</time>
   </trkpt>
   <trkpt lat="32.7642379" lon="35.2096867">
    <ele>238.7</ele>
    <time>2013-02-10T19:23:25Z</time>
   </trkpt>
   <trkpt lat="32.7642592" lon="35.2097225">
    <ele>239.0</ele>
    <time>2013-02-10T19:23:27Z</time>
   </trkpt>
   <trkpt lat="32.7643088" lon="35.2097506">
    <ele>239.1</ele>
    <time>2013-02-10T19:23:29Z</time>
   </trkpt>
   <trkpt lat="32.7643356" lon="35.2097712">
    <ele>239.3</ele>
    <time>2013-02-10T19:23:30Z</time>
   </trkpt>
   <trkpt lat="32.7643672" lon="35.2097941">
    <ele>239.4</ele>
    <time>2013-02-10T19:23:31Z</time>
   </trkpt>
   <trkpt lat="32.7643942" lon="35.2098227">
    <ele>239.6</ele>
    <time>2013-02-10T19:23:32Z</time>
   </trkpt>
   <trkpt lat="32.7644339" lon="35.2098496">
    <ele>239.8</ele>
    <time>2013-02-10T19:23:33Z</time>
   </trkpt>
   <trkpt lat="32.7644636" lon="35.2098786">
    <ele>240.0</ele>
    <time>2013-02-10T19:23:34Z</time>
   </trkpt>
   <trkpt lat="32.7644957" lon="35.2099044">
    <ele>240.2</ele>
    <time>2013-02-10T19:23:35Z</time>
   </trkpt>
   <trkpt lat="32.7645257" lon="35.2099237">
    <ele>240.3</ele>
    <time>2013-02-10T19:23:36Z</time>
   </trkpt>
   <trkpt lat="32.7645590" lon="35.2099473">
    <ele>240.5</ele>
    <time>2013-02-10T19:23:37Z</time>
   </trkpt>
   <trkpt lat="32.7645874" lon="35.2099701">
    <ele>240.6</ele>
    <time>2013-02-10T19:23:38Z</time>
   </trkpt>
   <trkpt lat="32.7646374" lon="35.2100116">
    <ele>240.2</ele>
    <time>2013-02-10T19:23:40Z</time>
   </trkpt>
   <trkpt lat="32.7646756" lon="35.2100579">
    <ele>240.0</ele>
    <time>2013-02-10T19:23:42Z</time>
   </trkpt>
   <trkpt lat="32.7647050" lon="35.2100907">
    <ele>239.8</ele>
    <time>2013-02-10T19:23:44Z</time>
   </trkpt>
   <trkpt lat="32.7647467" lon="35.2101232">
    <ele>239.4</ele>
    <time>2013-02-10T19:23:46Z</time>
   </trkpt>
   <trkpt lat="32.7647712" lon="35.2101425">
    <ele>239.2</ele>
    <time>2013-02-10T19:23:47Z</time>
   </trkpt>
   <trkpt lat="32.7647963" lon="35.2101644">
    <ele>239.0</ele>
    <time>2013-02-10T19:23:48Z</time>
   </trkpt>
   <trkpt lat="32.7648131" lon="35.2101959">
    <ele>239.1</ele>
    <time>2013-02-10T19:23:49Z</time>
   </trkpt>
   <trkpt lat="32.7648282" lon="35.2102282">
    <ele>239.2</ele>
    <time>2013-02-10T19:23:50Z</time>
   </trkpt>
   <trkpt lat="32.7648462" lon="35.2102928">
    <ele>239.6</ele>
    <time>2013-02-10T19:23:52Z</time>
   </trkpt>
   <trkpt lat="32.7648515" lon="35.2103260">
    <ele>239.8</ele>
    <time>2013-02-10T19:23:53Z</time>
   </trkpt>
   <trkpt lat="32.7648534" lon="35.2103656">
    <ele>240.2</ele>
    <time>2013-02-10T19:23:54Z</time>
   </trkpt>
   <trkpt lat="32.7648539" lon="35.2104005">
    <ele>240.6</ele>
    <time>2013-02-10T19:23:55Z</time>
   </trkpt>
   <trkpt lat="32.7648527" lon="35.2104398">
    <ele>240.9</ele>
    <time>2013-02-10T19:23:56Z</time>
   </trkpt>
   <trkpt lat="32.7648508" lon="35.2104749">
    <ele>241.0</ele>
    <time>2013-02-10T19:23:57Z</time>
   </trkpt>
   <trkpt lat="32.7648541" lon="35.2105075">
    <ele>241.0</ele>
    <time>2013-02-10T19:23:58Z</time>
   </trkpt>
   <trkpt lat="32.7648593" lon="35.2105427">
    <ele>241.0</ele>
    <time>2013-02-10T19:23:59Z</time>
   </trkpt>
   <trkpt lat="32.7648788" lon="35.2106078">
    <ele>240.9</ele>
    <time>2013-02-10T19:24:01Z</time>
   </trkpt>
   <trkpt lat="32.7648923" lon="35.2106384">
    <ele>240.8</ele>
    <time>2013-02-10T19:24:02Z</time>
   </trkpt>
   <trkpt lat="32.7649105" lon="35.2106772">
    <ele>240.6</ele>
    <time>2013-02-10T19:24:03Z</time>
   </trkpt>
   <trkpt lat="32.7649303" lon="35.2107156">
    <ele>240.5</ele>
    <time>2013-02-10T19:24:04Z</time>
   </trkpt>
   <trkpt lat="32.7649495" lon="35.2107564">
    <ele>240.4</ele>
    <time>2013-02-10T19:24:05Z</time>
   </trkpt>
   <trkpt lat="32.7649633" lon="35.2107914">
    <ele>240.3</ele>
    <time>2013-02-10T19:24:06Z</time>
   </trkpt>
   <trkpt lat="32.7649741" lon="35.2108356">
    <ele>240.3</ele>
    <time>2013-02-10T19:24:07Z</time>
   </trkpt>
   <trkpt lat="32.7649855" lon="35.2108710">
    <ele>240.3</ele>
    <time>2013-02-10T19:24:08Z</time>
   </trkpt>
   <trkpt lat="32.7649935" lon="35.2109046">
    <ele>240.3</ele>
    <time>2013-02-10T19:24:09Z</time>
   </trkpt>
   <trkpt lat="32.7650013" lon="35.2109405">
    <ele>240.4</ele>
    <time>2013-02-10T19:24:10Z</time>
   </trkpt>
   <trkpt lat="32.7650099" lon="35.2109744">
    <ele>240.4</ele>
    <time>2013-02-10T19:24:11Z</time>
   </trkpt>
   <trkpt lat="32.7650167" lon="35.2110129">
    <ele>240.5</ele>
    <time>2013-02-10T19:24:12Z</time>
   </trkpt>
   <trkpt lat="32.7650157" lon="35.2110532">
    <ele>240.6</ele>
    <time>2013-02-10T19:24:13Z</time>
   </trkpt>
   <trkpt lat="32.7650109" lon="35.2110888">
    <ele>240.8</ele>
    <time>2013-02-10T19:24:14Z</time>
   </trkpt>
   <trkpt lat="32.7650142" lon="35.2111300">
    <ele>240.9</ele>
    <time>2013-02-10T19:24:15Z</time>
   </trkpt>
   <trkpt lat="32.7650186" lon="35.2112281">
    <ele>241.3</ele>
    <time>2013-02-10T19:24:17Z</time>
   </trkpt>
   <trkpt lat="32.7650180" lon="35.2112613">
    <ele>241.4</ele>
    <time>2013-02-10T19:24:18Z</time>
   </trkpt>
   <trkpt lat="32.7650224" lon="35.2113102">
    <ele>241.5</ele>
    <time>2013-02-10T19:24:19Z</time>
   </trkpt>
   <trkpt lat="32.7650323" lon="35.2113569">
    <ele>241.6</ele>
    <time>2013-02-10T19:24:20Z</time>
   </trkpt>
   <trkpt lat="32.7650469" lon="35.2113997">
    <ele>241.7</ele>
    <time>2013-02-10T19:24:21Z</time>
   </trkpt>
   <trkpt lat="32.7650591" lon="35.2114470">
    <ele>241.8</ele>
    <time>2013-02-10T19:24:22Z</time>
   </trkpt>
   <trkpt lat="32.7650769" lon="35.2114911">
    <ele>241.9</ele>
    <time>2013-02-10T19:24:23Z</time>
   </trkpt>
   <trkpt lat="32.7650880" lon="35.2115308">
    <ele>242.0</ele>
    <time>2013-02-10T19:24:24Z</time>
   </trkpt>
   <trkpt lat="32.7651190" lon="35.2115704">
    <ele>242.0</ele>
    <time>2013-02-10T19:24:25Z</time>
   </trkpt>
   <trkpt lat="32.7651307" lon="35.2116154">
    <ele>242.1</ele>
    <time>2013-02-10T19:24:26Z</time>
   </trkpt>
   <trkpt lat="32.7651309" lon="35.2116574">
    <ele>242.3</ele>
    <time>2013-02-10T19:24:27Z</time>
   </trkpt>
   <trkpt lat="32.7651500" lon="35.2117080">
    <ele>242.5</ele>
    <time>2013-02-10T19:24:28Z</time>
   </trkpt>
   <trkpt lat="32.7651594" lon="35.2117523">
    <ele>242.7</ele>
    <time>2013-02-10T19:24:29Z</time>
   </trkpt>
   <trkpt lat="32.7651641" lon="35.2117884">
    <ele>242.8</ele>
    <time>2013-02-10T19:24:30Z</time>
   </trkpt>
   <trkpt lat="32.7652038" lon="35.2118106">
    <ele>242.8</ele>
    <time>2013-02-10T19:24:31Z</time>
   </trkpt>
   <trkpt lat="32.7652218" lon="35.2118525">
    <ele>243.0</ele>
    <time>2013-02-10T19:24:32Z</time>
   </trkpt>
   <trkpt lat="32.7652543" lon="35.2118891">
    <ele>243.1</ele>
    <time>2013-02-10T19:24:33Z</time>
   </trkpt>
   <trkpt lat="32.7652932" lon="35.2119220">
    <ele>243.2</ele>
    <time>2013-02-10T19:24:34Z</time>
   </trkpt>
   <trkpt lat="32.7653379" lon="35.2119484">
    <ele>243.2</ele>
    <time>2013-02-10T19:24:35Z</time>
   </trkpt>
   <trkpt lat="32.7653799" lon="35.2119801">
    <ele>243.3</ele>
    <time>2013-02-10T19:24:36Z</time>
   </trkpt>
   <trkpt lat="32.7654177" lon="35.2120789">
    <ele>243.9</ele>
    <time>2013-02-10T19:24:37Z</time>
   </trkpt>
   <trkpt lat="32.7654132" lon="35.2121413">
    <ele>244.0</ele>
    <time>2013-02-10T19:24:38Z</time>
   </trkpt>
   <trkpt lat="32.7654224" lon="35.2122166">
    <ele>243.9</ele>
    <time>2013-02-10T19:24:39Z</time>
   </trkpt>
   <trkpt lat="32.7654231" lon="35.2122800">
    <ele>243.9</ele>
    <time>2013-02-10T19:24:40Z</time>
   </trkpt>
   <trkpt lat="32.7654452" lon="35.2123343">
    <ele>243.4</ele>
    <time>2013-02-10T19:24:42Z</time>
   </trkpt>
   <trkpt lat="32.7654387" lon="35.2124023">
    <ele>243.6</ele>
    <time>2013-02-10T19:24:43Z</time>
   </trkpt>
   <trkpt lat="32.7654396" lon="35.2124608">
    <ele>243.6</ele>
    <time>2013-02-10T19:24:44Z</time>
   </trkpt>
   <trkpt lat="32.7654380" lon="35.2125119">
    <ele>243.6</ele>
    <time>2013-02-10T19:24:45Z</time>
   </trkpt>
   <trkpt lat="32.7654504" lon="35.2125584">
    <ele>243.4</ele>
    <time>2013-02-10T19:24:47Z</time>
   </trkpt>
   <trkpt lat="32.7654756" lon="35.2126561">
    <ele>243.1</ele>
    <time>2013-02-10T19:24:49Z</time>
   </trkpt>
   <trkpt lat="32.7654898" lon="35.2127153">
    <ele>242.9</ele>
    <time>2013-02-10T19:24:51Z</time>
   </trkpt>
   <trkpt lat="32.7654951" lon="35.2127760">
    <ele>242.9</ele>
    <time>2013-02-10T19:24:53Z</time>
   </trkpt>
   <trkpt lat="32.7654931" lon="35.2128167">
    <ele>243.0</ele>
    <time>2013-02-10T19:24:54Z</time>
   </trkpt>
   <trkpt lat="32.7654947" lon="35.2128597">
    <ele>243.0</ele>
    <time>2013-02-10T19:24:55Z</time>
   </trkpt>
   <trkpt lat="32.7654929" lon="35.2129020">
    <ele>243.1</ele>
    <time>2013-02-10T19:24:56Z</time>
   </trkpt>
   <trkpt lat="32.7654872" lon="35.2129469">
    <ele>243.2</ele>
    <time>2013-02-10T19:24:57Z</time>
   </trkpt>
   <trkpt lat="32.7654789" lon="35.2129888">
    <ele>243.3</ele>
    <time>2013-02-10T19:24:58Z</time>
   </trkpt>
   <trkpt lat="32.7654700" lon="35.2130279">
    <ele>243.4</ele>
    <time>2013-02-10T19:24:59Z</time>
   </trkpt>
   <trkpt lat="32.7654624" lon="35.2130638">
    <ele>243.5</ele>
    <time>2013-02-10T19:25:00Z</time>
   </trkpt>
   <trkpt lat="32.7654561" lon="35.2131011">
    <ele>243.5</ele>
    <time>2013-02-10T19:25:01Z</time>
   </trkpt>
   <trkpt lat="32.7654478" lon="35.2131555">
    <ele>243.6</ele>
    <time>2013-02-10T19:25:03Z</time>
   </trkpt>
   <trkpt lat="32.7654330" lon="35.2132135">
    <ele>243.8</ele>
    <time>2013-02-10T19:25:05Z</time>
   </trkpt>
   <trkpt lat="32.7654168" lon="35.2132637">
    <ele>244.0</ele>
    <time>2013-02-10T19:25:07Z</time>
   </trkpt>
   <trkpt lat="32.7653941" lon="35.2133193">
    <ele>244.1</ele>
    <time>2013-02-10T19:25:09Z</time>
   </trkpt>
   <trkpt lat="32.7653804" lon="35.2133682">
    <ele>244.2</ele>
    <time>2013-02-10T19:25:11Z</time>
   </trkpt>
   <trkpt lat="32.7653777" lon="35.2134321">
    <ele>244.2</ele>
    <time>2013-02-10T19:25:13Z</time>
   </trkpt>
   <trkpt lat="32.7653899" lon="35.2134658">
    <ele>244.1</ele>
    <time>2013-02-10T19:25:14Z</time>
   </trkpt>
   <trkpt lat="32.7653871" lon="35.2135329">
    <ele>244.1</ele>
    <time>2013-02-10T19:25:16Z</time>
   </trkpt>
   <trkpt lat="32.7653756" lon="35.2135753">
    <ele>244.2</ele>
    <time>2013-02-10T19:25:17Z</time>
   </trkpt>
   <trkpt lat="32.7653653" lon="35.2136072">
    <ele>244.2</ele>
    <time>2013-02-10T19:25:18Z</time>
   </trkpt>
   <trkpt lat="32.7653619" lon="35.2136611">
    <ele>244.3</ele>
    <time>2013-02-10T19:25:19Z</time>
   </trkpt>
   <trkpt lat="32.7653325" lon="35.2137503">
    <ele>244.4</ele>
    <time>2013-02-10T19:25:21Z</time>
   </trkpt>
   <trkpt lat="32.7653238" lon="35.2137960">
    <ele>244.5</ele>
    <time>2013-02-10T19:25:22Z</time>
   </trkpt>
   <trkpt lat="32.7653202" lon="35.2138297">
    <ele>244.5</ele>
    <time>2013-02-10T19:25:23Z</time>
   </trkpt>
   <trkpt lat="32.7653024" lon="35.2138927">
    <ele>244.7</ele>
    <time>2013-02-10T19:25:24Z</time>
   </trkpt>
   <trkpt lat="32.7652929" lon="35.2139254">
    <ele>244.7</ele>
    <time>2013-02-10T19:25:25Z</time>
   </trkpt>
   <trkpt lat="32.7652823" lon="35.2139690">
    <ele>244.8</ele>
    <time>2013-02-10T19:25:26Z</time>
   </trkpt>
   <trkpt lat="32.7652708" lon="35.2140155">
    <ele>244.9</ele>
    <time>2013-02-10T19:25:27Z</time>
   </trkpt>
   <trkpt lat="32.7652546" lon="35.2140620">
    <ele>245.0</ele>
    <time>2013-02-10T19:25:28Z</time>
   </trkpt>
   <trkpt lat="32.7652450" lon="35.2140964">
    <ele>245.1</ele>
    <time>2013-02-10T19:25:29Z</time>
   </trkpt>
   <trkpt lat="32.7652309" lon="35.2141574">
    <ele>245.2</ele>
    <time>2013-02-10T19:25:30Z</time>
   </trkpt>
   <trkpt lat="32.7652228" lon="35.2141965">
    <ele>245.2</ele>
    <time>2013-02-10T19:25:31Z</time>
   </trkpt>
   <trkpt lat="32.7652058" lon="35.2142543">
    <ele>245.3</ele>
    <time>2013-02-10T19:25:32Z</time>
   </trkpt>
   <trkpt lat="32.7651920" lon="35.2143094">
    <ele>245.4</ele>
    <time>2013-02-10T19:25:33Z</time>
   </trkpt>
   <trkpt lat="32.7651833" lon="35.2143589">
    <ele>245.4</ele>
    <time>2013-02-10T19:25:34Z</time>
   </trkpt>
   <trkpt lat="32.7651666" lon="35.2144065">
    <ele>245.5</ele>
    <time>2013-02-10T19:25:35Z</time>
   </trkpt>
   <trkpt lat="32.7651551" lon="35.2144408">
    <ele>245.6</ele>
    <time>2013-02-10T19:25:36Z</time>
   </trkpt>
   <trkpt lat="32.7651364" lon="35.2144962">
    <ele>245.6</ele>
    <time>2013-02-10T19:25:37Z</time>
   </trkpt>
   <trkpt lat="32.7651230" lon="35.2145400">
    <ele>245.7</ele>
    <time>2013-02-10T19:25:38Z</time>
   </trkpt>
   <trkpt lat="32.7651048" lon="35.2145833">
    <ele>245.7</ele>
    <time>2013-02-10T19:25:39Z</time>
   </trkpt>
   <trkpt lat="32.7650918" lon="35.2146300">
    <ele>245.6</ele>
    <time>2013-02-10T19:25:40Z</time>
   </trkpt>
   <trkpt lat="32.7650825" lon="35.2146741">
    <ele>245.4</ele>
    <time>2013-02-10T19:25:41Z</time>
   </trkpt>
   <trkpt lat="32.7650726" lon="35.2147245">
    <ele>245.2</ele>
    <time>2013-02-10T19:25:42Z</time>
   </trkpt>
   <trkpt lat="32.7650685" lon="35.2147762">
    <ele>245.0</ele>
    <time>2013-02-10T19:25:43Z</time>
   </trkpt>
   <trkpt lat="32.7650448" lon="35.2148840">
    <ele>244.6</ele>
    <time>2013-02-10T19:25:44Z</time>
   </trkpt>
   <trkpt lat="32.7650360" lon="35.2149313">
    <ele>244.5</ele>
    <time>2013-02-10T19:25:45Z</time>
   </trkpt>
   <trkpt lat="32.7650096" lon="35.2149828">
    <ele>244.3</ele>
    <time>2013-02-10T19:25:46Z</time>
   </trkpt>
   <trkpt lat="32.7649865" lon="35.2150426">
    <ele>244.1</ele>
    <time>2013-02-10T19:25:48Z</time>
   </trkpt>
   <trkpt lat="32.7649569" lon="35.2150656">
    <ele>244.0</ele>
    <time>2013-02-10T19:25:49Z</time>
   </trkpt>
   <trkpt lat="32.7649229" lon="35.2151151">
    <ele>243.9</ele>
    <time>2013-02-10T19:25:50Z</time>
   </trkpt>
   <trkpt lat="32.7648914" lon="35.2151376">
    <ele>243.8</ele>
    <time>2013-02-10T19:25:51Z</time>
   </trkpt>
   <trkpt lat="32.7648717" lon="35.2151651">
    <ele>243.8</ele>
    <time>2013-02-10T19:25:52Z</time>
   </trkpt>
   <trkpt lat="32.7648480" lon="35.2151913">
    <ele>243.7</ele>
    <time>2013-02-10T19:25:53Z</time>
   </trkpt>
   <trkpt lat="32.7648201" lon="35.2152209">
    <ele>243.6</ele>
    <time>2013-02-10T19:25:54Z</time>
   </trkpt>
   <trkpt lat="32.7647969" lon="35.2152422">
    <ele>243.5</ele>
    <time>2013-02-10T19:25:55Z</time>
   </trkpt>
   <trkpt lat="32.7647718" lon="35.2152755">
    <ele>243.4</ele>
    <time>2013-02-10T19:25:56Z</time>
   </trkpt>
   <trkpt lat="32.7647336" lon="35.2153101">
    <ele>243.3</ele>
    <time>2013-02-10T19:25:57Z</time>
   </trkpt>
   <trkpt lat="32.7647124" lon="35.2153411">
    <ele>243.2</ele>
    <time>2013-02-10T19:25:58Z</time>
   </trkpt>
   <trkpt lat="32.7646882" lon="35.2153741">
    <ele>243.1</ele>
    <time>2013-02-10T19:25:59Z</time>
   </trkpt>
   <trkpt lat="32.7646697" lon="35.2153997">
    <ele>243.0</ele>
    <time>2013-02-10T19:26:00Z</time>
   </trkpt>
   <trkpt lat="32.7646473" lon="35.2154388">
    <ele>242.9</ele>
    <time>2013-02-10T19:26:01Z</time>
   </trkpt>
   <trkpt lat="32.7646252" lon="35.2154726">
    <ele>242.9</ele>
    <time>2013-02-10T19:26:02Z</time>
   </trkpt>
   <trkpt lat="32.7646051" lon="35.2155004">
    <ele>243.0</ele>
    <time>2013-02-10T19:26:03Z</time>
   </trkpt>
   <trkpt lat="32.7645650" lon="35.2155462">
    <ele>242.9</ele>
    <time>2013-02-10T19:26:05Z</time>
   </trkpt>
   <trkpt lat="32.7645422" lon="35.2155713">
    <ele>242.7</ele>
    <time>2013-02-10T19:26:06Z</time>
   </trkpt>
   <trkpt lat="32.7645134" lon="35.2156116">
    <ele>242.5</ele>
    <time>2013-02-10T19:26:08Z</time>
   </trkpt>
   <trkpt lat="32.7644936" lon="35.2156581">
    <ele>242.4</ele>
    <time>2013-02-10T19:26:10Z</time>
   </trkpt>
   <trkpt lat="32.7644639" lon="35.2157083">
    <ele>242.2</ele>
    <time>2013-02-10T19:26:12Z</time>
   </trkpt>
   <trkpt lat="32.7643191" lon="35.2158572">
    <ele>241.3</ele>
    <time>2013-02-10T19:26:14Z</time>
   </trkpt>
   <trkpt lat="32.7643030" lon="35.2158848">
    <ele>241.2</ele>
    <time>2013-02-10T19:26:15Z</time>
   </trkpt>
   <trkpt lat="32.7642580" lon="35.2159690">
    <ele>240.9</ele>
    <time>2013-02-10T19:26:16Z</time>
   </trkpt>
   <trkpt lat="32.7642136" lon="35.2160117">
    <ele>240.7</ele>
    <time>2013-02-10T19:26:17Z</time>
   </trkpt>
   <trkpt lat="32.7641678" lon="35.2160657">
    <ele>240.4</ele>
    <time>2013-02-10T19:26:18Z</time>
   </trkpt>
   <trkpt lat="32.7641106" lon="35.2161184">
    <ele>240.1</ele>
    <time>2013-02-10T19:26:19Z</time>
   </trkpt>
   <trkpt lat="32.7640690" lon="35.2161627">
    <ele>239.8</ele>
    <time>2013-02-10T19:26:20Z</time>
   </trkpt>
   <trkpt lat="32.7639839" lon="35.2162314">
    <ele>239.4</ele>
    <time>2013-02-10T19:26:21Z</time>
   </trkpt>
   <trkpt lat="32.7639237" lon="35.2162899">
    <ele>238.8</ele>
    <time>2013-02-10T19:26:22Z</time>
   </trkpt>
   <trkpt lat="32.7638556" lon="35.2163408">
    <ele>238.2</ele>
    <time>2013-02-10T19:26:23Z</time>
   </trkpt>
   <trkpt lat="32.7638061" lon="35.2163837">
    <ele>237.7</ele>
    <time>2013-02-10T19:26:24Z</time>
   </trkpt>
   <trkpt lat="32.7637517" lon="35.2164074">
    <ele>237.3</ele>
    <time>2013-02-10T19:26:25Z</time>
   </trkpt>
   <trkpt lat="32.7637166" lon="35.2164378">
    <ele>236.6</ele>
    <time>2013-02-10T19:26:26Z</time>
   </trkpt>
   <trkpt lat="32.7636750" lon="35.2164956">
    <ele>235.7</ele>
    <time>2013-02-10T19:26:27Z</time>
   </trkpt>
   <trkpt lat="32.7636499" lon="35.2165475">
    <ele>235.1</ele>
    <time>2013-02-10T19:26:28Z</time>
   </trkpt>
   <trkpt lat="32.7636101" lon="35.2166031">
    <ele>234.2</ele>
    <time>2013-02-10T19:26:29Z</time>
   </trkpt>
   <trkpt lat="32.7635844" lon="35.2166579">
    <ele>233.6</ele>
    <time>2013-02-10T19:26:30Z</time>
   </trkpt>
   <trkpt lat="32.7635637" lon="35.2167388">
    <ele>232.9</ele>
    <time>2013-02-10T19:26:31Z</time>
   </trkpt>
   <trkpt lat="32.7635353" lon="35.2167984">
    <ele>232.2</ele>
    <time>2013-02-10T19:26:32Z</time>
   </trkpt>
   <trkpt lat="32.7635128" lon="35.2168769">
    <ele>231.5</ele>
    <time>2013-02-10T19:26:33Z</time>
   </trkpt>
   <trkpt lat="32.7635159" lon="35.2169180">
    <ele>231.4</ele>
    <time>2013-02-10T19:26:34Z</time>
   </trkpt>
   <trkpt lat="32.7635084" lon="35.2169687">
    <ele>231.0</ele>
    <time>2013-02-10T19:26:35Z</time>
   </trkpt>
   <trkpt lat="32.7635115" lon="35.2170614">
    <ele>230.7</ele>
    <time>2013-02-10T19:26:36Z</time>
   </trkpt>
   <trkpt lat="32.7635036" lon="35.2171347">
    <ele>230.5</ele>
    <time>2013-02-10T19:26:37Z</time>
   </trkpt>
   <trkpt lat="32.7635054" lon="35.2171767">
    <ele>230.6</ele>
    <time>2013-02-10T19:26:38Z</time>
   </trkpt>
   <trkpt lat="32.7635014" lon="35.2172186">
    <ele>230.6</ele>
    <time>2013-02-10T19:26:39Z</time>
   </trkpt>
   <trkpt lat="32.7635099" lon="35.2172699">
    <ele>230.7</ele>
    <time>2013-02-10T19:26:40Z</time>
   </trkpt>
   <trkpt lat="32.7635029" lon="35.2173172">
    <ele>230.7</ele>
    <time>2013-02-10T19:26:41Z</time>
   </trkpt>
   <trkpt lat="32.7635041" lon="35.2173716">
    <ele>230.7</ele>
    <time>2013-02-10T19:26:42Z</time>
   </trkpt>
   <trkpt lat="32.7635210" lon="35.2174370">
    <ele>231.1</ele>
    <time>2013-02-10T19:26:43Z</time>
   </trkpt>
   <trkpt lat="32.7635188" lon="35.2174890">
    <ele>231.1</ele>
    <time>2013-02-10T19:26:44Z</time>
   </trkpt>
   <trkpt lat="32.7635233" lon="35.2175327">
    <ele>231.2</ele>
    <time>2013-02-10T19:26:45Z</time>
   </trkpt>
   <trkpt lat="32.7635319" lon="35.2175741">
    <ele>231.4</ele>
    <time>2013-02-10T19:26:46Z</time>
   </trkpt>
   <trkpt lat="32.7635255" lon="35.2176154">
    <ele>231.4</ele>
    <time>2013-02-10T19:26:47Z</time>
   </trkpt>
   <trkpt lat="32.7635147" lon="35.2176620">
    <ele>231.2</ele>
    <time>2013-02-10T19:26:48Z</time>
   </trkpt>
   <trkpt lat="32.7635013" lon="35.2177084">
    <ele>231.0</ele>
    <time>2013-02-10T19:26:49Z</time>
   </trkpt>
   <trkpt lat="32.7634873" lon="35.2177489">
    <ele>230.8</ele>
    <time>2013-02-10T19:26:50Z</time>
   </trkpt>
   <trkpt lat="32.7634732" lon="35.2177942">
    <ele>230.6</ele>
    <time>2013-02-10T19:26:51Z</time>
   </trkpt>
   <trkpt lat="32.7634702" lon="35.2178300">
    <ele>230.6</ele>
    <time>2013-02-10T19:26:52Z</time>
   </trkpt>
   <trkpt lat="32.7634611" lon="35.2178652">
    <ele>230.4</ele>
    <time>2013-02-10T19:26:53Z</time>
   </trkpt>
   <trkpt lat="32.7634515" lon="35.2179269">
    <ele>230.3</ele>
    <time>2013-02-10T19:26:55Z</time>
   </trkpt>
   <trkpt lat="32.7634404" lon="35.2179601">
    <ele>230.3</ele>
    <time>2013-02-10T19:26:56Z</time>
   </trkpt>
   <trkpt lat="32.7634193" lon="35.2180244">
    <ele>230.3</ele>
    <time>2013-02-10T19:26:58Z</time>
   </trkpt>
   <trkpt lat="32.7634068" lon="35.2180692">
    <ele>230.3</ele>
    <time>2013-02-10T19:26:59Z</time>
   </trkpt>
   <trkpt lat="32.7633993" lon="35.2181152">
    <ele>230.5</ele>
    <time>2013-02-10T19:27:00Z</time>
   </trkpt>
   <trkpt lat="32.7633917" lon="35.2181548">
    <ele>230.5</ele>
    <time>2013-02-10T19:27:01Z</time>
   </trkpt>
   <trkpt lat="32.7633901" lon="35.2181977">
    <ele>230.8</ele>
    <time>2013-02-10T19:27:02Z</time>
   </trkpt>
   <trkpt lat="32.7633896" lon="35.2182387">
    <ele>231.0</ele>
    <time>2013-02-10T19:27:03Z</time>
   </trkpt>
   <trkpt lat="32.7633900" lon="35.2182742">
    <ele>231.2</ele>
    <time>2013-02-10T19:27:04Z</time>
   </trkpt>
   <trkpt lat="32.7634003" lon="35.2183089">
    <ele>231.6</ele>
    <time>2013-02-10T19:27:05Z</time>
   </trkpt>
   <trkpt lat="32.7634062" lon="35.2183440">
    <ele>232.0</ele>
    <time>2013-02-10T19:27:06Z</time>
   </trkpt>
   <trkpt lat="32.7634148" lon="35.2183766">
    <ele>232.3</ele>
    <time>2013-02-10T19:27:07Z</time>
   </trkpt>
   <trkpt lat="32.7634272" lon="35.2184225">
    <ele>232.8</ele>
    <time>2013-02-10T19:27:09Z</time>
   </trkpt>
   <trkpt lat="32.7634420" lon="35.2184530">
    <ele>233.3</ele>
    <time>2013-02-10T19:27:11Z</time>
   </trkpt>
   <trkpt lat="32.7634556" lon="35.2184849">
    <ele>233.8</ele>
    <time>2013-02-10T19:27:13Z</time>
   </trkpt>
   <trkpt lat="32.7634784" lon="35.2185295">
    <ele>234.5</ele>
    <time>2013-02-10T19:27:15Z</time>
   </trkpt>
   <trkpt lat="32.7634953" lon="35.2185729">
    <ele>235.0</ele>
    <time>2013-02-10T19:27:17Z</time>
   </trkpt>
   <trkpt lat="32.7635099" lon="35.2186199">
    <ele>235.6</ele>
    <time>2013-02-10T19:27:19Z</time>
   </trkpt>
   <trkpt lat="32.7635186" lon="35.2186793">
    <ele>236.1</ele>
    <time>2013-02-10T19:27:21Z</time>
   </trkpt>
   <trkpt lat="32.7635243" lon="35.2187439">
    <ele>236.6</ele>
    <time>2013-02-10T19:27:23Z</time>
   </trkpt>
   <trkpt lat="32.7635265" lon="35.2187969">
    <ele>236.8</ele>
    <time>2013-02-10T19:27:25Z</time>
   </trkpt>
   <trkpt lat="32.7635326" lon="35.2188527">
    <ele>237.1</ele>
    <time>2013-02-10T19:27:27Z</time>
   </trkpt>
   <trkpt lat="32.7635213" lon="35.2188842">
    <ele>236.9</ele>
    <time>2013-02-10T19:27:28Z</time>
   </trkpt>
   <trkpt lat="32.7635207" lon="35.2189377">
    <ele>237.0</ele>
    <time>2013-02-10T19:27:30Z</time>
   </trkpt>
   <trkpt lat="32.7635198" lon="35.2189949">
    <ele>237.2</ele>
    <time>2013-02-10T19:27:32Z</time>
   </trkpt>
   <trkpt lat="32.7635239" lon="35.2190473">
    <ele>237.4</ele>
    <time>2013-02-10T19:27:34Z</time>
   </trkpt>
   <trkpt lat="32.7635284" lon="35.2190971">
    <ele>237.6</ele>
    <time>2013-02-10T19:27:36Z</time>
   </trkpt>
   <trkpt lat="32.7635501" lon="35.2191207">
    <ele>238.1</ele>
    <time>2013-02-10T19:27:46Z</time>
   </trkpt>
   <trkpt lat="32.7635793" lon="35.2191063">
    <ele>238.6</ele>
    <time>2013-02-10T19:28:25Z</time>
   </trkpt>
   <trkpt lat="32.7635783" lon="35.2191512">
    <ele>238.7</ele>
    <time>2013-02-10T19:29:44Z</time>
   </trkpt>
   <trkpt lat="32.7635856" lon="35.2191836">
    <ele>238.9</ele>
    <time>2013-02-10T19:29:46Z</time>
   </trkpt>
   <trkpt lat="32.7636018" lon="35.2192158">
    <ele>239.3</ele>
    <time>2013-02-10T19:29:48Z</time>
   </trkpt>
   <trkpt lat="32.7636255" lon="35.2192451">
    <ele>239.8</ele>
    <time>2013-02-10T19:29:50Z</time>
   </trkpt>
   <trkpt lat="32.7636525" lon="35.2192796">
    <ele>240.4</ele>
    <time>2013-02-10T19:29:52Z</time>
   </trkpt>
   <trkpt lat="32.7636795" lon="35.2193184">
    <ele>241.0</ele>
    <time>2013-02-10T19:29:54Z</time>
   </trkpt>
   <trkpt lat="32.7637147" lon="35.2193767">
    <ele>241.8</ele>
    <time>2013-02-10T19:29:56Z</time>
   </trkpt>
   <trkpt lat="32.7637365" lon="35.2194142">
    <ele>242.3</ele>
    <time>2013-02-10T19:29:57Z</time>
   </trkpt>
   <trkpt lat="32.7637728" lon="35.2195561">
    <ele>242.9</ele>
    <time>2013-02-10T19:29:58Z</time>
   </trkpt>
   <trkpt lat="32.7637935" lon="35.2196218">
    <ele>242.5</ele>
    <time>2013-02-10T19:29:59Z</time>
   </trkpt>
   <trkpt lat="32.7638170" lon="35.2196867">
    <ele>241.8</ele>
    <time>2013-02-10T19:30:00Z</time>
   </trkpt>
   <trkpt lat="32.7638380" lon="35.2197729">
    <ele>240.9</ele>
    <time>2013-02-10T19:30:01Z</time>
   </trkpt>
   <trkpt lat="32.7638509" lon="35.2198552">
    <ele>240.0</ele>
    <time>2013-02-10T19:30:02Z</time>
   </trkpt>
   <trkpt lat="32.7638551" lon="35.2199419">
    <ele>239.1</ele>
    <time>2013-02-10T19:30:03Z</time>
   </trkpt>
   <trkpt lat="32.7638546" lon="35.2200153">
    <ele>238.3</ele>
    <time>2013-02-10T19:30:04Z</time>
   </trkpt>
   <trkpt lat="32.7638391" lon="35.2200773">
    <ele>237.8</ele>
    <time>2013-02-10T19:30:05Z</time>
   </trkpt>
   <trkpt lat="32.7638370" lon="35.2201418">
    <ele>237.2</ele>
    <time>2013-02-10T19:30:06Z</time>
   </trkpt>
   <trkpt lat="32.7638377" lon="35.2202018">
    <ele>236.5</ele>
    <time>2013-02-10T19:30:07Z</time>
   </trkpt>
   <trkpt lat="32.7638296" lon="35.2202549">
    <ele>236.1</ele>
    <time>2013-02-10T19:30:08Z</time>
   </trkpt>
   <trkpt lat="32.7637852" lon="35.2203085">
    <ele>235.8</ele>
    <time>2013-02-10T19:30:09Z</time>
   </trkpt>
   <trkpt lat="32.7637476" lon="35.2203638">
    <ele>235.5</ele>
    <time>2013-02-10T19:30:10Z</time>
   </trkpt>
   <trkpt lat="32.7637008" lon="35.2203844">
    <ele>234.7</ele>
    <time>2013-02-10T19:30:11Z</time>
   </trkpt>
   <trkpt lat="32.7636486" lon="35.2203939">
    <ele>234.0</ele>
    <time>2013-02-10T19:30:12Z</time>
   </trkpt>
   <trkpt lat="32.7636045" lon="35.2204059">
    <ele>233.3</ele>
    <time>2013-02-10T19:30:13Z</time>
   </trkpt>
   <trkpt lat="32.7635719" lon="35.2204257">
    <ele>232.7</ele>
    <time>2013-02-10T19:30:14Z</time>
   </trkpt>
   <trkpt lat="32.7635445" lon="35.2204488">
    <ele>232.1</ele>
    <time>2013-02-10T19:30:15Z</time>
   </trkpt>
   <trkpt lat="32.7635677" lon="35.2205045">
    <ele>231.7</ele>
    <time>2013-02-10T19:30:16Z</time>
   </trkpt>
   <trkpt lat="32.7635721" lon="35.2205504">
    <ele>231.1</ele>
    <time>2013-02-10T19:30:17Z</time>
   </trkpt>
   <trkpt lat="32.7635276" lon="35.2205958">
    <ele>230.0</ele>
    <time>2013-02-10T19:30:18Z</time>
   </trkpt>
   <trkpt lat="32.7635208" lon="35.2206486">
    <ele>229.2</ele>
    <time>2013-02-10T19:30:19Z</time>
   </trkpt>
   <trkpt lat="32.7635302" lon="35.2207045">
    <ele>228.6</ele>
    <time>2013-02-10T19:30:20Z</time>
   </trkpt>
   <trkpt lat="32.7635361" lon="35.2207567">
    <ele>227.9</ele>
    <time>2013-02-10T19:30:21Z</time>
   </trkpt>
   <trkpt lat="32.7635508" lon="35.2208153">
    <ele>227.3</ele>
    <time>2013-02-10T19:30:22Z</time>
   </trkpt>
   <trkpt lat="32.7635568" lon="35.2208808">
    <ele>226.6</ele>
    <time>2013-02-10T19:30:23Z</time>
   </trkpt>
   <trkpt lat="32.7635638" lon="35.2209302">
    <ele>226.0</ele>
    <time>2013-02-10T19:30:24Z</time>
   </trkpt>
   <trkpt lat="32.7635631" lon="35.2210114">
    <ele>224.9</ele>
    <time>2013-02-10T19:30:32Z</time>
   </trkpt>
   <trkpt lat="32.7635556" lon="35.2210540">
    <ele>224.3</ele>
    <time>2013-02-10T19:30:33Z</time>
   </trkpt>
   <trkpt lat="32.7635338" lon="35.2210862">
    <ele>223.6</ele>
    <time>2013-02-10T19:30:34Z</time>
   </trkpt>
   <trkpt lat="32.7635194" lon="35.2211200">
    <ele>222.9</ele>
    <time>2013-02-10T19:30:35Z</time>
   </trkpt>
   <trkpt lat="32.7635039" lon="35.2211594">
    <ele>222.2</ele>
    <time>2013-02-10T19:30:36Z</time>
   </trkpt>
   <trkpt lat="32.7634912" lon="35.2212028">
    <ele>221.5</ele>
    <time>2013-02-10T19:30:37Z</time>
   </trkpt>
   <trkpt lat="32.7635242" lon="35.2213180">
    <ele>220.1</ele>
    <time>2013-02-10T19:30:38Z</time>
   </trkpt>
   <trkpt lat="32.7635338" lon="35.2213869">
    <ele>219.0</ele>
    <time>2013-02-10T19:30:39Z</time>
   </trkpt>
   <trkpt lat="32.7635440" lon="35.2214602">
    <ele>217.9</ele>
    <time>2013-02-10T19:30:40Z</time>
   </trkpt>
   <trkpt lat="32.7635546" lon="35.2215270">
    <ele>216.8</ele>
    <time>2013-02-10T19:30:41Z</time>
   </trkpt>
   <trkpt lat="32.7635743" lon="35.2215712">
    <ele>216.3</ele>
    <time>2013-02-10T19:30:42Z</time>
   </trkpt>
   <trkpt lat="32.7636276" lon="35.2215913">
    <ele>216.5</ele>
    <time>2013-02-10T19:30:44Z</time>
   </trkpt>
   <trkpt lat="32.7636790" lon="35.2215911">
    <ele>217.1</ele>
    <time>2013-02-10T19:30:46Z</time>
   </trkpt>
   <trkpt lat="32.7637063" lon="35.2216030">
    <ele>217.2</ele>
    <time>2013-02-10T19:30:47Z</time>
   </trkpt>
   <trkpt lat="32.7637557" lon="35.2216092">
    <ele>217.5</ele>
    <time>2013-02-10T19:30:49Z</time>
   </trkpt>
   <trkpt lat="32.7637700" lon="35.2215801">
    <ele>218.0</ele>
    <time>2013-02-10T19:30:50Z</time>
   </trkpt>
   <trkpt lat="32.7637972" lon="35.2215547">
    <ele>218.3</ele>
    <time>2013-02-10T19:30:52Z</time>
   </trkpt>
   <trkpt lat="32.7638155" lon="35.2215263">
    <ele>218.7</ele>
    <time>2013-02-10T19:30:54Z</time>
   </trkpt>
   <trkpt lat="32.7638259" lon="35.2214872">
    <ele>219.3</ele>
    <time>2013-02-10T19:30:57Z</time>
   </trkpt>
   <trkpt lat="32.7637985" lon="35.2214879">
    <ele>219.5</ele>
    <time>2013-02-10T19:31:05Z</time>
   </trkpt>
   <trkpt lat="32.7637980" lon="35.2214512">
    <ele>220.1</ele>
    <time>2013-02-10T19:33:40Z</time>
   </trkpt>
   <trkpt lat="32.7637728" lon="35.2214695">
    <ele>219.9</ele>
    <time>2013-02-10T19:34:08Z</time>
   </trkpt>
   <trkpt lat="32.7637512" lon="35.2214429">
    <ele>220.5</ele>
    <time>2013-02-10T19:36:37Z</time>
   </trkpt>
   <trkpt lat="32.7637603" lon="35.2214857">
    <ele>219.7</ele>
    <time>2013-02-10T19:36:45Z</time>
   </trkpt>
  </trkseg>
 </trk>
</gpx>
